[[{"header":{"parameterUnit":"m.s-1","parameterCategory":1,"la1":30.6,"la2":29.2853,"lo1":-89.7004,"lo2":-87.6739,"dy":0.0162,"dx":0.0183,"nx":112,"ny":82,"refTime":"2024-01-31T18:00:00:Z","depth":0,"parameterNumber":2,"parameterNumberName":"U-component_of_WINDS"},"data":[0.0,0.0,0.0,0.0,0.0,0.0,0.0,0.0,0.0,0.0,0.0,0.0,0.0,0.0,0.0,0.0,0.0,0.0,0.0,0.0,0.0,0.0,0.0,0.0,0.0,0.0,0.0,0.0,0.0,0.0,0.0,0.0,0.0,0.0,0.0,0.0,0.0,0.0,0.0,0.0,0.0,0.0,0.0,0.0,0.0,0.0,0.0,0.0,0.0,0.0,0.0,0.0,0.0,0.0,0.0,0.0,0.0,0.0,0.0,0.0,0.0,0.0,0.0,0.0,0.0,0.0,0.0,0.0,0.0,0.0,0.0,0.0,0.0,0.0,0.0,0.0,0.0,0.0,0.0,0.0,0.0,0.0,0.0,0.0,0.0,0.0,0.0,0.0,0.0,0.0,-6.3581,-6.371,-6.4351,-6.4927,-6.5504,-6.6309,-6.6928,-6.7195,0.0,0.0,0.0,0.0,0.0,0.0,0.0,0.0,0.0,0.0,0.0,0.0,0.0,0.0,0.0,0.0,0.0,0.0,0.0,0.0,0.0,0.0,0.0,0.0,0.0,0.0,0.0,0.0,0.0,0.0,0.0,0.0,0.0,0.0,0.0,0.0,0.0,0.0,0.0,0.0,0.0,0.0,0.0,0.0,0.0,0.0,0.0,0.0,0.0,0.0,0.0,0.0,0.0,0.0,0.0,0.0,0.0,0.0,0.0,0.0,0.0,0.0,0.0,0.0,0.0,0.0,0.0,0.0,0.0,0.0,0.0,0.0,0.0,0.0,0.0,0.0,0.0,0.0,0.0,0.0,0.0,0.0,0.0,0.0,0.0,0.0,0.0,0.0,0.0,0.0,0.0,0.0,0.0,0.0,0.0,0.0,0.0,0.0,0.0,0.0,0.0,0.0,0.0,0.0,-6.5346,-6.5964,-6.6355,-6.6742,-6.6904,-6.775,-6.8405,-6.8862,0.0,0.0,0.0,0.0,0.0,0.0,0.0,0.0,0.0,0.0,0.0,0.0,0.0,0.0,0.0,0.0,0.0,0.0,0.0,0.0,0.0,0.0,0.0,0.0,0.0,0.0,0.0,0.0,0.0,0.0,0.0,0.0,0.0,0.0,0.0,0.0,0.0,0.0,0.0,0.0,0.0,0.0,0.0,0.0,0.0,0.0,0.0,0.0,0.0,0.0,0.0,0.0,0.0,0.0,0.0,0.0,0.0,0.0,0.0,0.0,0.0,0.0,0.0,0.0,0.0,0.0,0.0,0.0,0.0,0.0,0.0,0.0,0.0,0.0,0.0,0.0,0.0,0.0,0.0,0.0,0.0,0.0,0.0,0.0,0.0,0.0,0.0,0.0,0.0,0.0,0.0,0.0,0.0,0.0,0.0,0.0,0.0,0.0,0.0,0.0,0.0,0.0,0.0,-6.6362,-6.6792,-6.795,-6.8126,-6.8298,-6.8566,-6.9088,-6.9637,-7.0076,-7.0597,0.0,0.0,0.0,0.0,0.0,0.0,0.0,0.0,0.0,0.0,0.0,0.0,0.0,0.0,0.0,0.0,0.0,0.0,0.0,0.0,0.0,0.0,0.0,0.0,0.0,0.0,0.0,0.0,0.0,0.0,0.0,0.0,0.0,0.0,0.0,0.0,0.0,0.0,0.0,0.0,0.0,0.0,0.0,0.0,0.0,0.0,0.0,0.0,0.0,0.0,0.0,0.0,0.0,0.0,0.0,0.0,0.0,0.0,0.0,0.0,0.0,0.0,0.0,0.0,0.0,0.0,0.0,0.0,0.0,0.0,0.0,0.0,0.0,0.0,0.0,0.0,0.0,0.0,0.0,0.0,0.0,0.0,0.0,0.0,0.0,0.0,0.0,0.0,0.0,0.0,0.0,0.0,0.0,0.0,0.0,0.0,0.0,0.0,0.0,0.0,0.0,0.0,-6.8538,-6.8992,-7.0052,-6.985,-6.9879,-7.0437,-7.0657,-7.0968,-7.174,-7.2961,0.0,0.0,0.0,0.0,0.0,0.0,0.0,0.0,0.0,0.0,0.0,0.0,0.0,0.0,0.0,0.0,0.0,0.0,0.0,0.0,0.0,0.0,0.0,0.0,0.0,0.0,0.0,0.0,0.0,0.0,0.0,0.0,0.0,0.0,0.0,0.0,0.0,0.0,0.0,0.0,0.0,0.0,0.0,0.0,0.0,0.0,0.0,0.0,0.0,0.0,0.0,0.0,0.0,0.0,0.0,0.0,0.0,0.0,0.0,0.0,0.0,0.0,0.0,0.0,0.0,0.0,0.0,0.0,0.0,0.0,0.0,0.0,0.0,0.0,0.0,0.0,0.0,0.0,0.0,0.0,0.0,0.0,0.0,0.0,0.0,0.0,0.0,0.0,0.0,0.0,0.0,0.0,0.0,0.0,0.0,0.0,0.0,0.0,0.0,0.0,0.0,0.0,-7.1995,-7.2478,-7.2414,-7.1919,-7.1879,-7.2428,-7.2462,-7.3126,-7.4515,-7.5303,0.0,0.0,0.0,0.0,0.0,0.0,0.0,0.0,0.0,0.0,0.0,0.0,0.0,0.0,0.0,0.0,0.0,0.0,0.0,0.0,0.0,0.0,0.0,0.0,0.0,0.0,0.0,0.0,0.0,0.0,0.0,0.0,0.0,0.0,0.0,0.0,0.0,0.0,0.0,0.0,0.0,0.0,0.0,0.0,0.0,0.0,0.0,0.0,0.0,0.0,0.0,0.0,0.0,0.0,0.0,0.0,0.0,0.0,0.0,0.0,0.0,0.0,0.0,0.0,0.0,0.0,0.0,0.0,0.0,0.0,0.0,0.0,0.0,0.0,0.0,0.0,0.0,0.0,0.0,0.0,0.0,0.0,0.0,0.0,0.0,0.0,0.0,0.0,0.0,0.0,0.0,0.0,0.0,0.0,0.0,0.0,0.0,0.0,0.0,0.0,0.0,0.0,-7.2836,-7.3361,-7.4192,-7.4101,-7.4251,-7.4802,-7.4872,-7.5178,-7.5907,0.0,0.0,0.0,0.0,0.0,0.0,0.0,0.0,0.0,0.0,0.0,0.0,0.0,0.0,0.0,0.0,0.0,0.0,0.0,0.0,0.0,0.0,0.0,0.0,0.0,0.0,0.0,0.0,0.0,0.0,0.0,0.0,0.0,0.0,0.0,0.0,0.0,0.0,0.0,0.0,0.0,0.0,0.0,0.0,0.0,0.0,0.0,0.0,0.0,0.0,0.0,0.0,0.0,0.0,0.0,0.0,0.0,0.0,0.0,0.0,0.0,0.0,0.0,0.0,0.0,0.0,0.0,0.0,0.0,0.0,0.0,0.0,0.0,0.0,0.0,0.0,0.0,0.0,0.0,0.0,0.0,0.0,0.0,0.0,0.0,0.0,0.0,0.0,0.0,0.0,0.0,0.0,0.0,0.0,0.0,0.0,0.0,0.0,0.0,0.0,0.0,0.0,-7.4079,-7.4292,-7.4826,-7.5822,-7.6142,-7.6488,-7.7071,-7.7064,-7.717,-7.7802,0.0,0.0,0.0,0.0,0.0,0.0,0.0,0.0,0.0,0.0,0.0,0.0,0.0,0.0,0.0,0.0,0.0,0.0,0.0,0.0,0.0,0.0,0.0,0.0,0.0,0.0,0.0,0.0,0.0,0.0,0.0,0.0,0.0,0.0,0.0,0.0,0.0,0.0,0.0,0.0,0.0,0.0,0.0,0.0,0.0,0.0,0.0,0.0,0.0,0.0,0.0,0.0,0.0,0.0,0.0,0.0,0.0,0.0,0.0,0.0,0.0,0.0,0.0,0.0,0.0,0.0,0.0,0.0,0.0,0.0,0.0,0.0,0.0,0.0,0.0,0.0,0.0,0.0,0.0,0.0,0.0,0.0,0.0,0.0,0.0,0.0,0.0,0.0,0.0,0.0,0.0,0.0,0.0,0.0,0.0,0.0,0.0,0.0,0.0,0.0,0.0,0.0,-7.6135,-7.6891,-7.7466,-7.7466,-7.7948,-7.8602,-7.9215,-7.8881,-7.9164,0.0,0.0,0.0,0.0,0.0,0.0,0.0,0.0,0.0,0.0,0.0,0.0,0.0,0.0,0.0,0.0,0.0,0.0,0.0,0.0,0.0,0.0,0.0,0.0,0.0,0.0,0.0,0.0,0.0,0.0,0.0,0.0,0.0,0.0,0.0,0.0,0.0,0.0,0.0,0.0,0.0,0.0,0.0,0.0,0.0,0.0,0.0,0.0,0.0,0.0,0.0,0.0,0.0,0.0,0.0,0.0,0.0,0.0,0.0,0.0,0.0,0.0,0.0,0.0,0.0,0.0,0.0,0.0,0.0,0.0,0.0,0.0,0.0,0.0,0.0,0.0,0.0,0.0,0.0,0.0,0.0,0.0,0.0,0.0,0.0,0.0,0.0,0.0,0.0,0.0,0.0,0.0,0.0,0.0,0.0,0.0,0.0,0.0,0.0,0.0,0.0,0.0,0.0,-7.7567,-7.8362,-7.9158,-7.9771,-8.0027,-8.0436,-8.1172,-8.0903,-8.1126,-8.1995,0.0,0.0,0.0,0.0,0.0,0.0,0.0,0.0,0.0,0.0,0.0,0.0,0.0,0.0,0.0,0.0,0.0,0.0,0.0,0.0,0.0,0.0,0.0,0.0,0.0,0.0,0.0,0.0,0.0,0.0,0.0,0.0,0.0,0.0,0.0,0.0,0.0,0.0,0.0,0.0,0.0,0.0,0.0,0.0,0.0,0.0,0.0,0.0,0.0,0.0,0.0,0.0,0.0,0.0,0.0,0.0,0.0,0.0,0.0,0.0,0.0,0.0,0.0,0.0,0.0,0.0,0.0,0.0,0.0,0.0,0.0,0.0,0.0,0.0,0.0,0.0,0.0,0.0,0.0,0.0,0.0,0.0,0.0,0.0,0.0,0.0,0.0,0.0,0.0,0.0,0.0,0.0,0.0,0.0,0.0,0.0,0.0,0.0,0.0,0.0,0.0,0.0,-7.9044,-7.9878,-8.0577,-8.1181,-8.1513,-8.2029,-8.2748,-8.2524,-8.2758,-8.36,0.0,0.0,0.0,0.0,0.0,0.0,0.0,0.0,0.0,0.0,0.0,0.0,0.0,0.0,0.0,0.0,0.0,0.0,0.0,0.0,0.0,0.0,0.0,0.0,0.0,0.0,0.0,0.0,0.0,0.0,0.0,0.0,0.0,0.0,0.0,0.0,0.0,0.0,0.0,0.0,0.0,0.0,0.0,0.0,0.0,0.0,0.0,0.0,0.0,0.0,0.0,0.0,0.0,0.0,0.0,0.0,0.0,0.0,0.0,0.0,0.0,0.0,0.0,0.0,0.0,0.0,0.0,0.0,0.0,0.0,0.0,0.0,0.0,0.0,0.0,0.0,0.0,0.0,0.0,0.0,0.0,0.0,0.0,0.0,0.0,0.0,0.0,0.0,0.0,0.0,0.0,0.0,0.0,0.0,0.0,0.0,0.0,0.0,0.0,0.0,0.0,0.0,-8.0555,-8.137,-8.1889,-8.1963,-8.2631,-8.3349,-8.4077,-8.3925,-8.4193,-8.5078,0.0,0.0,0.0,0.0,0.0,0.0,0.0,0.0,0.0,0.0,0.0,0.0,0.0,0.0,0.0,0.0,0.0,0.0,0.0,0.0,0.0,0.0,0.0,0.0,0.0,0.0,0.0,0.0,0.0,0.0,0.0,0.0,0.0,0.0,0.0,0.0,0.0,0.0,0.0,0.0,0.0,0.0,0.0,0.0,0.0,0.0,0.0,0.0,0.0,0.0,0.0,0.0,0.0,0.0,0.0,0.0,0.0,0.0,0.0,0.0,1.4462,0.9953,0.0,0.0,0.0,0.0,0.0,0.0,0.0,0.0,0.0,0.0,0.0,0.0,0.0,0.0,0.0,0.0,0.0,0.0,0.0,0.0,0.0,0.0,0.0,0.0,0.0,0.0,0.0,0.0,0.0,0.0,0.0,0.0,0.0,0.0,0.0,0.0,0.0,0.0,0.0,0.0,-8.1941,-8.2687,-8.3433,-8.4161,-8.4385,-8.4775,-8.5558,-8.5418,-8.5693,-8.6585,-8.6437,0.0,0.0,0.0,0.0,0.0,0.0,0.0,0.0,0.0,0.0,0.0,0.0,0.0,0.0,0.0,0.0,0.0,0.0,0.0,0.0,0.0,0.0,0.0,0.0,0.0,0.0,0.0,0.0,0.0,0.0,0.0,0.0,0.0,0.0,0.0,0.0,0.0,0.0,0.0,0.0,0.0,0.0,0.0,0.0,0.0,0.0,0.0,0.0,0.0,0.0,0.0,0.0,0.0,0.0,0.0,0.0,0.0,0.0,0.0,1.3945,1.1232,0.0,0.0,0.0,0.0,0.0,0.0,0.0,0.0,0.0,0.0,0.0,0.0,0.0,0.0,0.0,0.0,0.0,0.0,0.0,0.0,0.0,0.0,0.0,0.0,0.0,0.0,0.0,0.0,0.0,0.0,0.0,0.0,0.0,0.0,0.0,0.0,0.0,0.0,0.0,0.0,-8.3742,-8.4229,-8.4845,-8.5762,-8.5837,-8.6175,-8.7001,-8.6984,-8.7267,-8.8092,-8.8073,0.0,0.0,0.0,0.0,0.0,0.0,0.0,0.0,0.0,0.0,0.0,0.0,0.0,0.0,0.0,0.0,0.0,0.0,0.0,0.0,0.0,0.0,0.0,0.0,0.0,0.0,0.0,0.0,0.0,0.0,0.0,0.0,0.0,0.0,0.0,0.0,0.0,0.0,0.0,0.0,0.0,0.0,0.0,0.0,0.0,0.0,0.0,0.0,0.0,0.0,0.0,0.0,0.0,0.5746,0.9048,1.1259,1.2256,1.3759,1.5485,1.3909,1.2711,1.1638,0.6505,0.0,0.0,0.0,0.0,0.0,0.0,0.0,0.0,0.0,0.0,0.0,0.0,0.0,0.0,0.0,0.0,0.0,0.0,0.0,0.0,0.0,0.0,-8.387,-8.4528,-8.4156,-8.3412,-8.2572,0.0,0.0,0.0,0.0,0.0,0.0,0.0,0.0,0.0,0.0,0.0,-8.5674,-8.5863,-8.6214,-8.7182,-8.7296,-8.7587,-8.8419,-8.8495,-8.8709,-8.9389,-8.9427,-8.9414,0.0,0.0,0.0,0.0,0.0,0.0,0.0,0.0,0.0,0.0,0.0,0.0,0.0,0.0,0.0,0.0,0.0,0.0,0.0,0.0,0.0,0.0,0.0,0.0,0.0,0.0,0.0,0.0,0.0,0.0,0.0,0.0,-4.9188,-4.556,0.0,0.0,0.0,0.0,0.0,0.0,0.0,0.0,0.0,0.0,0.0,0.0,0.0,-1.5329,-1.3073,-0.8957,-0.4155,0.1749,0.546,0.8996,1.2401,1.3827,1.4674,1.4917,1.3077,0.0,1.0952,0.7622,0.0,0.0,0.0,0.0,0.0,0.0,0.0,0.0,0.0,0.0,0.0,0.0,0.0,0.0,0.0,0.0,0.0,0.0,0.0,0.0,0.0,0.0,-9.3438,-9.371,-9.0971,-8.8403,-8.8632,-8.603,-8.3625,-8.3603,-8.41,-8.4452,0.0,0.0,0.0,0.0,0.0,0.0,-8.7498,-8.761,-8.7912,-8.8797,-8.8786,-8.9038,-8.9831,-8.9855,-8.9885,-8.9999,-8.9999,-8.9999,-8.9953,-8.9953,0.0,0.0,0.0,0.0,0.0,0.0,0.0,0.0,0.0,0.0,0.0,0.0,0.0,0.0,0.0,0.0,0.0,0.0,0.0,0.0,0.0,0.0,0.0,0.0,0.0,0.0,0.0,0.0,0.0,-4.4112,-4.4845,-4.1424,-4.2436,-4.1271,0.0,0.0,0.0,0.0,0.0,0.0,0.0,0.0,0.0,-2.2416,-1.8328,-1.5202,-1.3297,-0.9325,-0.4899,-0.0224,0.3804,0.766,1.0732,1.1685,1.2475,1.3324,1.1503,1.0661,1.0402,0.876,0.5432,0.0593,0.0,0.0,0.0,0.0,-2.7144,-3.4906,-4.4836,-5.3533,-6.1448,-6.9508,0.0,0.0,0.0,0.0,0.0,0.0,0.0,-9.1083,-9.3416,-9.4035,-9.4249,-9.4893,-9.4187,-9.3656,-9.4635,-9.186,-8.8352,-8.5463,-8.5497,-8.5977,-8.5794,-8.6314,0.0,0.0,0.0,-8.806,-8.9008,-8.909,-8.9436,-9.0355,-9.0332,-9.0415,-9.0761,-9.0685,-9.0645,-9.0645,-9.0645,-9.0874,-9.1294,-9.1334,-9.1525,0.0,0.0,0.0,0.0,0.0,0.0,0.0,0.0,0.0,0.0,0.0,0.0,0.0,0.0,0.0,0.0,0.0,0.0,0.0,0.0,0.0,0.0,0.0,0.0,0.0,0.0,0.0,0.0,-4.1618,-4.2067,-3.9548,-4.0384,-3.919,0.0,0.0,0.0,0.0,0.0,0.0,-2.8332,-2.5012,-2.2478,-2.1003,-1.761,-1.4922,-1.3246,-0.9503,-0.5776,-0.2239,0.2241,0.5877,0.8495,0.9185,1.0187,1.1524,0.9641,0.9175,0.9386,0.9002,0.6355,0.2151,-0.2484,-0.6014,-0.922,-1.6644,-2.358,-3.1093,-4.144,-5.041,-5.8843,-6.7944,-7.6515,-8.3539,-8.4573,0.0,0.0,0.0,0.0,-9.3698,-9.5457,-9.6194,-9.6777,-9.7793,-9.8188,-9.8651,-9.9969,-9.76,-9.3735,-8.8818,-8.7573,-8.7284,-8.7156,-8.7736,0.0,-8.8356,-8.8864,-8.9526,-9.0453,-9.0559,-9.0805,-9.1541,-9.155,-9.1436,-9.1415,-9.1322,-9.1374,-9.1605,-9.1605,-9.1919,-9.2734,-9.2801,-9.307,-9.362,0.0,0.0,0.0,0.0,0.0,0.0,0.0,0.0,0.0,0.0,0.0,0.0,0.0,0.0,0.0,0.0,0.0,0.0,0.0,0.0,0.0,0.0,0.0,0.0,0.0,0.0,0.0,0.0,0.0,-4.3449,-4.2079,0.0,0.0,0.0,0.0,-3.3267,-2.9647,-2.7977,-2.9457,-2.5029,-2.2241,-2.1771,-1.8181,-1.5476,-1.3246,-0.9947,-0.6665,-0.3359,0.1344,0.4519,0.6198,0.712,0.8574,1.0121,0.8239,0.754,0.7545,0.7523,0.6138,0.3243,-0.0652,-0.4824,-0.9173,-1.4843,-2.157,-2.9144,-3.8575,-4.6715,-5.4525,-6.3279,-7.2199,-8.0409,-8.4463,-8.5254,0.0,0.0,-9.4844,-9.7102,-10.2693,-10.4761,-10.572,-10.6764,-10.4808,-10.2869,-10.4114,-10.2274,-9.9002,-9.4628,-9.0789,-8.8252,-8.8317,0.0,-8.9874,-9.0608,-9.0752,-9.1106,-9.2,-9.2026,-9.2043,-9.2168,-9.2054,-9.1972,-9.195,-9.1859,-9.2134,-9.2948,-9.2987,-9.3375,-9.415,-9.4214,-9.4214,-9.4227,-9.508,0.0,0.0,0.0,0.0,0.0,0.0,0.0,0.0,0.0,0.0,0.0,0.0,0.0,0.0,0.0,0.0,0.0,0.0,0.0,0.0,0.0,0.0,0.0,0.0,0.0,0.0,0.0,0.0,-3.7517,-3.7889,0.0,-3.4479,-3.3133,-3.1997,-3.0638,-2.8891,-2.7614,-2.7068,-2.3937,-2.1439,-2.0449,-1.7896,-1.5613,-1.3575,-1.03,-0.7292,-0.5153,-0.0672,0.2487,0.4594,0.5743,0.6954,0.8239,0.6128,0.6128,0.7315,0.5661,0.4672,0.3229,-0.1394,-0.5754,-0.9955,-1.5196,-2.1315,-2.8512,-3.6815,-4.4759,-5.3227,-6.5359,-7.3581,-7.9771,-8.4276,-8.7268,-8.9825,-9.3487,-9.6632,-9.9351,-10.2174,-10.4272,-10.5858,-10.6626,-10.7138,-10.7713,-10.8963,-10.7112,-10.4983,-10.5094,-10.15,-9.8481,-9.8774,-9.6841,-9.5446,-9.5858,-9.3625,-9.196,-9.2278,-9.2333,-9.235,-9.2342,-9.2234,-9.2405,-9.2931,-9.2887,-9.3202,-9.4076,-9.4115,-9.4503,-9.5359,-9.5438,-9.571,-9.6215,-9.6527,-9.6954,0.0,0.0,0.0,0.0,0.0,0.0,0.0,0.0,0.0,0.0,0.0,0.0,0.0,0.0,0.0,0.0,0.0,0.0,0.0,0.0,0.0,0.0,0.0,0.0,0.0,0.0,-3.7369,-3.4286,-3.5637,-3.5275,-3.2115,-3.1697,-3.0864,-2.8789,-2.7643,-2.6632,-2.5001,-2.2956,-2.1102,-1.9656,-1.7742,-1.5716,-1.3955,-1.0473,-0.8145,-0.6277,-0.2697,0.0227,0.2527,0.3688,0.4882,0.6128,0.4479,0.5188,0.7315,0.4728,0.2138,-0.0479,-0.2889,-0.6746,-1.1319,-1.5472,-2.1277,-2.8676,-3.8529,-4.6846,-5.5021,-6.62,-7.3304,-7.8401,-8.286,-8.7029,-9.0636,-9.3286,-9.6226,-9.8995,-10.0835,-10.291,-10.4895,-10.6235,-10.8256,-11.0152,-11.1865,-11.1154,-11.086,-11.3201,-10.8689,-10.4782,-10.5507,-10.3678,-10.2179,-10.2386,-9.8416,-9.5329,-9.5415,-9.367,-9.2578,-9.281,-9.2794,-9.3114,-9.3981,-9.3972,-9.4289,-9.5173,-9.5239,-9.5615,-9.6511,-9.6603,-9.6993,-9.7812,-9.8123,-9.8513,-9.9084,0.0,0.0,0.0,0.0,0.0,0.0,0.0,0.0,0.0,0.0,0.0,0.0,0.0,0.0,0.0,0.0,0.0,0.0,0.0,0.0,0.0,0.0,0.0,-3.4055,-3.5242,-3.5592,-3.4622,-3.5341,-3.5124,-3.3434,-3.1747,-2.9945,-2.8005,-2.6276,-2.5021,-2.3965,-2.2267,-2.0919,-1.9477,-1.7804,-1.6054,-1.395,-1.0916,-0.8818,-0.7175,-0.3844,-0.1597,-0.0,0.1159,0.2339,0.3771,0.3771,0.4952,0.6849,0.4521,-0.0958,-0.7484,-0.5066,-0.7714,-1.3261,-1.5488,-2.1368,-2.9837,-4.3518,-5.2852,-5.9931,-6.5214,-7.0688,-7.5952,-8.0139,-8.3906,-8.7607,-9.1268,-9.3673,-9.5955,-9.9033,-10.1167,-10.3332,-10.6295,-10.8414,-11.0173,-11.2613,-11.4405,-11.6244,-11.8205,-11.1801,-10.6611,-10.7914,-10.9007,-10.9791,-11.0107,-10.5106,0.0,-10.1486,-9.6519,-9.3263,-9.4142,-9.421,-9.4609,-9.5546,-9.5541,-9.5887,-9.6824,-9.6852,-9.7237,-9.8136,-9.8157,-9.8541,-9.94,-10.018,-10.0603,-10.0508,0.0,0.0,0.0,0.0,0.0,0.0,0.0,0.0,0.0,0.0,0.0,0.0,0.0,0.0,0.0,0.0,0.0,0.0,0.0,0.0,0.0,-2.9912,-3.14,-3.3081,-3.4682,-3.4977,-3.342,-3.3313,-3.2586,-3.0025,-2.8963,-2.7576,-2.5644,-2.4205,-2.2956,-2.2293,-2.0886,-1.9741,-1.885,-1.7277,-1.5723,-1.3955,-1.0976,-0.8862,-0.7175,-0.3618,-0.1369,-0.0,0.0232,0.0702,0.0943,0.0943,0.0473,-0.0951,-0.3575,-0.5529,-0.7056,-0.6813,-0.9754,-1.4212,-1.6871,-2.507,-3.5584,-4.4569,-5.1623,-5.7761,-6.3541,-6.8611,-7.3558,-7.7932,-8.1973,-8.5714,-8.883,-9.2175,-9.5179,-9.7836,-10.0815,-10.3633,-10.554,-10.795,-11.0196,-11.2063,-11.3802,-11.5886,-11.8863,-11.8017,-11.7155,-11.8715,-11.6484,-11.4627,-11.4917,-11.0623,-10.7324,-10.7425,-10.6099,-10.5295,-10.5585,-10.5702,-10.6119,-10.6996,-10.7111,-10.7791,-10.9284,-10.9404,-10.9717,-11.0615,-11.0701,-11.078,-11.1014,-11.1792,-11.2183,0.0,0.0,0.0,0.0,0.0,0.0,0.0,0.0,0.0,0.0,0.0,0.0,0.0,0.0,0.0,0.0,0.0,0.0,0.0,0.0,0.0,0.0,-2.9352,-3.0101,-3.0878,-3.2467,-3.3172,-3.1553,-3.0822,-2.9596,-2.7465,-2.6509,-2.5292,-2.3805,-2.2761,-2.194,-2.1331,-2.0377,-1.9485,-1.9067,-1.7742,-1.6188,-1.4599,-1.2092,-0.9772,-0.7616,-0.4536,-0.2289,-0.069,-0.0698,-0.0704,-0.0707,-0.0707,-0.1894,-0.4056,-0.6703,-0.7728,-0.7809,0.0,0.0,0.0,0.0,-2.9026,-3.825,-4.4837,-5.11,-5.6881,-6.2111,-6.6984,-7.195,-7.6217,-8.0054,-8.3591,-8.7506,-9.0606,-9.3646,-9.7109,-9.9988,-10.2659,-10.5159,-10.7532,-10.9622,-11.1839,-11.3306,-11.527,-11.847,-11.9784,0.0,-12.2916,-12.1505,-12.0323,-12.0698,-11.6287,-11.2991,-11.3203,-11.1187,-10.989,-11.0418,-11.0614,-11.11,-11.1986,-11.2383,0.0,0.0,0.0,-11.4894,-11.5398,-11.5818,0.0,0.0,0.0,-11.7282,-11.7292,-11.7819,0.0,0.0,-11.2994,-11.411,0.0,0.0,0.0,0.0,0.0,0.0,0.0,0.0,0.0,0.0,0.0,0.0,0.0,0.0,0.0,0.0,-2.8958,-2.9448,-2.8035,-2.9089,-2.977,-2.9225,-2.7942,-2.6775,-2.5476,-2.4233,-2.318,-2.2326,-2.1737,-2.1356,-2.1162,-2.0529,0.0,0.0,0.0,-1.7277,-1.5698,-1.343,-1.1116,-0.8527,-0.6152,-0.4138,-0.2304,-0.2339,-0.2356,-0.2356,-0.2359,-0.3081,-0.4299,-0.6982,-0.8735,-0.9527,-0.9771,-1.1751,-1.57,-2.5573,-3.2702,-3.83,-4.4501,0.0,0.0,-6.0572,-6.551,-7.0856,-7.4729,-7.8132,-8.1736,-8.6448,-8.9232,-9.1735,-9.6381,-9.8771,-10.1099,-10.4942,-10.6954,-10.8853,-11.1255,-11.2769,-11.4499,-11.739,-11.864,-12.0048,-12.2526,-12.4162,-12.5393,-12.5782,-12.1604,-11.8515,-11.8902,-11.4395,-11.1529,-11.2576,-11.2874,0.0,-11.4401,-11.5201,-11.5707,-11.5902,-11.6719,-11.7114,-11.7216,-11.8089,-11.8517,-11.8481,-11.9182,-11.9591,-11.9682,-11.9698,-12.2084,-12.661,-12.1392,-11.9804,0.0,0.0,0.0,0.0,0.0,0.0,0.0,0.0,0.0,0.0,0.0,0.0,0.0,0.0,0.0,-2.6041,-2.6811,-2.7133,-2.5944,-2.5102,-2.4969,-2.6012,-2.5663,-2.4617,-2.2899,-2.244,-2.2062,-2.1093,-2.0824,-2.0726,-2.0537,-2.032,-2.0176,-1.9688,-1.9212,-1.8079,-1.6493,-1.4211,-1.1884,-0.95,-0.7773,0.0,-0.4413,-0.4689,-0.4947,-0.4952,-0.4984,-0.55,-0.6263,-0.8014,-0.9774,-1.1555,-1.302,-1.595,-2.0088,-2.6087,-3.1996,-3.7618,-4.3354,-4.9385,-5.487,-5.8924,-6.3937,-6.8994,-7.236,-7.6467,0.0,-8.4404,-8.7665,-9.1087,-9.4898,-9.7827,-10.0715,-10.3743,-10.5853,-10.7939,-10.9931,-11.1396,-11.3234,-11.5777,-11.7328,-11.8877,-12.1144,-12.2998,-12.441,-12.4813,-12.4363,-12.4081,-12.4114,-12.3609,-12.3202,-12.3478,-12.3899,-12.4398,-12.5286,-12.5801,-12.6587,-12.7984,-12.9016,-12.949,-12.961,-12.9673,-12.979,-12.9804,-12.9907,-12.9996,-13.0023,-13.0116,-13.0682,-13.1709,-12.6699,-12.7118,0.0,0.0,0.0,0.0,0.0,0.0,0.0,0.0,0.0,0.0,0.0,-2.4878,-2.5299,0.0,-2.5263,-2.5345,-2.5364,-2.4853,-2.3832,-2.2463,-2.2459,-2.4149,-2.334,-2.2526,-2.1757,-2.1169,-2.057,-1.9758,-1.9875,-1.9998,-1.9911,-2.0111,-2.0192,-2.0157,-1.9692,-1.8992,-1.7629,-1.601,-1.4135,-1.178,-1.0284,-0.899,-0.7674,-0.7267,-0.7059,-0.7067,-0.6411,-0.6464,-0.7243,-0.9274,-1.1318,-1.3612,-1.559,-1.8228,-2.154,-2.6317,-3.1996,-3.7876,-4.3137,-4.8819,-5.4382,-5.8279,-6.2941,-6.7752,-7.1191,-7.496,-7.8986,-8.3041,-8.6557,-9.001,-9.4024,-9.6993,-9.9687,-10.2737,-10.4781,-10.6663,-10.8469,-11.0052,-11.1899,-11.405,-11.599,-11.7666,-11.9596,-12.1341,-12.2876,-12.3877,-12.4516,-12.4878,-12.517,-12.5534,-12.582,-12.6039,-12.6311,-12.6714,-12.7435,-12.85,-12.9896,-13.1715,-13.2296,-13.2601,-13.2598,-13.2598,-13.271,-13.2706,-13.271,-13.271,-13.2706,-13.2779,-13.2908,-13.2901,-13.0577,-13.1382,0.0,0.0,0.0,0.0,0.0,0.0,0.0,-2.5903,-2.5662,-2.5313,-2.4578,-2.403,-2.5042,-2.4346,-2.3809,-2.445,-2.3616,-2.2581,-2.1561,-2.0512,-2.0426,-2.2239,-2.1218,-2.0428,-2.0563,-1.9684,-1.888,-1.8631,-1.8933,-1.9067,-1.9276,-1.9935,-2.0248,-2.0645,-2.0388,-1.97,-1.9002,-1.7826,-1.6187,-1.4075,-1.2806,-1.1767,-1.0704,-0.984,-0.9403,-0.9179,-0.8085,-0.8158,-0.8719,-1.0557,-1.2877,-1.5671,-1.7676,-2.0059,-2.3085,-2.6916,-3.2388,-3.8306,-4.2758,-4.832,-5.399,-5.7617,-6.2083,-6.6476,-7.0125,-7.3601,-7.728,-8.1796,-8.541,-8.8913,-9.3262,-9.6028,-9.8568,-10.1622,-10.3506,-10.5255,-10.6998,-10.869,-11.0348,-11.2456,-11.4482,-11.6462,-11.8228,-11.9828,-12.1385,-12.2869,-12.3576,-12.4099,-12.4592,-12.469,-12.4992,-12.5294,-12.5496,-12.5782,-12.6479,-12.8391,-13.019,-13.1625,-13.191,-13.2071,-13.1994,-13.2121,-13.2203,-13.2083,-13.2083,-13.2207,-13.2291,-13.2293,-13.2373,-13.271,-13.2799,-13.3602,-2.7014,-2.746,-2.7982,-2.7982,-2.6525,-2.4943,0.0,-2.5568,-2.6553,-2.5628,-2.572,-2.5607,-2.4769,-2.3574,-2.2597,-2.1725,-2.1128,-2.0512,-1.9887,-1.885,-1.8288,-1.8675,-1.8485,-1.8492,-1.8514,-1.7415,-1.6915,-1.7209,-1.7181,-1.7804,-1.8641,-1.9415,-2.0213,-2.0815,-2.1002,-2.0746,-2.0262,-1.8642,-1.7445,-1.5991,-1.4525,-1.3497,-1.2667,-1.2677,-1.2214,-1.175,-1.1227,-1.1391,-1.229,-1.3137,-1.4914,-1.6917,-1.9013,-2.2504,-2.6647,-2.8112,-3.2454,-3.8216,-4.2014,-4.7558,-5.3022,-5.62,-6.0597,-6.5246,-6.8216,-7.1947,-7.6133,-8.0516,-8.4383,-8.8052,-9.198,-9.4923,-9.7384,-9.9988,-10.1838,-10.3538,-10.5534,-10.7032,-10.8641,-11.0853,-11.2952,-11.5003,-11.6969,-11.8755,-12.0278,-12.1837,-12.2818,-12.3422,-12.369,-12.4246,-12.4567,-12.4599,-12.4823,-12.5513,-12.6682,-12.8783,-13.0113,-13.0308,-13.1218,-13.1602,-13.15,-13.15,-13.1409,-13.1226,-13.1226,-13.1318,-13.1513,-13.1614,-13.1779,-13.2211,-13.2373,-13.3219,-2.7763,-2.8031,-2.7628,-2.7433,-2.65,-2.5595,-2.5217,-2.5571,-2.5873,-2.5074,-2.4204,-2.3418,-2.2581,-2.1544,-2.0712,0.0,-1.9469,-1.885,-1.8641,-1.7811,-1.7209,-1.7053,-1.6419,-1.6029,-1.6105,-1.5617,-1.5127,-1.5072,-1.5908,-1.6998,-1.8143,-1.9273,-2.008,-2.1002,-2.1083,-2.0996,-2.0505,-2.0019,-1.9056,-1.8068,-1.7536,-1.6974,-1.6407,-1.5947,-1.5081,-1.4045,-1.342,-1.3577,-1.4036,-1.536,-1.6935,-1.9247,-2.2122,-2.5725,-2.9273,-2.9752,-3.3748,-3.9282,-4.2798,-4.7515,-5.2359,-5.5992,-5.9917,-6.408,-6.7141,-7.1074,-7.5045,-7.943,-8.3271,-8.7011,-9.1064,-9.371,-9.5976,-9.8909,-10.0644,-10.2355,-10.4295,-10.6153,-10.7664,-10.8882,-11.1552,-11.3975,-11.5145,-11.7327,-11.9157,-12.007,-12.144,-12.236,-12.29,-12.3265,-12.369,-12.4101,-12.4497,-12.5069,-12.6223,-12.767,-12.8719,-12.9375,-13.022,-13.0718,-13.062,-13.0559,-13.0734,-13.0696,-13.0811,-13.0794,-13.1084,-13.1216,-13.1265,-13.1614,-13.1818,-13.2407,-2.6431,-2.6552,-2.6282,-2.5666,-2.5461,-2.5059,-2.5059,-2.4853,-2.4441,-2.3606,-2.2374,-2.1345,-2.0504,-1.9678,-1.9059,-1.885,-1.802,-1.7601,-1.7601,-1.7188,-1.6768,-1.6131,-1.4862,-1.4047,-1.3705,-1.364,-1.338,-1.3169,-1.4645,-1.6182,-1.7819,-1.9144,-2.0158,-2.1116,-2.139,-2.1278,-2.1008,-2.1199,-2.0918,-2.0184,-2.0348,-2.0015,-1.9669,-1.924,-1.8229,-1.7037,-1.6596,-1.6513,-1.6773,-1.8372,-2.023,-2.2122,-2.5537,-2.8923,-3.1774,-3.265,-3.5911,-4.0515,-4.3826,-4.7898,-5.2112,-5.5837,-5.9528,-6.3116,-6.6407,-7.0282,-7.4339,-7.8469,-8.2417,-8.6159,-8.9991,-9.251,-9.4814,-9.761,-9.9388,-10.0954,-10.3016,-10.4724,-10.6153,-10.7403,-11.0033,-11.2513,-11.3762,-11.5984,-11.7932,-11.8624,-11.9769,-12.0976,-12.2088,-12.2567,-12.3063,-12.3689,-12.4139,-12.4616,-12.5324,-12.6517,-12.7632,-12.8298,-12.9429,-13.0037,-12.9932,-12.9932,-12.997,-13.0142,-13.018,-13.0311,-13.0541,-13.059,-13.0909,-13.1103,-13.1341,-13.1614,-2.2269,-2.2341,-2.2779,-2.2374,-2.2581,-2.2788,-2.2166,-2.2581,-2.2581,-2.1336,-2.0712,-2.0095,-1.8843,-1.8222,-1.7601,-1.7188,-1.6978,-1.6978,-1.6978,-1.6978,-1.6768,-1.6131,-1.4651,-1.2958,0.0,-1.1271,-1.1487,-1.1911,-1.3597,-1.5338,-1.7182,-1.9044,-2.0292,-2.1124,-2.1933,-2.2346,-2.2549,-2.2718,-2.2895,-2.2871,-2.258,-2.2209,-2.2225,-2.1929,-2.1634,-2.1803,-2.125,-2.1496,-2.1809,-2.3212,-2.4855,-2.6531,-2.922,-3.2064,-3.4783,-3.7212,-3.9647,-4.1609,-4.4206,-4.8014,-5.2245,-5.5493,-5.8878,-6.2522,-6.578,-6.9662,-7.376,-7.801,-8.1968,-8.5557,-8.8653,-9.1255,-9.3598,-9.5528,-9.7641,-9.9547,-10.1261,-10.2686,-10.4349,-10.6855,-10.8592,-11.0349,-11.2759,-11.4754,-11.6368,-11.7708,-11.8189,-11.9121,-12.0882,-12.2225,-12.2981,-12.3298,-12.3689,-12.3879,-12.3992,-12.5794,-12.6956,-12.714,-12.8721,-12.9592,-12.9376,-12.9376,-12.9378,-12.923,-12.9378,-12.9596,-12.9733,-12.9872,-13.0311,-13.0789,-13.0968,-13.1194,-2.1559,-2.0995,-2.0296,-1.9462,-1.9245,-1.9454,-1.9253,-1.9245,-1.9253,-1.8626,-1.7625,-1.6911,-1.6124,-1.6131,-1.6131,-1.594,-1.6524,-1.6978,-1.6978,-1.6978,-1.6768,-1.6131,-1.4862,0.0,0.0,0.0,0.0,-1.1267,-1.3169,-1.5375,-1.7753,-1.9325,-2.0347,-2.1295,-2.2134,-2.2694,-2.3196,-2.3967,-2.4379,-2.4904,-2.4876,-2.4755,-2.4755,-2.4472,-2.4432,-2.4633,-2.457,-2.4863,-2.5234,-2.6629,-2.8303,-3.0003,-3.2226,-3.4794,-3.7469,-3.9674,-4.2119,-4.4757,-4.5918,-4.8969,-5.2724,-5.5475,-5.9053,-6.2734,-6.5795,-6.9753,-7.4098,-7.7738,-8.1079,-8.4443,-8.7525,-8.995,-9.2154,-9.4469,-9.6511,-9.8294,-10.0052,-10.1631,-10.3359,-10.5365,-10.7521,-10.9474,-11.1534,-11.3242,-11.4783,-11.625,-11.7971,-11.9537,-12.0365,-12.1219,-12.1889,-12.2483,-12.3019,-12.334,-12.3534,-12.5307,-12.6401,-12.6401,-12.8021,-12.8888,-12.8885,-12.8885,-12.8885,-12.8963,-12.9078,-12.9305,-12.9562,-12.9701,-13.0008,-13.0516,-13.0743,-13.0909,-1.9532,-1.8732,-1.8006,-1.7168,-1.6958,-1.6958,-1.6958,-1.6958,-1.6748,-1.6545,-1.5538,-1.4832,-1.4641,-1.5023,-1.5221,-1.5411,-1.6293,-1.6978,-1.6978,-1.6978,-1.6768,-1.6558,-1.5283,-1.3802,0.0,0.0,0.0,-1.1262,-1.3169,-1.5611,-1.8259,-1.9355,-2.0587,-2.1595,-2.2668,-2.3692,-2.4624,-2.5843,-2.6955,-2.7948,-2.81,-2.7944,-2.7727,-2.7557,-2.7764,-2.7892,-2.8257,-2.8871,-2.9452,-3.0656,-3.1863,-3.3327,-3.5474,-3.7738,-3.9916,-4.1878,-4.4743,-4.7354,-4.7574,-5.0172,-5.3415,-5.5929,-5.9355,-6.3141,-6.5811,-7.0001,-7.4171,-7.7202,-8.0651,-8.3881,-8.6381,-8.8839,-9.1074,-9.3247,-9.5157,-9.7012,-9.8681,-10.024,-10.1736,-10.4288,-10.6145,-10.8075,-11.0177,-11.2161,-11.3665,-11.5033,-11.6766,-11.8517,-11.9603,-12.0438,-12.0976,-12.1621,-12.2225,-12.2614,-12.2937,-12.4678,-12.5931,-12.6049,-12.755,-12.8606,-12.8606,-12.8606,-12.8724,-12.8845,-12.8923,-12.9078,-12.9416,-12.9562,-12.9771,-13.0218,-13.0387,-13.0604,-1.6314,-1.581,-1.592,-1.5283,-1.5283,-1.5283,-1.5283,-1.5283,-1.5283,-1.5283,-1.4495,-1.3994,-1.4374,-1.4525,-1.4878,-1.5248,-1.6178,-1.6897,-1.6897,-1.6944,-1.6978,0.0,0.0,0.0,0.0,0.0,0.0,-1.2118,-1.3602,-1.5617,-1.8259,-1.9363,-2.0595,-2.2253,-2.3779,-2.5076,-2.661,-2.8607,-3.0185,-3.1556,-3.1556,-3.1342,-3.0924,-3.1382,-3.1617,-3.1673,-3.2399,-3.3326,-3.4047,-3.5051,-3.6042,-3.7017,-3.8996,-4.0441,-4.1878,-4.4504,-4.6866,-4.9018,-4.922,-5.1302,-5.4333,-5.6647,-5.9862,-6.3203,-6.6116,-7.0046,-7.4195,-7.6808,-8.0243,-8.3683,-8.5277,-8.793,-9.0374,-9.1795,-9.3773,-9.5528,-9.7374,-9.855,-10.0051,-10.3031,-10.4471,-10.6242,-10.9084,-11.137,-11.3006,-11.3665,-11.4692,-11.6201,-11.8336,-11.9464,-12.0304,-12.0595,-12.1293,-12.18,-12.2101,-12.4057,-12.5411,-12.5732,-12.7356,-12.8531,-12.8493,-12.8493,-12.8493,-12.8493,-12.8732,-12.8888,-12.9117,-12.9416,-12.9744,-13.0016,-13.0218,-13.0387,-1.5615,-1.5106,-1.4657,-1.4235,-1.4024,-1.4024,-1.4024,-1.4024,-1.4024,-1.4024,-1.3018,-1.2302,-1.2302,-1.2427,-1.2592,-1.2754,-1.4437,0.0,-1.5811,-1.649,0.0,-1.6978,0.0,-1.5493,-1.4862,-1.4229,0.0,0.0,-1.5004,-1.6137,-1.8266,-1.9476,-2.0505,-2.1595,-2.3905,-2.6087,-2.7932,-3.079,-3.262,-3.2904,-3.2904,-3.3023,-3.2975,-3.3295,-3.3555,-3.3779,-3.4843,-3.5489,-3.5982,-3.748,-3.8955,-4.0172,-4.1167,-4.3081,-4.5219,-4.6186,-4.8313,-5.0655,-5.2031,-5.3893,-5.6003,-5.8345,-6.1215,-6.4346,-6.7691,-7.124,-7.4456,-7.6906,-7.986,-8.2543,-8.4746,-8.6819,-8.8868,-9.0345,-9.2539,-9.4499,-9.5698,-9.7042,-9.9087,-10.1859,-10.4906,-10.7475,-10.8921,-11.0126,-11.1264,-11.23,-11.3306,-11.4818,-11.714,-11.8007,-11.8804,-11.9361,-11.997,-12.0728,-12.1256,-12.28,-12.3886,-12.4626,-12.5807,-12.6606,-12.6729,-12.6729,-12.6729,-12.6729,-12.7409,-12.7788,-12.7984,-12.8928,-12.9414,-12.9771,-13.0016,-13.0322,-1.4934,-1.4446,-1.403,-1.3602,-1.3602,-1.351,-1.314,-1.3053,-1.295,-1.258,-1.1638,-1.0874,-1.1038,-1.1264,-1.1503,-1.2409,0.0,0.0,-1.6035,-1.6612,-1.6978,0.0,-1.6558,0.0,-1.571,-1.5072,-1.5127,-1.5911,-1.5698,-1.6427,-1.8366,-1.9334,-2.0544,-2.2034,-2.4606,-2.757,-3.0911,-3.3442,-3.4718,-3.4941,-3.4941,-3.4843,-3.4894,-3.5193,-3.553,-3.5942,-3.6963,-3.7831,-3.8592,-4.0094,-4.1499,-4.2841,-4.3786,-4.5472,-4.759,-4.8532,-5.0405,-5.2742,-5.4369,-5.6495,-5.8514,-6.0118,-6.2415,-6.5273,-6.8394,-7.1444,-7.4431,-7.6534,-7.9269,-8.174,-8.3565,-8.5692,-8.758,-8.8868,-9.1074,-9.3247,-9.4325,-9.5868,-9.794,-10.079,-10.4122,-10.6701,-10.7443,-10.8539,-10.9544,-11.0733,-11.182,-11.3105,-11.4873,-11.6404,-11.7483,-11.8153,-11.8767,-11.9361,-12.0007,-12.1522,-12.2585,-12.3289,-12.4579,-12.5403,-12.5726,-12.5888,-12.5969,-12.5969,-12.6762,-12.7371,-12.7605,-12.8625,-12.9305,-12.9559,-12.9809,-13.0046,-1.4452,-1.403,-1.3602,-1.3602,-1.3602,-1.3385,-1.2547,-1.2357,-1.2118,-1.1275,-1.0427,-0.984,-1.0304,-1.0456,-1.1137,-1.2643,0.0,-1.5142,-1.6435,-1.6686,-1.6822,-1.6965,-1.6558,-1.6131,-1.6131,-1.5723,-1.5792,-1.6576,-1.5967,-1.6505,-1.8283,-1.9184,-2.0802,-2.3645,-2.5961,-2.9487,-3.4271,-3.5622,-3.6511,-3.6941,-3.6981,-3.6932,-3.6748,-3.7076,-3.7305,-3.8099,-3.8637,-3.9773,-4.0985,-4.2262,-4.335,-4.4757,-4.6186,-4.781,-4.9688,-5.0672,-5.2742,-5.4863,-5.6249,-5.8552,-6.0951,-6.1623,-6.3781,-6.6303,-6.879,-7.1272,-7.3785,-7.6135,-7.8649,-8.1134,-8.2369,-8.4354,-8.6464,-8.7552,-8.961,-9.1854,-9.31,-9.4821,-9.7015,-9.9862,-10.2468,-10.4563,-10.5594,-10.6668,-10.7967,-10.9169,-11.027,-11.137,-11.2503,-11.4657,-11.6391,-11.6781,-11.7518,-11.8189,-11.8625,-12.0118,-12.1255,-12.2007,-12.3397,-12.4343,-12.4605,-12.5141,-12.5269,-12.5389,-12.6419,-12.6991,-12.7415,-12.8321,-12.8965,-12.9416,-12.9596,-12.9809,-1.3813,-1.3602,-1.3602,-1.3602,-1.3602,-1.3385,-1.2547,-1.2357,-1.2118,-1.1275,-1.0427,-0.984,-0.984,-1.0151,-1.0416,-1.0389,-1.2077,-1.3657,-1.4182,-1.5133,-1.6008,0.0,-1.6978,-1.6768,-1.6768,-1.6875,0.0,0.0,-1.7284,-1.7378,-1.765,-1.9294,-2.2574,-2.7146,-2.9646,-3.2159,-3.4916,-3.6289,-3.6706,-3.6941,-3.7195,-3.7448,-3.7529,-3.7821,-3.8286,-3.8871,-3.9203,-3.9985,-4.1238,-4.3207,-4.4996,-4.6881,-4.8564,-5.0438,-5.2066,-5.2297,-5.3663,-5.5566,-5.7249,-5.9715,-6.2106,-6.321,-6.4924,-6.7037,-6.965,-7.1786,-7.3785,-7.6135,-7.8466,-8.0753,-8.2169,-8.396,-8.5526,-8.6464,-8.8334,-9.0219,-9.116,-9.4311,-9.7426,-9.9209,-10.1335,-10.3214,-10.4595,-10.5562,-10.6733,-10.7934,-10.9135,-11.0159,-11.0982,-11.3272,-11.5138,-11.5754,-11.6046,-11.6756,-11.7932,-11.848,-11.9335,-12.0621,-12.1118,-12.1699,-12.2296,-12.2459,-12.2721,-12.3099,-12.417,-12.5202,-12.6119,-12.7299,-12.817,-12.904,-12.938,-12.9596,-1.3602,-1.3602,-1.3602,-1.3602,-1.3602,-1.327,-1.1993,-1.1705,-1.134,-1.0057,-0.947,-0.9188,-0.9188,-0.9991,-1.0468,-1.0462,-1.2039,-1.3513,-1.4403,-1.5092,-1.5798,-1.6856,-1.6978,-1.7012,-1.708,-1.7154,-1.729,-1.7521,-1.782,-1.8121,-1.8191,-2.0985,-2.4495,-2.8597,-3.1148,-3.3396,-3.5164,-3.6276,-3.6941,-3.6941,-3.7235,-3.7529,-3.7809,-3.8116,-3.8664,-3.9386,-4.0006,-4.0807,-4.2418,-4.4474,-4.6644,-4.8799,-5.0455,-5.2083,-5.3663,-5.3663,-5.4972,-5.7021,-5.8329,-6.0876,-6.3701,-6.5029,-6.6261,-6.7806,-6.9627,-7.1635,-7.3354,-7.531,-7.7841,-8.0141,-8.1388,-8.2995,-8.4381,-8.5526,-8.7608,-8.9851,-9.0768,-9.3414,-9.6149,-9.7321,-9.9252,-10.1241,-10.2575,-10.3577,-10.4725,-10.6165,-10.7256,-10.8323,-10.9724,-11.1196,-11.2705,-11.4054,-11.4852,-11.5439,-11.6285,-11.7104,-11.8043,-11.9016,-11.9639,-12.0106,-12.0595,-12.094,-12.144,-12.1748,-12.3092,-12.4413,-12.5606,-12.6719,-12.7784,-12.8885,-12.9116,-12.9304,-1.3553,-1.3602,-1.3602,-1.3602,-1.3602,-1.3167,-1.1487,-1.1101,-1.0623,-0.8932,-0.859,-0.859,-0.8717,-0.9706,-1.0696,-1.094,-1.2033,-1.3356,-1.493,-1.5072,-1.5547,-1.6829,-1.7005,0.0,-1.7182,-1.7249,0.0,-1.7847,-1.8762,-1.9513,-1.967,-2.3101,-2.6182,-2.9336,-3.1752,-3.374,-3.5164,-3.6263,-3.6733,-3.7048,-3.7342,-3.7635,-3.7929,-3.829,-3.8878,-3.9837,-4.0602,-4.1856,-4.3815,-4.5725,-4.8093,-5.0438,-5.1834,-5.3238,-5.4845,-5.4935,-5.6336,-5.8216,-5.9526,-6.2081,-6.4934,-6.6388,-6.7359,-6.8578,-6.9671,-7.0999,-7.2726,-7.4454,-7.6769,-7.9294,-8.0575,-8.1993,-8.3591,-8.4773,-8.7038,-8.9082,-8.9978,-9.2026,-9.3993,-9.5167,-9.7223,-9.9163,-10.0547,-10.1787,-10.2712,-10.44,-10.5562,-10.6603,-10.8021,-10.9102,-11.0303,-11.1924,-11.3306,-11.4183,-11.4692,-11.5805,-11.6792,-11.7554,-11.8336,-11.891,-11.919,-12.0043,-12.0499,-12.0861,-12.2159,-12.36,-12.4936,-12.6084,-12.7319,-12.8465,-12.881,-12.9078,-1.3395,-1.3602,-1.3602,-1.3602,-1.3602,-1.3167,-1.1487,-1.1101,-1.0623,-0.8932,-0.859,-0.8717,-0.8984,-0.985,-1.0345,-1.034,-1.1015,-1.2159,-1.3666,-1.3987,-1.4733,-1.6741,0.0,0.0,-1.7188,-1.7446,-1.7834,-1.8297,-2.0615,-2.232,-2.2923,-2.5395,-2.7798,-3.0265,-3.2067,-3.3777,-3.5164,-3.5831,-3.6616,-3.7342,-3.7635,-3.7929,-3.8223,-3.8798,-3.9514,-4.0561,-4.1521,-4.3021,-4.5219,-4.7133,-4.9487,-5.1782,-5.299,-5.4405,-5.5356,-5.597,-5.6787,-5.833,-6.0205,-6.2562,-6.4975,-6.6544,-6.7883,-6.9069,-6.9716,-7.0778,-7.2118,-7.3809,-7.5923,-7.805,-7.9936,-8.1362,-8.2969,-8.4577,-8.5913,-8.7038,-8.793,-8.9992,-9.1975,-9.3444,-9.5606,-9.7581,-9.9045,-10.0547,-10.1756,-10.2774,-10.3876,-10.5081,-10.6071,-10.7354,-10.8422,-10.9283,-11.1264,-11.3041,-11.3891,-11.4692,-11.5596,-11.6628,-11.7247,-11.7928,-11.8408,-11.8946,-11.9609,-12.0116,-12.0897,-12.2031,-12.326,-12.4814,-12.6092,-12.72,-12.839,-12.8885,-1.3379,-1.3602,-1.3602,-1.3602,-1.3602,-1.3167,-1.1487,-1.1274,-1.0952,-0.9209,-0.9123,-0.9256,-0.9389,-1.0492,-1.1151,-1.0367,-1.124,-1.243,-1.3709,-1.3838,-1.4624,-1.6727,-1.7107,0.0,0.0,0.0,-1.898,-2.0615,-2.318,-2.5128,-2.6231,-2.7125,-2.8839,-3.1424,-3.2678,-3.3937,-3.5164,-3.5831,-3.6643,-3.7382,-3.7676,-3.7969,-3.829,-3.9357,-4.026,-4.1256,-4.2971,-4.4935,-4.7133,-4.9034,-5.1255,-5.3305,-5.4284,-5.5352,-5.63,-5.6465,-5.7576,-5.8995,-6.0496,-6.2803,-6.537,-6.6671,-6.813,-6.9069,-6.927,-7.0115,-7.1438,-7.2726,-7.4859,-7.7003,-7.8674,-8.0956,-8.2769,-8.3789,-8.4746,-8.572,-8.6079,-8.7889,-8.9833,-9.0993,-9.334,-9.5492,-9.7211,-9.8598,-10.0021,-10.1241,-10.2236,-10.3412,-10.4887,-10.5722,-10.6701,-10.7815,-10.9836,-11.1543,-11.2639,-11.3272,-11.4218,-11.5192,-11.584,-11.6628,-11.7175,-11.7744,-11.8553,-11.9335,-11.9879,-12.1035,-12.2677,-12.4091,-12.5399,-12.6803,-12.7956,-12.8611,-1.3721,-1.4024,-1.4024,-1.4024,-1.3834,-1.3256,-1.1776,-1.1413,-1.0959,-0.9572,-0.9552,-0.985,-0.9984,-1.0941,-1.1524,-1.0792,-1.1894,-1.3026,-1.3459,-1.3851,-1.4634,-1.5947,0.0,-1.6904,0.0,-1.8725,-2.0591,-2.269,-2.5281,-2.7244,-2.8607,-2.9103,-3.0165,-3.2185,-3.3056,-3.3812,-3.4941,-3.5686,-3.6301,-3.7304,-3.7809,-3.8318,-3.8641,-3.9932,-4.1254,-4.2434,-4.4475,-4.69,-4.9034,-5.0538,-5.2375,-5.4284,-5.4658,-5.5321,-5.6274,-5.6437,-5.7304,-5.8733,-6.0245,-6.2563,-6.5142,-6.6302,-6.7433,-6.8578,-6.8578,-6.9449,-7.0778,-7.1658,-7.3785,-7.6347,-7.7841,-8.0115,-8.1968,-8.2796,-8.3591,-8.4354,-8.4577,-8.5986,-8.7947,-8.9107,-9.1261,-9.3408,-9.5173,-9.6778,-9.8087,-9.9461,-10.0547,-10.1787,-10.3412,-10.4072,-10.4951,-10.6229,-10.7902,-10.9577,-11.105,-11.1854,-11.2739,-11.383,-11.46,-11.5315,-11.5961,-11.6863,-11.7703,-11.8371,-11.9088,-12.0207,-12.1549,-12.2953,-12.4388,-12.5682,-12.6794,-12.7769,-1.4776,-1.5283,-1.5283,-1.5283,-1.4385,-1.3463,-1.2686,-1.1751,-1.0661,-0.9857,-0.9765,-1.0122,-1.0799,-1.1063,-1.1399,-1.1902,-1.2984,-1.3692,-1.2934,-1.3974,-1.4764,0.0,0.0,-1.6289,-1.6885,-2.0125,-2.2699,-2.4001,-2.6385,-2.8572,-2.9944,-3.1275,-3.222,-3.2479,-3.3152,-3.36,-3.4271,-3.5206,-3.5937,-3.6901,-3.7875,-3.8641,-3.9631,-4.095,-4.2405,-4.4293,-4.6336,-4.8548,-5.0938,-5.1325,-5.265,-5.4355,-5.404,-5.4398,-5.4922,-5.5312,-5.6147,-5.7599,-5.9203,-6.1466,-6.3806,-6.4934,-6.6302,-6.7207,-6.7207,-6.8535,-7.0115,-7.058,-7.3354,-7.6135,-7.7374,-7.8856,-8.0575,-8.1616,-8.2195,-8.2796,-8.3393,-8.4637,-8.6412,-8.7965,-8.9716,-9.1466,-9.3656,-9.4941,-9.6066,-9.7541,-9.8628,-9.9698,-10.1129,-10.2097,-10.3078,-10.4432,-10.5402,-10.6947,-10.9464,-11.0303,-11.1264,-11.2368,-11.3438,-11.4148,-11.4978,-11.6166,-11.706,-11.7476,-11.8661,-11.9262,-11.9573,-12.1512,-12.2769,-12.3488,-12.4824,-12.6182,-1.309,-1.3385,-1.3337,-1.3427,-1.3228,-1.2764,-1.1995,-1.1708,-1.1371,-1.0822,-1.092,-1.1365,-1.2186,-1.2597,-1.3302,-1.4562,-1.5101,-1.554,-1.6064,-1.6042,0.0,-1.5432,-1.683,-1.8419,0.0,0.0,-2.4711,-2.6614,-2.8813,-3.0373,-3.1286,-3.2431,-3.3056,-3.3152,-3.3364,-3.36,-3.4271,-3.4782,-3.551,-3.6244,-3.6742,-3.7719,-3.9168,-4.1156,-4.3533,-4.5688,-4.8249,-5.057,-5.2496,-5.2891,-5.3892,-5.5117,-5.4987,-5.5199,-5.5685,-5.5827,-5.634,-5.7292,-5.8588,-6.0511,-6.2397,-6.3785,-6.5183,-6.6529,-6.6529,-6.7229,-6.8311,-6.9694,-7.1635,-7.333,-7.5475,-7.6979,-7.8258,-7.9319,-8.0345,-8.1159,-8.1564,-8.304,-8.4649,-8.601,-8.817,-9.0128,-9.1496,-9.3358,-9.4912,-9.6066,-9.7359,-9.8628,-9.9698,-10.0751,-10.1585,-10.2543,-10.3245,-10.4855,-10.8086,-10.9135,-10.9836,-11.0841,-11.1958,-11.2873,-11.396,-11.4943,-11.6116,-11.7096,-11.7892,-11.8625,-11.9298,-12.0983,-12.2842,-12.4605,-12.5253,-12.6301,-1.2853,-1.3167,-1.3129,-1.3211,-1.3127,-1.2688,-1.2396,-1.2266,-1.2241,-1.2131,-1.2798,-1.3586,-1.3547,-1.4711,-1.5762,-1.6223,-1.7217,-1.7702,-1.7004,-1.7229,0.0,-1.7283,0.0,0.0,0.0,-2.4929,-2.6564,-2.8028,-3.0108,-3.1496,-3.2091,-3.302,-3.3376,-3.3376,-3.3376,-3.3588,-3.4035,-3.4656,-3.5143,-3.5788,-3.6179,-3.7425,-3.9357,-4.1666,-4.4352,-4.7008,-4.9667,-5.1779,0.0,-5.3743,-5.4293,-5.4996,-5.4898,-5.5126,-5.5318,-5.5077,-5.5301,-5.6004,-5.6979,-5.8625,-6.0219,-6.1699,-6.3575,-6.5391,-6.564,-6.6323,-6.7412,-6.8556,-6.9893,-7.1393,-7.3114,-7.4407,-7.5923,-7.7189,-7.8258,-7.9087,-8.0141,-8.1622,-8.3005,-8.4623,-8.6395,-8.8168,-8.9741,-9.1439,-9.2807,-9.3933,-9.5476,-9.6962,-9.7876,-9.9166,-10.0258,-10.1037,-10.1756,-10.3047,-10.5657,-10.7135,-10.8389,-10.9757,-11.0657,-11.1577,-11.2773,-11.3761,-11.5068,-11.6285,-11.7326,-11.8115,-11.8912,-12.049,-12.2175,-12.3873,-12.4805,-12.5813,0.0,-1.4102,-1.4095,-1.4109,-1.3707,-1.3432,-1.3745,-1.3367,0.0,-1.353,-1.5266,-1.6362,-1.5141,-1.7067,-1.83,-1.6964,-1.9174,-1.9825,-1.6564,-1.8239,0.0,0.0,-1.9934,0.0,-2.4804,-2.702,-2.8268,-2.8934,-3.0939,-3.2103,-3.2138,-3.302,-3.3376,-3.3376,-3.3376,-3.3376,-3.34,-3.4602,-3.5127,-3.5127,-3.6124,-3.7918,-4.0082,-4.2248,-4.5046,-4.8377,-5.0636,-5.2437,-5.3778,-5.37,-5.382,-5.4333,-5.4009,-5.3903,-5.3886,-5.3367,-5.335,-5.4077,-5.456,-5.5729,-5.6925,-5.9098,-6.1446,-6.3555,-6.4056,-6.5619,-6.7003,-6.7229,-6.8311,-6.9694,-7.0292,-7.1808,-7.357,-7.5025,-7.5899,-7.6979,-7.8649,-7.9953,-8.1337,-8.355,-8.4559,-8.5779,-8.8003,-8.9301,-9.0277,-9.1411,-9.3193,-9.4941,-9.6008,-9.7329,-9.8658,-9.9729,-10.0608,-10.1444,-10.2437,-10.4563,-10.6701,-10.8722,-10.9317,-11.0159,-11.1784,-11.2807,-11.3925,-11.5386,-11.6675,-11.778,-11.8516,-11.9979,-12.1107,-12.1837,-12.3387,-12.4827,-1.2128,0.0,-1.2251,-1.2526,-1.2806,-1.3044,0.0,-1.3985,-1.4331,-1.4894,-1.6464,-1.7501,-1.6777,-1.8532,-1.9906,-2.007,-2.1674,-2.2277,-2.0177,-2.0116,0.0,-2.3224,-2.3911,-2.5074,-2.7267,-2.8988,-3.0092,-3.0941,-3.2147,-3.284,-3.3056,-3.3328,-3.3376,-3.3376,-3.3376,-3.3473,-3.369,-3.4232,-3.4499,-3.473,-3.528,-3.6735,-3.9601,-4.1751,-4.5031,-4.9067,-5.1155,-5.2575,-5.3682,-5.3338,-5.3007,-5.2781,-5.2638,-5.2671,-5.2671,-5.2444,-5.2411,-5.2654,-5.3384,-5.4094,-5.5283,-5.8151,-6.0041,-6.1699,-6.2649,-6.4246,-6.5889,-6.6281,-6.6776,-6.7454,-6.8513,-6.9427,-7.0314,-7.1151,-7.2463,-7.3954,-7.5025,-7.6946,-7.9014,-8.1245,-8.3292,-8.49,-8.6331,-8.7879,-8.9301,-9.0277,-9.1636,-9.2972,-9.4941,-9.6037,-9.7146,-9.8117,-9.9196,-10.0021,-10.0864,-10.3743,-10.5689,-10.6544,-10.8205,-10.9431,-11.0048,-11.1648,-11.3208,-11.4346,-11.6557,-11.8225,-11.8982,-11.9979,-12.0787,-12.1568,-12.2498,-12.3722,-1.1619,-1.1558,-1.166,-1.2029,-1.276,-1.3468,-1.4181,-1.5168,-1.6018,-1.6593,-1.823,-1.9294,-1.8296,-1.993,-2.1246,-2.0773,-2.2089,-2.2999,-2.2876,0.0,-2.2179,-2.4409,-2.5195,-2.6122,0.0,-2.9153,-3.0407,-3.1809,-3.2792,-3.3207,-3.3376,-3.3376,-3.3376,-3.3376,-3.3376,-3.3497,-3.3787,-3.4052,-3.4318,-3.4571,-3.4837,-3.6341,-3.911,-4.1103,-4.4269,-4.8348,-5.0674,-5.2078,-5.2855,-5.304,-5.2654,-5.2183,-5.2183,-5.2183,-5.2183,-5.1923,-5.1695,-5.1695,-5.2167,-5.2881,-5.4077,-5.6226,-5.7914,-5.9353,-6.0745,-6.2145,-6.3515,-6.4954,-6.564,-6.6075,-6.6982,-6.768,-6.8311,-6.8982,-7.0071,-7.137,-7.268,-7.4188,-7.612,-7.9271,-8.0941,-8.2685,-8.4792,-8.6409,-8.7674,-8.8491,-8.9877,-9.1439,-9.2778,-9.4504,-9.5851,-9.6992,-9.7935,-9.8838,-9.9875,-10.2097,-10.4041,-10.5562,-10.7135,-10.8539,-10.9317,-11.0841,-11.2639,-11.4496,-11.6557,-11.8004,-11.8982,-11.9712,-12.0475,-12.1256,-12.2051,-12.322,-1.1619,-1.1619,-1.1763,-1.2194,-1.3047,-1.4181,-1.5035,-1.6301,-1.7429,-1.8002,-1.9897,-2.1013,-1.9446,-2.0991,-2.2152,-2.0779,-2.2048,-2.3785,-2.5523,-2.4441,-2.3978,-2.5604,-2.5995,0.0,-2.8272,-2.9256,-3.0388,-3.2206,-3.2984,-3.3376,-3.3376,-3.3376,-3.3376,-3.3376,-3.3376,-3.3533,-3.3859,-3.4088,-3.4342,-3.4644,-3.4897,-3.6217,-3.8596,-4.0534,-4.3555,-4.7208,-4.9623,-5.1249,-5.2167,-5.2671,-5.2394,-5.1923,-5.1923,-5.1923,-5.1955,-5.1189,-5.0943,-5.0943,-5.0943,-5.1906,-5.3107,-5.4077,-5.5524,-5.6722,-5.8625,-5.9551,-6.0726,-6.3093,-6.4246,-6.5204,-6.5868,-6.655,-6.6982,-6.768,-6.813,-6.9003,-7.0513,-7.159,-7.3174,-7.6742,-7.83,-7.9978,-8.3134,-8.4869,-8.5994,-8.6669,-8.8287,-8.9877,-9.062,-9.2778,-9.4723,-9.5822,-9.6992,-9.7935,-9.8868,-10.0258,-10.2066,-10.4531,-10.6039,-10.7629,-10.8987,-11.0337,-11.2334,-11.5122,-11.632,-11.7369,-11.8589,-11.9298,-12.008,-12.1013,-12.18,-12.2903,-1.1619,-1.1619,-1.1763,-1.2474,-1.3325,-1.4332,-1.5753,-1.6744,-1.759,-1.8563,-2.0208,-2.119,-2.0167,-2.144,-2.2717,-2.2913,-2.4411,-2.6821,0.0,0.0,-2.8656,-3.0526,0.0,-3.1006,-3.1509,-3.1833,-3.2217,-3.2708,-3.3231,-3.3376,-3.3376,-3.3376,-3.3376,-3.3376,-3.3376,-3.3606,-3.4113,-3.4149,-3.4414,-3.4897,-3.5187,-3.6178,-3.7908,-4.0052,-4.3053,-4.6449,-4.866,-5.0282,-5.1417,-5.1434,-5.1205,-5.0484,-5.0484,-5.0484,-5.0468,-5.0452,-5.0452,-5.0452,-5.0452,-5.096,-5.1662,-5.2378,-5.361,-5.456,-5.5489,-5.6483,-5.7895,-5.9297,-6.168,-6.4056,-6.4516,-6.5183,-6.564,-6.5847,-6.6302,-6.7003,-6.7637,-6.9226,-7.0913,-7.3,-7.5874,-7.8544,-8.0447,-8.2896,-8.4947,-8.5994,-8.685,-8.8083,-8.9877,-9.0846,-9.239,-9.4751,-9.5851,-9.6778,-9.7965,-9.9374,-10.0751,-10.2236,-10.4725,-10.7135,-10.9464,-11.0875,-11.2435,-11.4148,-11.5683,-11.6944,-11.7703,-11.8982,-11.9879,-12.0535,-12.1584,-12.2594,-1.1907,-1.1907,-1.2194,-1.319,-1.3619,-1.4181,-1.5319,-1.6593,-1.7872,-1.8573,-1.977,-2.0669,-2.0122,-2.1739,-2.346,-2.4782,0.0,-2.7172,-2.9912,-2.9562,-2.9332,0.0,0.0,-3.0769,-3.089,-3.1276,-3.1988,-3.3111,-3.3304,-3.3376,-3.3376,-3.3376,-3.3376,-3.3376,-3.3533,-3.3787,-3.4185,-3.4318,-3.4571,-3.497,-3.5259,-3.5977,-3.7204,-3.9319,-4.1857,-4.4986,-4.7407,-4.8998,-5.0222,-5.0927,-5.0698,-5.0222,-5.0222,-5.0222,-5.0222,-5.0222,-5.0222,-5.0222,-5.0222,-5.0452,-5.0698,-5.1434,-5.215,-5.2654,-5.361,-5.4319,-5.5283,-5.6722,-5.957,-6.2397,-6.3344,-6.4246,-6.4954,-6.4954,-6.5412,-6.6075,-6.6529,-6.7433,-6.8687,-7.0938,-7.2963,-7.5313,-7.8572,-8.0423,-8.2229,-8.4037,-8.4874,-8.6032,-8.7345,-8.8959,-9.0657,-9.2944,-9.4504,-9.6066,-9.7205,-9.8478,-10.0341,-10.3245,-10.5402,-10.7476,-10.9169,-11.0624,-11.1924,-11.3237,-11.4978,-11.6236,-11.7211,-11.8517,-11.947,-12.0179,-12.1348,-12.2312,-1.2051,-1.2194,-1.2481,-1.3476,-1.3904,-1.4181,-1.5035,-1.6452,-1.7731,-1.8293,-1.9133,-1.9831,-2.011,-2.2246,0.0,-2.5989,-2.6954,-2.8029,-2.9465,-2.967,-2.9695,-2.9755,-3.0117,-3.0407,-3.0527,-3.0914,-3.1783,-3.3268,-3.3376,-3.3376,-3.3376,-3.3376,-3.3376,-3.3376,-3.363,-3.3919,-3.4185,-3.4438,-3.4704,-3.497,-3.532,-3.5812,-3.6486,-3.8573,-4.0842,-4.3298,-4.6334,-4.8172,-4.9236,-5.0436,-5.0714,-5.0222,-5.0222,-5.0222,-5.0222,-5.0222,-5.0222,-5.0222,-5.0222,-5.0222,-5.0238,-5.0698,-5.0927,-5.1172,-5.2167,-5.2411,-5.3107,-5.456,-5.7181,-5.957,-6.1427,-6.2881,-6.3806,-6.4056,-6.4746,-6.5204,-6.5847,-6.6075,-6.6861,-6.9259,-7.0535,-7.2565,-7.6246,-7.7896,-7.9591,-8.1553,-8.293,-8.4041,-8.4922,-8.6757,-8.8723,-9.0546,-9.2548,-9.4725,-9.6756,-9.7878,-10.0158,-10.3711,-10.5722,-10.7354,-10.8539,-10.9869,-11.1298,-11.2604,-11.4054,-11.5474,-11.6675,-11.7932,-11.9088,-11.9879,-12.1237,-12.1977,-1.2051,-1.2194,-1.2338,-1.3182,-1.3611,-1.4324,-1.5753,-1.6178,-1.6744,-1.8153,-1.8714,-1.9273,-1.997,-2.3282,-2.6061,-2.6194,-2.9139,-3.1457,-3.159,0.0,-3.1698,-3.194,-3.2,-3.2217,-3.2688,-3.2785,-3.2978,-3.334,-3.3376,-3.3376,-3.3376,-3.3376,-3.3376,-3.3376,-3.363,-3.3919,-3.4185,-3.4438,-3.4704,-3.497,-3.5489,-3.5742,-3.6031,-3.8752,-4.0783,-4.2573,-4.5597,-4.7649,-4.922,-4.9976,-5.0222,-5.0222,-5.0222,-5.0222,-5.0222,-5.0222,-5.0222,-5.0222,-5.0222,-5.0222,-5.0222,-5.0222,-5.0222,-5.0238,-5.0452,-5.0943,-5.1434,-5.215,-5.361,-5.5524,-5.9098,-6.096,-6.2125,-6.2609,-6.3785,-6.4496,-6.4516,-6.5412,-6.6323,-6.6571,-6.8743,-7.1071,-7.1785,-7.522,-7.8158,-7.9279,-8.1001,-8.2673,-8.4142,-8.4551,-8.5566,-8.8184,-8.9936,-9.2447,-9.6441,-9.8114,-9.9731,-10.2066,-10.4268,-10.5913,-10.7232,-10.9135,-11.0766,-11.1854,-11.3665,-11.4943,-11.6116,-11.7596,-11.866,-11.9639,-12.0882,-12.1837,-1.2453,-1.2772,-1.3084,-1.435,-1.4446,-1.4537,-1.6447,-1.7223,-1.8096,-2.0171,-2.0537,-2.072,-2.194,-2.4327,-2.6604,-2.7763,-3.0129,-3.1807,-3.1807,-3.1807,-3.1904,-3.2169,-3.2338,-3.2592,-3.2954,-3.3147,-3.3268,-3.3376,-3.3376,-3.3376,-3.3376,-3.3376,-3.3376,-3.3376,-3.3799,-3.4088,-3.4185,-3.4607,-3.4873,-3.497,-3.5513,-3.5778,-3.5815,-3.8492,-4.05,-4.1845,-4.5073,-4.7118,-4.8711,-4.973,-5.0222,-5.0222,-5.0222,-5.0222,-5.0222,-5.0222,-5.0222,-5.0222,-5.0222,-5.0222,-5.0222,-5.0222,-5.0222,-5.0222,-5.0222,-5.0452,-5.0682,-5.1417,-5.189,-5.3124,-5.6465,-5.8351,-5.9514,-6.0726,-6.1932,-6.3093,-6.3806,-6.4496,-6.5412,-6.6095,-6.713,-6.8678,-7.0557,-7.2225,-7.4222,-7.6766,-7.8444,-7.9839,-8.1439,-8.2957,-8.4511,-8.6636,-8.9933,-9.3081,-9.5654,-9.7491,-9.9177,-10.1068,-10.3443,-10.5626,-10.7045,-10.8722,-11.0014,-11.1191,-11.2873,-11.4311,-11.5386,-11.706,-11.8189,-11.9052,-12.0205,-12.1219,-1.2532,-1.2897,-1.3258,-1.4703,-1.4457,-1.4578,-1.7095,-1.8074,-1.9096,-2.1646,-2.2482,-2.2841,-2.3246,-2.4975,-2.6834,0.0,-3.0093,-3.1131,-3.1722,-3.1879,-3.2036,-3.229,-3.2555,-3.2821,-3.3074,-3.3268,-3.3376,-3.3376,-3.3376,-3.3376,-3.3376,-3.3376,-3.3376,-3.3376,-3.3895,-3.4185,-3.4185,-3.4704,-3.497,-3.497,-3.5513,-3.5778,-3.5815,-3.8347,-4.0095,-4.1584,-4.4676,-4.6974,-4.8231,-4.9714,-5.0222,-5.0222,-5.0222,-5.0222,-5.0222,-5.0222,-5.0222,-5.0222,-5.0222,-5.0222,-5.0222,-5.0222,-5.0222,-5.0222,-5.0222,-5.0222,-5.0238,-5.0698,-5.096,-5.1434,-5.3835,-5.5506,-5.6925,-5.8388,-5.9787,-6.1193,-6.2377,-6.3595,-6.4516,-6.564,-6.6095,-6.6861,-6.9012,-6.987,-7.1286,-7.4059,-7.5927,-7.7546,-7.943,-8.1136,-8.3125,-8.5476,-8.9128,-9.2447,-9.4672,-9.6357,-9.8171,-10.0241,-10.2481,-10.4757,-10.6733,-10.8119,-10.9397,-11.08,-11.2368,-11.3665,-11.4978,-11.651,-11.7703,-11.8697,-11.9603,-12.0595,-1.2276,-1.2543,-1.282,-1.3557,-1.373,-1.4549,-1.7898,-1.8379,-1.8951,-2.2184,-2.4297,-2.5169,-2.3668,-2.4999,-2.6858,-2.8717,-2.9031,-2.9695,-3.1553,-3.2036,-3.2302,-3.2555,-3.2821,-3.3074,-3.334,-3.3376,-3.3376,-3.3376,-3.3376,-3.3376,-3.3376,-3.3376,-3.3376,-3.3376,-3.3895,-3.4185,-3.4185,-3.4704,-3.497,-3.497,-3.5513,-3.5778,-3.5815,-3.8347,-4.0095,-4.1584,-4.4676,-4.6974,-4.8231,-4.9714,-5.0222,-5.0222,-5.0222,-5.0222,-5.0222,-5.0222,-5.0222,-5.0222,-5.0222,-5.0222,-5.0222,-5.0222,-5.0222,-5.0222,-5.0222,-5.0222,-5.0222,-5.0222,-5.0222,-5.0452,-5.0943,-5.2638,-5.4319,-5.5764,-5.7401,-5.908,-6.0549,-6.2184,-6.3806,-6.4307,-6.5432,-6.6302,-6.6323,-6.8332,-7.0314,-7.137,-7.3593,-7.5947,-7.8283,-7.8931,-8.0905,-8.5029,-8.7525,-9.005,-9.3146,-9.4872,-9.695,-9.9365,-10.1012,-10.3078,-10.5754,-10.7476,-10.9135,-11.08,-11.182,-11.334,-11.4978,-11.5996,-11.714,-11.8299,-11.9194,-12.0143,-1.2536,-1.3347,-1.416,-1.5097,-1.4914,-1.5318,-1.8649,-1.9142,-2.0112,-2.4031,-2.5894,-2.6492,-2.5574,-2.6918,-2.8367,-2.8922,-3.0117,-3.124,-3.1976,-3.2145,-3.2362,-3.2821,-3.2942,-3.3074,-3.334,-3.3376,-3.3376,-3.3376,-3.3376,-3.3376,-3.3376,-3.3376,-3.3376,-3.3376,-3.3895,-3.4185,-3.4185,-3.4704,-3.497,-3.497,-3.5513,-3.5778,-3.5815,-3.7866,-3.9335,-4.0854,-4.3692,-4.5741,-4.7704,-4.9467,-5.0222,-5.0222,-5.0222,-5.0222,-5.0222,-5.0222,-5.0222,-5.0222,-5.0222,-5.0222,-5.0222,-5.0222,-5.0222,-5.0222,-5.0222,-5.0222,-5.0222,-5.0222,-5.0222,-5.0222,-5.0468,-5.0927,-5.1906,-5.3627,-5.5524,-5.7181,-5.908,-6.1213,-6.3093,-6.4286,-6.5204,-6.5847,-6.6302,-6.6982,-6.8086,-7.0093,-7.205,-7.4621,-7.8491,-7.9936,-8.1362,-8.3736,-8.6189,-8.8502,-9.1048,-9.376,-9.606,-9.7964,-10.0496,-10.2942,-10.5466,-10.6857,-10.8271,-10.9903,-11.1298,-11.2739,-11.4346,-11.5439,-11.671,-11.7852,-11.8625,-11.9573,-1.2519,-1.3415,-1.447,-1.5082,-1.4693,-1.5068,-1.8096,-2.0472,-2.2721,-2.5394,-2.7392,-2.8345,-2.7493,-2.8258,-2.926,-2.9996,-3.0539,-3.1167,-3.2073,-3.2374,-3.2628,-3.2954,-3.3074,-3.3207,-3.3376,-3.3376,-3.3376,-3.3376,-3.3376,-3.3376,-3.3376,-3.3376,-3.3376,-3.3376,-3.3895,-3.4185,-3.4185,-3.4704,-3.497,-3.497,-3.5513,-3.5778,-3.5815,-3.7606,-3.9086,-4.0605,-4.3956,-4.6461,-4.82,-4.9698,-5.0222,-5.0222,-5.0222,-5.0222,-5.0222,-5.0222,-5.0222,-5.0222,-5.0222,-5.0222,-5.0222,-5.0222,-5.0222,-5.0222,-5.0222,-5.0222,-5.0222,-5.0222,-5.0222,-5.0222,-5.0222,-5.0222,-5.0452,-5.1906,-5.3835,-5.5746,-5.7658,-6.0257,-6.2609,-6.3806,-6.4746,-6.5412,-6.5868,-6.6095,-6.7003,-6.878,-7.1635,-7.4645,-7.7866,-7.9756,-8.1388,-8.2969,-8.5056,-8.7283,-8.9777,-9.2623,-9.4958,-9.7072,-9.9609,-10.1956,-10.4432,-10.6229,-10.8,-10.9644,-11.0841,-11.2368,-11.3994,-11.5138,-11.6272,-11.7362,-11.804,-11.8804,-1.2271,-1.3241,-1.4217,-1.4217,-1.4136,-1.4555,-1.6938,-2.1667,-2.5555,-2.639,-2.8745,-3.0423,-2.9387,-2.9272,-2.9827,-3.1566,-3.0612,-3.0274,-3.2024,-3.2688,-3.2978,-3.3014,-3.3243,-3.3376,-3.3376,-3.3376,-3.3376,-3.3376,-3.3376,-3.3376,-3.3376,-3.3376,-3.3376,-3.34,-3.3919,-3.4185,-3.4221,-3.4704,-3.497,-3.497,-3.5513,-3.5778,-3.5815,-3.7594,-3.9111,-4.0684,-4.4954,-4.7704,-4.8958,-4.9714,-4.9976,-4.9976,-5.0206,-5.0206,-5.0222,-5.0222,-5.0222,-5.0222,-5.0222,-5.0222,-5.0222,-5.0222,-5.0222,-5.0222,-5.0222,-5.0222,-5.0222,-5.0222,-5.0222,-5.0222,-5.0222,-5.0222,-5.0452,-5.0927,-5.2621,-5.4578,-5.6501,-5.9316,-6.1932,-6.3324,-6.4496,-6.5412,-6.5412,-6.5868,-6.6798,-6.8151,-7.2141,-7.5405,-7.6679,-7.8798,-8.0626,-8.2143,-8.371,-8.5831,-8.8868,-9.1159,-9.3649,-9.6179,-9.8365,-10.0735,-10.3047,-10.5722,-10.7782,-10.9497,-11.0657,-11.2095,-11.383,-11.4705,-11.5702,-11.6863,-11.7362,-11.7932,-1.242,-1.3851,-1.5303,-1.5303,-1.6313,-1.7495,-1.8359,-2.0895,-2.3674,-2.658,-2.8945,-3.0395,-3.1066,-3.1203,-3.1409,-3.2012,-3.1831,-3.1879,-3.2688,-3.2917,-3.305,-3.3268,-3.334,-3.3376,-3.3376,-3.3376,-3.3376,-3.3376,-3.3376,-3.3376,-3.3376,-3.3376,-3.3473,-3.369,-3.4016,-3.4281,-3.4475,-3.4801,-3.497,-3.497,-3.5513,-3.5778,-3.5815,-3.7112,-3.8824,-4.1274,-4.365,-4.524,-4.6211,-4.7456,-4.8215,-4.8711,-4.922,-4.973,-5.0222,-5.0222,-5.0222,-5.0222,-5.0222,-5.0222,-5.0222,-5.0222,-5.0222,-5.0222,-5.0222,-5.0222,-5.0222,-5.0222,-5.0222,-5.0222,-5.0222,-5.0222,-5.0222,-5.0452,-5.1923,-5.3835,-5.5764,-5.8588,-6.1427,-6.3344,-6.4496,-6.5412,-6.5412,-6.5412,-6.6676,-6.9687,-7.2423,-7.5067,-7.7237,-7.8742,-7.9846,-8.0626,-8.2143,-8.3881,-8.6189,-8.959,-9.2498,-9.4685,-9.7809,-10.0533,-10.2743,-10.4951,-10.7045,-10.8539,-11.0159,-11.1543,-11.3139,-11.4054,-11.5173,-11.6307,-11.7131,-11.7744,-1.3078,-1.4421,-1.5723,-1.6083,-1.7256,-1.8184,-1.8041,-2.0256,-2.2883,-2.5723,-2.8123,-3.0071,-3.1154,-3.1593,-3.1891,-3.2157,-3.2302,-3.2519,-3.2917,-3.3074,-3.3207,-3.3376,-3.3376,-3.3376,-3.3376,-3.3376,-3.3376,-3.3376,-3.3376,-3.3376,-3.3376,-3.3376,-3.3497,-3.3787,-3.4052,-3.4318,-3.4571,-3.4837,-3.497,-3.497,-3.5513,-3.5971,-3.6358,-3.7294,-3.8824,-4.0743,-4.2377,-4.3705,-4.4459,-4.5712,-4.671,-4.7456,-4.8448,-4.9205,-4.973,-5.0191,-5.0222,-5.0222,-5.0222,-5.0222,-5.0222,-5.0222,-5.0222,-5.0222,-5.0222,-5.0222,-5.0222,-5.0222,-5.0222,-5.0222,-5.0222,-5.0222,-5.0222,-5.0222,-5.1678,-5.361,-5.5266,-5.8133,-6.0745,-6.2841,-6.4036,-6.4954,-6.5412,-6.5806,-6.7034,-6.9782,-7.2278,-7.4688,-7.691,-7.8428,-7.9655,-8.0417,-8.1542,-8.3115,-8.5444,-8.8181,-9.1089,-9.3824,-9.68,-9.9557,-10.1739,-10.4046,-10.6229,-10.8455,-11.0048,-11.1437,-11.2673,-11.37,-11.4761,-11.5859,-11.6699,-11.729,-1.3756,-1.497,-1.609,-1.6836,-1.767,-1.8232,-1.7675,-1.9781,-2.2463,-2.4418,-2.7033,-2.9641,-3.0714,-3.1403,-3.1964,-3.2229,-3.2483,-3.2748,-3.3014,-3.3243,-3.3376,-3.3376,-3.3376,-3.3376,-3.3376,-3.3376,-3.3376,-3.3376,-3.3376,-3.3376,-3.3376,-3.3376,-3.3533,-3.3859,-3.4088,-3.4342,-3.4644,-3.4861,-3.497,-3.497,-3.5513,-3.6165,-3.6913,-3.7951,-3.8761,-3.9793,-4.1314,-4.2178,-4.2697,-4.3943,-4.4975,-4.5726,-4.6974,-4.7983,-4.8958,-4.9467,-4.973,-4.996,-4.9976,-4.9976,-4.9992,-5.0206,-5.0222,-5.0222,-5.0222,-5.0222,-5.0222,-5.0222,-5.0222,-5.0222,-5.0222,-5.0222,-5.0222,-5.0222,-5.145,-5.3107,-5.456,-5.7438,-6.0022,-6.2125,-6.3866,-6.4869,-6.5515,-6.6389,-6.777,-6.9366,-7.2121,-7.4537,-7.6519,-7.8369,-7.977,-8.0847,-8.1392,-8.2848,-8.5056,-8.7335,-8.9865,-9.3146,-9.5672,-9.8257,-10.0873,-10.3105,-10.5561,-10.8086,-10.9757,-11.1191,-11.2266,-11.334,-11.445,-11.5456,-11.6116,-11.6781,-1.3783,-1.5499,-1.7168,-1.7914,-1.8213,-1.8424,-1.8417,-1.974,-2.1384,0.0,-2.6816,-2.9641,-3.0714,-3.1546,-3.2229,-3.2495,-3.2748,-3.3014,-3.328,-3.334,-3.3376,-3.3376,-3.3376,-3.3376,-3.3376,-3.3376,-3.3376,-3.3376,-3.3376,-3.3376,-3.3376,-3.3376,-3.3606,-3.4113,-3.4149,-3.4414,-3.4897,-3.4933,-3.497,-3.497,-3.5513,-3.6068,-3.6623,-3.7154,-3.7995,-3.9023,-4.0073,-4.0442,-4.0683,-4.1432,-4.2444,-4.3719,-4.4473,-4.5947,-4.7471,-4.7486,-4.7968,-4.8479,-4.9205,-4.9452,-4.9467,-4.9976,-5.0222,-5.0222,-5.0222,-5.0222,-5.0222,-5.0222,-5.0222,-5.0222,-5.0222,-5.0222,-5.0222,-5.0222,-5.0943,-5.2167,-5.4578,-5.6686,-5.9042,-6.2125,-6.434,-6.6012,-6.6033,-6.6848,-6.8234,-6.986,-7.2385,-7.4644,-7.7088,-7.8813,-8.0166,-8.0298,-8.1159,-8.2512,-8.4157,-8.6573,-8.9308,-9.2603,-9.4725,-9.7395,-10.0873,-10.2272,-10.4474,-10.7354,-10.8838,-11.048,-11.182,-11.3041,-11.4124,-11.5243,-11.5824,-11.6462,-1.4502,-1.6476,-1.8124,-1.8375,-1.8375,-1.8267,-1.8273,-1.9478,-2.1172,-2.311,-2.594,-2.877,-3.0071,-3.1367,-3.229,-3.2555,-3.2821,-3.3074,-3.334,-3.3376,-3.3376,-3.3376,-3.3376,-3.3376,-3.3376,-3.3376,-3.3376,-3.3376,-3.3376,-3.3376,-3.3376,-3.3376,-3.363,-3.4149,-3.4185,-3.4438,-3.497,-3.497,-3.5126,-3.5416,-3.5646,-3.6044,-3.6587,-3.7106,-3.7671,-3.8057,-3.8739,-3.9167,-3.918,-3.992,-4.0683,-4.1711,-4.3201,-4.4459,-4.5712,-4.6461,-4.6944,-4.7222,-4.8231,-4.8711,-4.8741,-4.996,-5.0222,-5.0222,-5.0222,-5.0222,-5.0222,-5.0222,-5.0222,-5.0222,-5.0222,-5.0222,-5.0222,-5.0222,-5.0468,-5.1189,-5.3367,-5.5746,-5.8644,-6.2713,-6.5047,-6.6281,-6.6799,-6.7302,-6.8254,-6.9888,-7.1999,-7.4266,-7.6966,-7.874,-7.9919,-8.0941,-8.1591,-8.2543,-8.4041,-8.6022,-8.823,-9.117,-9.351,-9.608,-9.9098,-10.116,-10.3376,-10.6071,-10.8389,-11.0159,-11.1543,-11.2842,-11.4064,-11.4831,-11.5737,-11.6307,-1.4814,-1.6578,-1.7935,-1.7772,-1.767,-1.7602,-1.767,0.0,-2.0418,0.0,-2.5147,-2.7786,-2.9389,-3.1076,-3.2386,-3.2652,-3.2917,-3.3147,-3.334,-3.3376,-3.3376,-3.3376,-3.3376,-3.3376,-3.3376,-3.3376,-3.3376,-3.3376,-3.3376,-3.3376,-3.3376,-3.3376,-3.363,-3.4149,-3.4185,-3.4438,-3.497,-3.497,-3.5223,-3.5778,-3.5778,-3.6044,-3.6563,-3.7046,-3.7299,-3.7396,-3.7927,-3.8156,-3.8156,-3.8656,-3.9422,-4.0175,-4.1711,-4.2724,-4.3453,-4.4445,-4.5211,-4.5712,-4.6974,-4.7704,-4.8215,-4.9483,-4.9992,-5.0222,-5.0222,-5.0222,-5.0222,-5.0222,-5.0222,-5.0222,-5.0222,-5.0222,-5.0222,-5.0222,-5.0222,-5.0698,-5.3124,-5.5852,-5.9086,-6.3204,-6.51,-6.6421,-6.7358,-6.7606,-6.8244,-6.9696,-7.1632,-7.3898,-7.6622,-7.8345,-8.0022,-8.1403,-8.1942,-8.2547,-8.4037,-8.5568,-8.7529,-9.0007,-9.247,-9.4813,-9.7395,-9.9948,-10.2335,-10.4825,-10.7684,-10.9757,-11.1016,-11.2538,-11.3604,-11.4485,-11.5332,-11.6031,-1.4122,-1.4957,-1.5764,-1.5615,-1.5567,-1.5744,-1.6442,0.0,-1.9168,-2.205,-2.4486,-2.6744,-2.8775,-3.1021,-3.2652,-3.2917,-3.3171,-3.3376,-3.3376,-3.3376,-3.3376,-3.3376,-3.3376,-3.3376,-3.3376,-3.3376,-3.3376,-3.3376,-3.3376,-3.3376,-3.3376,-3.3376,-3.363,-3.4149,-3.4185,-3.4438,-3.497,-3.497,-3.5223,-3.5778,-3.5778,-3.6044,-3.6563,-3.6853,-3.7142,-3.7396,-3.7927,-3.8156,-3.8156,-3.8156,-3.8681,-3.9192,-3.9422,-4.0187,-4.1432,-4.1432,-4.2191,-4.3481,-4.4961,-4.6211,-4.7471,-4.8741,-4.9714,-5.0222,-5.0222,-5.0222,-5.0222,-5.0222,-5.0222,-5.0222,-5.0222,-5.0222,-5.0222,-5.0222,-5.0222,-5.0943,-5.4319,-5.7729,-6.0887,-6.3029,-6.4943,-6.6733,-6.7267,-6.7854,-6.8619,-6.9759,-7.1632,-7.3713,-7.6195,-7.8434,-8.0221,-8.1025,-8.1992,-8.2981,-8.4089,-8.5551,-8.7589,-9.0035,-9.1703,-9.3631,-9.6182,-9.8732,-10.1252,-10.3577,-10.6532,-10.8722,-11.037,-11.1682,-11.2941,-11.3994,-11.4831,-11.5491,-1.4075,-1.4841,-1.5628,-1.5567,-1.5486,-1.5479,-1.575,-1.6321,-1.7524,-1.9519,-2.1389,-2.3727,-2.6818,-3.0083,-3.2218,-3.2511,-3.2996,-3.3376,-3.3376,-3.3376,-3.3376,-3.3376,-3.3376,-3.3376,-3.3376,-3.3376,-3.3376,-3.3376,-3.3376,-3.3376,-3.3376,-3.3376,-3.363,-3.4149,-3.4185,-3.4438,-3.497,-3.497,-3.5223,-3.5778,-3.5778,-3.6044,-3.6563,-3.6853,-3.7106,-3.7396,-3.7758,-3.7987,-3.8156,-3.8156,-3.8425,-3.8668,-3.8936,-3.9435,-3.9933,-4.0429,-4.0963,-4.1445,-4.3201,-4.4473,-4.5712,-4.7952,-4.8973,-4.9714,-4.9992,-5.0222,-5.0222,-5.0222,-5.0222,-5.0222,-5.0222,-5.0222,-5.0222,-5.0222,-5.0452,-5.1466,-5.3671,-5.693,-6.0105,-6.2828,-6.5108,-6.6855,-6.7875,-6.8061,-6.8403,-6.933,-7.0741,-7.2561,-7.5471,-7.7543,-7.9491,-8.1281,-8.2269,-8.3003,-8.3625,-8.4823,-8.6511,-8.8737,-9.0191,-9.2295,-9.5281,-9.7082,-9.9591,-10.2702,-10.495,-10.7138,-10.9757,-11.1298,-11.2436,-11.2941,-11.4064,-11.4831,-1.3546,-1.4055,-1.4584,-1.4584,-1.4509,-1.4516,-1.4814,-1.5174,-1.6118,-1.7608,-1.9535,-2.193,-2.4949,-2.862,-3.1327,-3.1985,-3.282,-3.3376,-3.3376,-3.3376,-3.3376,-3.3376,-3.3376,-3.3376,-3.3376,-3.3376,-3.3376,-3.3376,-3.3376,-3.3376,-3.3376,-3.3376,-3.363,-3.4149,-3.4342,-3.4607,-3.497,-3.497,-3.5223,-3.5778,-3.5778,-3.6044,-3.6563,-3.6756,-3.7046,-3.7372,-3.7565,-3.783,-3.8156,-3.8156,-3.8156,-3.8156,-3.8681,-3.8924,-3.8924,-3.9422,-3.9678,-4.02,-4.1711,-4.2963,-4.4222,-4.6475,-4.7968,-4.8973,-4.9714,-4.9976,-5.0222,-5.0222,-5.0222,-5.0222,-5.0222,-5.0222,-5.0222,-5.0222,-5.0532,-5.1448,-5.2811,-5.5792,-5.9145,-6.2273,-6.4711,-6.6366,-6.7647,-6.7947,-6.8423,-6.8898,-7.0293,-7.2119,-7.4812,-7.7048,-7.9098,-8.1337,-8.2332,-8.2939,-8.3397,-8.444,-8.5829,-8.7723,-8.9381,-9.1305,-9.3926,-9.5888,-9.8287,-10.1354,-10.3643,-10.6134,-10.8689,-11.0523,-11.1611,-11.2163,-11.3041,-11.396,0.0,0.0,0.0,-1.2501,-1.2501,-1.2732,-1.36,-1.4173,-1.5191,-1.6838,-1.9394,-2.1786,-2.3271,-2.6405,-2.947,-3.2006,-3.2904,-3.3376,-3.3376,-3.3376,-3.3376,-3.3376,-3.3376,-3.3376,-3.3376,-3.3376,-3.3376,-3.3376,-3.3376,-3.3376,-3.3376,-3.3376,-3.363,-3.4149,-3.4704,-3.497,-3.497,-3.497,-3.5223,-3.5778,-3.5778,-3.6044,-3.6563,-3.6563,-3.6853,-3.7372,-3.7372,-3.7661,-3.8156,-3.8156,-3.8156,-3.8156,-3.8156,-3.8156,-3.8156,-3.8156,-3.8668,-3.9192,-3.9933,-4.1432,-4.3453,-4.4724,-4.6475,-4.8231,-4.8973,-4.9714,-5.0206,-5.0222,-5.0222,-5.0222,-5.0222,-5.0222,-5.0222,-5.0222,-5.0477,-5.1075,-5.2193,-5.4977,-5.8051,-6.1157,-6.3519,-6.5508,-6.691,-6.7668,-6.8423,-6.8898,-7.0058,-7.1887,-7.4172,-7.6599,-7.8877,-8.0684,-8.2012,-8.286,-8.3335,-8.4403,-8.5623,-8.7173,-8.9046,-9.0768,-9.2241,-9.5271,-9.7658,-9.9455,-10.2942,-10.5475,-10.6799,-10.9131,-11.0624,-11.1298,-11.1958,-11.3306,-1.2501,0.0,0.0,0.0,0.0,0.0,-1.2813,-1.3631,-1.4444,-1.5269,-1.6966,-1.9044,-2.1656,-2.4258,-2.6826,-2.9556,-3.1578,-3.294,-3.3364,-3.3376,-3.3376,-3.3376,-3.3376,-3.3376,-3.3376,-3.3376,-3.3376,-3.3376,-3.3376,-3.3376,-3.3376,-3.3726,-3.4016,-3.4185,-3.4704,-3.497,-3.497,-3.497,-3.5126,-3.5489,-3.5682,-3.5935,-3.6297,-3.6466,-3.6853,-3.7372,-3.7372,-3.7661,-3.8156,-3.8156,-3.8156,-3.8156,-3.8156,-3.8156,-3.8156,-3.8156,-3.8412,-3.8668,-3.9192,-4.0175,-4.1458,-4.3215,-4.4724,-4.6446,-4.7968,-4.8973,-4.9698,-4.9992,-5.0222,-5.0222,-5.0222,-5.0222,-5.027,-5.0524,-5.0667,-5.1171,-5.2265,-5.4137,-5.6485,-6.0059,-6.2681,-6.4965,-6.693,-6.7668,-6.8206,-6.8444,-6.9566,-7.0932,-7.3001,-7.572,-7.8211,-7.9978,-8.1771,-8.2646,-8.2939,-8.3783,-8.509,-8.6615,-8.8329,-8.9935,-9.1912,-9.3981,-9.6153,-9.8465,-10.1158,-10.3632,-10.6343,-10.8689,-10.9903,-11.0014,-11.1437,-11.2572,0.0,-1.2501,-1.2501,-1.2501,0.0,0.0,-1.2501,-1.3315,-1.4249,-1.4423,-1.5639,-1.7523,-2.0353,-2.2459,-2.4827,-2.7897,-3.0428,-3.2017,-3.294,-3.3164,-3.3376,-3.3376,-3.3376,-3.3376,-3.3376,-3.3376,-3.3376,-3.3376,-3.3376,-3.3376,-3.3376,-3.3895,-3.4185,-3.4185,-3.4704,-3.497,-3.497,-3.497,-3.509,-3.538,-3.5646,-3.5911,-3.6165,-3.643,-3.6853,-3.7372,-3.7372,-3.7661,-3.8156,-3.8156,-3.8156,-3.8156,-3.8156,-3.8156,-3.8156,-3.8156,-3.8156,-3.8156,-3.8681,-3.918,-3.9945,-4.1698,-4.3467,-4.5211,-4.7207,-4.8463,-4.9452,-4.9976,-5.0302,-5.0445,-5.0445,-5.054,-5.0715,-5.089,-5.1064,-5.1303,-5.2206,-5.3412,-5.5327,-5.8772,-6.1531,-6.3995,-6.597,-6.721,-6.7947,-6.8165,-6.9351,-7.0677,-7.2583,-7.5267,-7.7766,-7.9807,-8.1337,-8.2533,-8.2633,-8.3647,-8.487,-8.6555,-8.7974,-8.9656,-9.1775,-9.3248,-9.5166,-9.7397,-9.9979,-10.3059,-10.6766,-10.8061,-10.9051,-10.9611,-11.0766,-11.175,0.0,0.0,-1.2501,-1.2501,-1.2501,0.0,-1.2501,-1.3315,-1.4075,-1.4075,-1.5455,-1.71,-1.9137,-2.1204,-2.3483,-2.6541,-2.8915,-3.088,-3.223,-3.2916,-3.3376,-3.3376,-3.3376,-3.3376,-3.3376,-3.3376,-3.3376,-3.3376,-3.3376,-3.3376,-3.3376,-3.3895,-3.4185,-3.4185,-3.4704,-3.497,-3.497,-3.497,-3.509,-3.5356,-3.5646,-3.5911,-3.614,-3.643,-3.6853,-3.7335,-3.7372,-3.7661,-3.812,-3.8144,-3.8156,-3.8156,-3.8156,-3.8156,-3.8156,-3.8156,-3.8156,-3.8156,-3.8156,-3.8668,-3.9422,-4.0683,-4.2458,-4.4459,-4.6475,-4.7983,-4.922,-5.0024,-5.0524,-5.0794,-5.0794,-5.1017,-5.1255,-5.1303,-5.1557,-5.1779,-5.1827,-5.2575,-5.4313,-5.7343,-6.0068,-6.2814,-6.4743,-6.6231,-6.7429,-6.8206,-6.9093,-7.0464,-7.2329,-7.4607,-7.7118,-7.9539,-8.0902,-8.2012,-8.2658,-8.3693,-8.5003,-8.6512,-8.8106,-8.9777,-9.1561,-9.3008,-9.4588,-9.6175,-9.9274,-10.2838,-10.6937,-10.7466,-10.8276,-10.9644,-10.9869,-11.0733,0.0,-1.2501,-1.2501,-1.2501,-1.2501,0.0,-1.2501,-1.3315,-1.4075,-1.4075,-1.4909,-1.6091,-1.7079,-1.8874,-2.0711,-2.2162,-2.6056,-2.9731,-3.2055,-3.2916,-3.3376,-3.3376,-3.3376,-3.3376,-3.3376,-3.3376,-3.3376,-3.3376,-3.3376,-3.3376,-3.3376,-3.3895,-3.4185,-3.4185,-3.4704,-3.497,-3.497,-3.497,-3.4994,-3.5066,-3.5549,-3.5802,-3.5875,-3.6334,-3.6756,-3.707,-3.7275,-3.7529,-3.7854,-3.806,-3.8156,-3.8156,-3.8156,-3.8156,-3.8156,-3.8156,-3.8156,-3.8156,-3.8156,-3.8412,-3.8668,-3.9933,-4.1432,-4.2949,-4.5712,-4.7456,-4.8788,-5.0308,-5.089,-5.116,-5.116,-5.1207,-5.1334,-5.1605,-5.1732,-5.1875,-5.2129,-5.2752,-5.3804,-5.558,-5.8577,-6.155,-6.3995,-6.595,-6.7429,-6.8206,-6.8877,-6.9802,-7.1209,-7.3461,-7.5992,-7.8188,-8.0003,-8.1554,-8.2658,-8.3626,-8.482,-8.5953,-8.7935,-8.955,-9.0689,-9.2486,-9.3779,-9.4844,-9.9112,-10.2333,-10.4447,-10.7029,-10.8656,-10.9235,-10.9677,-11.0193,-1.2501,-1.2501,-1.2501,-1.2501,-1.2501,0.0,0.0,-1.3315,-1.4075,-1.4075,-1.4489,-1.5204,-1.6309,-1.764,-1.8894,-2.0882,-2.4978,-2.8622,-3.0569,-3.2356,-3.3376,-3.3376,-3.3376,-3.3376,-3.3376,-3.3376,-3.3376,-3.3376,-3.3376,-3.3376,-3.3376,-3.3895,-3.4185,-3.4185,-3.4704,-3.497,-3.497,-3.497,-3.497,-3.497,-3.5513,-3.5778,-3.5802,-3.6334,-3.672,-3.6973,-3.7106,-3.7396,-3.7758,-3.7891,-3.8023,-3.8156,-3.8156,-3.8156,-3.8156,-3.8156,-3.8156,-3.8156,-3.8156,-3.8156,-3.8388,-3.9422,-4.067,-4.2178,-4.4473,-4.7078,-4.905,-5.014,-5.0988,-5.1525,-5.1525,-5.1652,-5.1827,-5.2002,-5.2049,-5.2097,-5.2272,-5.2576,-5.3071,-5.4075,-5.6572,-5.9306,-6.2757,-6.4965,-6.6451,-6.7668,-6.8423,-6.9587,-7.0741,-7.2792,-7.5085,-7.7495,-7.9294,-8.0902,-8.2228,-8.3301,-8.4422,-8.5782,-8.7684,-8.9267,-9.0429,-9.2349,-9.4221,-9.5699,-9.8477,-10.0937,-10.2962,-10.5111,-10.716,-10.8788,-10.9235,-10.9677,-1.2501,-1.2501,-1.2501,-1.2501,-1.2501,-1.2501,0.0,0.0,0.0,-1.377,0.0,0.0,0.0,0.0,0.0,-1.9816,0.0,0.0,0.0,-3.0282,-3.2579,-3.328,-3.3376,-3.3376,-3.3376,-3.305,-3.2845,-3.2845,-3.2845,-3.2845,-3.2845,-3.363,-3.4125,-3.4185,-3.4644,-3.4897,-3.497,-3.497,-3.497,-3.497,-3.5513,-3.5778,-3.5802,-3.6334,-3.6684,-3.6913,-3.6949,-3.7203,-3.7625,-3.7722,-3.7891,-3.8084,-3.812,-3.8156,-3.8156,-3.8156,-3.8156,-3.8156,-3.8156,-3.8156,-3.8412,-3.8936,-4.0225,-4.2031,-4.3788,-4.6592,-4.9482,-4.9759,-5.0591,-5.1636,-5.162,-5.2113,-5.232,-5.232,-5.232,-5.232,-5.232,-5.232,-5.256,-5.3071,-5.4821,-5.7092,-6.1039,-6.3547,-6.5246,-6.667,-6.7885,-6.9093,-7.0528,-7.2119,-7.4172,-7.6421,-7.8434,-8.0198,-8.1554,-8.2873,-8.4127,-8.5576,-8.7141,-8.8832,-9.0326,-9.2419,-9.4542,-9.6354,-9.749,-9.9127,-10.1414,-10.2774,-10.5079,-10.829,-10.859,-10.9102,-1.2501,-1.2501,-1.2501,-1.2501,-1.2501,-1.2501,-1.2501,0.0,-1.2678,-1.2678,0.0,-1.2718,0.0,0.0,0.0,0.0,-1.9619,-2.2357,-2.3239,-2.5984,-2.9272,-3.2978,-3.3376,-3.3376,-3.3376,-3.1879,-3.0926,-3.0926,-3.0926,-3.0926,-3.0926,-3.2785,-3.3956,-3.4185,-3.4475,-3.474,-3.497,-3.497,-3.497,-3.497,-3.5513,-3.5778,-3.5802,-3.6334,-3.6587,-3.6623,-3.6877,-3.701,-3.7106,-3.7565,-3.7794,-3.783,-3.806,-3.8156,-3.8156,-3.8156,-3.8156,-3.8156,-3.8156,-3.8156,-3.8412,-3.8936,-4.1106,-4.3612,-4.4388,-4.6056,-4.8085,-4.8643,-4.9653,-5.0412,-5.1214,-5.1759,-5.232,-5.232,-5.232,-5.232,-5.232,-5.232,-5.256,-5.3071,-5.4075,-5.5563,-5.9039,-6.1777,-6.4034,-6.597,-6.6951,-6.7906,-6.9093,-7.0528,-7.2329,-7.4629,-7.7071,-7.9074,-8.0902,-8.2633,-8.3702,-8.4525,-8.6511,-8.8088,-8.9147,-9.2014,-9.4029,-9.4989,-9.6324,-9.7689,-9.9353,-10.1352,-10.4026,-10.7499,-10.7532,-10.8276,-1.2501,-1.2501,-1.2501,-1.2501,-1.2501,-1.2501,-1.2501,-1.2501,-1.2501,-1.2501,0.0,0.0,0.0,0.0,0.0,0.0,-1.83,-2.1129,-2.215,0.0,-2.7256,-2.9557,-2.9951,-3.0141,-3.0141,-2.9441,-2.8982,-2.8982,-2.9996,-3.0612,-3.0612,-3.2628,-3.3919,-3.4185,-3.4438,-3.4704,-3.497,-3.497,-3.497,-3.497,-3.5513,-3.5778,-3.5802,-3.6334,-3.6563,-3.6563,-3.6684,-3.6816,-3.701,-3.7372,-3.7625,-3.7794,-3.8048,-3.8156,-3.8156,-3.8156,-3.8156,-3.8156,-3.8156,-3.8156,-3.8412,-3.8936,-4.0391,-4.1917,-4.2846,-4.4471,-4.5881,-4.6843,-4.804,-4.9181,-5.0458,-5.1245,-5.1791,-5.2304,-5.232,-5.232,-5.232,-5.232,-5.232,-5.256,-5.3311,-5.4296,-5.6555,-5.982,-6.2776,-6.4743,-6.619,-6.7647,-6.8877,-7.0251,-7.1632,-7.3484,-7.5946,-7.8211,-7.9783,-8.1554,-8.2848,-8.3702,-8.659,-8.891,-9.0854,-9.2392,-9.388,-9.4872,-9.5344,-9.6315,-9.7442,-9.8925,-10.1351,-10.4398,-10.6064,-10.7252,-1.3363,-1.3152,-1.2935,-1.2935,-1.2718,-1.2501,-1.2501,-1.2501,-1.2501,-1.2501,-1.2501,0.0,0.0,0.0,0.0,0.0,0.0,-1.9151,-2.0311,-2.2503,-2.4688,-2.6946,-2.7625,-2.7811,-2.7811,-2.7353,-2.7051,-2.7051,-2.8777,-2.9622,-2.9115,-3.2,-3.3593,-3.3437,-3.4088,-3.4644,-3.497,-3.497,-3.497,-3.497,-3.5452,-3.5706,-3.5778,-3.6237,-3.649,-3.6563,-3.6563,-3.6684,-3.6877,-3.7239,-3.7468,-3.7698,-3.8023,-3.8156,-3.8156,-3.8156,-3.8156,-3.8156,-3.8156,-3.8156,-3.8412,-3.8754,-3.9734,-4.0526,-4.1312,-4.2612,-4.3949,-4.4939,-4.6303,-4.7593,-4.8662,-4.9987,-5.0761,-5.1534,-5.1806,-5.2063,-5.2304,-5.232,-5.232,-5.232,-5.2816,-5.3327,-5.4583,-5.8042,-6.1285,-6.3284,-6.5448,-6.719,-6.8382,-6.9587,-7.0954,-7.2075,-7.4835,-7.7071,-7.8434,-8.0465,-8.2203,-8.3941,-8.6383,-8.922,-9.186,-9.2825,-9.3715,-9.4743,-9.4813,-9.5192,-9.6037,-9.7042,-9.8737,-10.1002,-10.3944,-10.6032,-1.554,-1.4794,-1.4021,-1.4021,-1.3254,-1.2501,-1.2501,-1.2501,-1.2501,-1.2501,-1.2501,-1.2501,-1.2501,0.0,0.0,0.0,0.0,0.0,0.0,-1.7817,-2.0867,-2.6456,-2.7625,-2.7811,-2.7811,-2.6194,-2.5132,-2.5132,-2.6858,-2.7123,-2.5325,-3.0407,-3.2785,-3.1517,-3.3243,-3.4438,-3.497,-3.497,-3.497,-3.497,-3.5259,-3.5513,-3.5778,-3.6068,-3.6334,-3.6563,-3.6563,-3.6563,-3.6623,-3.7142,-3.7372,-3.7432,-3.7951,-3.8156,-3.8156,-3.8156,-3.8156,-3.8156,-3.8156,-3.8156,-3.818,-3.8446,-3.9243,-4.0022,-4.0295,-4.1109,-4.2131,-4.2912,-4.3968,-4.5283,-4.6056,-4.7651,-4.947,-5.023,-5.0746,-5.1518,-5.2063,-5.232,-5.232,-5.232,-5.232,-5.2576,-5.3311,-5.6085,-5.9342,-6.206,-6.3995,-6.5749,-6.719,-6.8382,-6.9566,-7.0997,-7.3253,-7.5516,-7.7095,-7.9539,-8.2203,-8.4998,-8.6202,-8.803,-9.0902,-9.2474,-9.3419,-9.3619,-9.4533,-9.4992,-9.4731,-9.5868,-9.7042,-9.8093,-10.1349,-10.4453,-1.5642,-1.4869,-1.4075,-1.4075,-1.3281,-1.2501,-1.2501,-1.2501,-1.2698,-1.3397,-1.3539,-1.3539,-1.3539,0.0,0.0,0.0,0.0,0.0,0.0,-1.7093,-1.9162,-2.1546,-2.2993,-2.3817,-2.4142,-2.3575,-2.32,-2.32,-2.4927,-2.6242,-2.6846,-2.9839,-3.206,-3.3207,-3.3859,-3.4438,-3.497,-3.497,-3.497,-3.497,-3.5259,-3.5513,-3.5778,-3.6044,-3.6297,-3.6563,-3.6563,-3.6563,-3.6587,-3.6949,-3.7203,-3.7408,-3.7758,-3.7987,-3.8156,-3.8156,-3.8156,-3.8156,-3.8156,-3.8156,-3.818,-3.8446,-3.8971,-3.9251,-3.9518,-4.0063,-4.0537,-4.1348,-4.2105,-4.315,-4.4481,-4.578,-4.7362,-4.7883,-4.8922,-4.9972,-5.0746,-5.1261,-5.1791,-5.2304,-5.232,-5.256,-5.3071,-5.5091,-5.7308,-6.0545,-6.3284,-6.5729,-6.693,-6.8403,-6.9351,-6.9823,-7.1865,-7.3898,-7.5493,-7.8901,-8.1771,-8.3941,-8.5367,-8.721,-8.9247,-9.0685,-9.2011,-9.3036,-9.373,-9.4014,-9.4067,-9.5247,-9.6068,-9.7042,-9.8737,-10.1287,-1.6748,-1.5981,-1.5181,-1.5181,-1.4394,-1.362,-1.362,-1.362,-1.381,-1.4489,-1.4333,-1.4075,-1.4075,-1.377,0.0,0.0,0.0,0.0,0.0,-1.6177,-1.755,-1.8623,-2.0296,-2.151,-2.196,-2.2109,-2.2109,-2.2259,-2.3985,-2.5277,-2.5808,-2.8331,-3.0202,-3.1179,-3.1952,-3.2881,-3.3956,-3.3992,-3.4318,-3.497,-3.5163,-3.538,-3.5646,-3.5911,-3.6165,-3.643,-3.6527,-3.6563,-3.6587,-3.6853,-3.707,-3.7275,-3.7625,-3.7854,-3.8023,-3.812,-3.8156,-3.8156,-3.8156,-3.8217,-3.8349,-3.8603,-3.8856,-3.9146,-3.9412,-3.9605,-3.9738,-4.0259,-4.1069,-4.1588,-4.2648,-4.3955,-4.5256,-4.5766,-4.7101,-4.8417,-4.9181,-5.0215,-5.1019,-5.1791,-5.2063,-5.256,-5.28,-5.4313,-5.6337,-5.9572,-6.2532,-6.4985,-6.667,-6.7927,-6.8898,-6.9114,-7.0954,-7.3023,-7.5267,-7.841,-8.112,-8.3087,-8.4525,-8.5967,-8.7415,-8.885,-9.0216,-9.1323,-9.2188,-9.2854,-9.3365,-9.4415,-9.5247,-9.6037,-9.7042,-9.8737]},{"header":{"parameterUnit":"m.s-1","parameterCategory":1,"la1":30.6,"la2":29.2853,"lo1":-89.7004,"lo2":-87.6739,"dy":0.0162,"dx":0.0183,"nx":112,"ny":82,"refTime":"2024-01-31T18:00:00:Z","depth":0,"parameterNumber":3,"parameterNumberName":"V-component_of_WINDS"},"data":[0.0,0.0,0.0,0.0,0.0,0.0,0.0,0.0,0.0,0.0,0.0,0.0,0.0,0.0,0.0,0.0,0.0,0.0,0.0,0.0,0.0,0.0,0.0,0.0,0.0,0.0,0.0,0.0,0.0,0.0,0.0,0.0,0.0,0.0,0.0,0.0,0.0,0.0,0.0,0.0,0.0,0.0,0.0,0.0,0.0,0.0,0.0,0.0,0.0,0.0,0.0,0.0,0.0,0.0,0.0,0.0,0.0,0.0,0.0,0.0,0.0,0.0,0.0,0.0,0.0,0.0,0.0,0.0,0.0,0.0,0.0,0.0,0.0,0.0,0.0,0.0,0.0,0.0,0.0,0.0,0.0,0.0,0.0,0.0,0.0,0.0,0.0,0.0,0.0,0.0,4.4108,4.4197,4.4642,4.5252,4.5654,4.6,4.5998,4.5537,0.0,0.0,0.0,0.0,0.0,0.0,0.0,0.0,0.0,0.0,0.0,0.0,0.0,0.0,0.0,0.0,0.0,0.0,0.0,0.0,0.0,0.0,0.0,0.0,0.0,0.0,0.0,0.0,0.0,0.0,0.0,0.0,0.0,0.0,0.0,0.0,0.0,0.0,0.0,0.0,0.0,0.0,0.0,0.0,0.0,0.0,0.0,0.0,0.0,0.0,0.0,0.0,0.0,0.0,0.0,0.0,0.0,0.0,0.0,0.0,0.0,0.0,0.0,0.0,0.0,0.0,0.0,0.0,0.0,0.0,0.0,0.0,0.0,0.0,0.0,0.0,0.0,0.0,0.0,0.0,0.0,0.0,0.0,0.0,0.0,0.0,0.0,0.0,0.0,0.0,0.0,0.0,0.0,0.0,0.0,0.0,0.0,0.0,0.0,0.0,0.0,0.0,0.0,0.0,4.3457,4.3868,4.4757,4.5231,4.534,4.5483,4.5276,4.4506,0.0,0.0,0.0,0.0,0.0,0.0,0.0,0.0,0.0,0.0,0.0,0.0,0.0,0.0,0.0,0.0,0.0,0.0,0.0,0.0,0.0,0.0,0.0,0.0,0.0,0.0,0.0,0.0,0.0,0.0,0.0,0.0,0.0,0.0,0.0,0.0,0.0,0.0,0.0,0.0,0.0,0.0,0.0,0.0,0.0,0.0,0.0,0.0,0.0,0.0,0.0,0.0,0.0,0.0,0.0,0.0,0.0,0.0,0.0,0.0,0.0,0.0,0.0,0.0,0.0,0.0,0.0,0.0,0.0,0.0,0.0,0.0,0.0,0.0,0.0,0.0,0.0,0.0,0.0,0.0,0.0,0.0,0.0,0.0,0.0,0.0,0.0,0.0,0.0,0.0,0.0,0.0,0.0,0.0,0.0,0.0,0.0,0.0,0.0,0.0,0.0,0.0,0.0,4.1669,4.1939,4.2666,4.3192,4.3721,4.4315,4.4226,4.3725,4.2943,4.2839,0.0,0.0,0.0,0.0,0.0,0.0,0.0,0.0,0.0,0.0,0.0,0.0,0.0,0.0,0.0,0.0,0.0,0.0,0.0,0.0,0.0,0.0,0.0,0.0,0.0,0.0,0.0,0.0,0.0,0.0,0.0,0.0,0.0,0.0,0.0,0.0,0.0,0.0,0.0,0.0,0.0,0.0,0.0,0.0,0.0,0.0,0.0,0.0,0.0,0.0,0.0,0.0,0.0,0.0,0.0,0.0,0.0,0.0,0.0,0.0,0.0,0.0,0.0,0.0,0.0,0.0,0.0,0.0,0.0,0.0,0.0,0.0,0.0,0.0,0.0,0.0,0.0,0.0,0.0,0.0,0.0,0.0,0.0,0.0,0.0,0.0,0.0,0.0,0.0,0.0,0.0,0.0,0.0,0.0,0.0,0.0,0.0,0.0,0.0,0.0,0.0,0.0,3.957,4.0033,4.0853,4.135,4.1988,4.2952,4.2665,4.2222,4.1211,4.0235,0.0,0.0,0.0,0.0,0.0,0.0,0.0,0.0,0.0,0.0,0.0,0.0,0.0,0.0,0.0,0.0,0.0,0.0,0.0,0.0,0.0,0.0,0.0,0.0,0.0,0.0,0.0,0.0,0.0,0.0,0.0,0.0,0.0,0.0,0.0,0.0,0.0,0.0,0.0,0.0,0.0,0.0,0.0,0.0,0.0,0.0,0.0,0.0,0.0,0.0,0.0,0.0,0.0,0.0,0.0,0.0,0.0,0.0,0.0,0.0,0.0,0.0,0.0,0.0,0.0,0.0,0.0,0.0,0.0,0.0,0.0,0.0,0.0,0.0,0.0,0.0,0.0,0.0,0.0,0.0,0.0,0.0,0.0,0.0,0.0,0.0,0.0,0.0,0.0,0.0,0.0,0.0,0.0,0.0,0.0,0.0,0.0,0.0,0.0,0.0,0.0,0.0,3.8079,3.8335,3.8706,3.9456,4.0254,4.1187,4.1206,4.0743,3.9829,3.8576,0.0,0.0,0.0,0.0,0.0,0.0,0.0,0.0,0.0,0.0,0.0,0.0,0.0,0.0,0.0,0.0,0.0,0.0,0.0,0.0,0.0,0.0,0.0,0.0,0.0,0.0,0.0,0.0,0.0,0.0,0.0,0.0,0.0,0.0,0.0,0.0,0.0,0.0,0.0,0.0,0.0,0.0,0.0,0.0,0.0,0.0,0.0,0.0,0.0,0.0,0.0,0.0,0.0,0.0,0.0,0.0,0.0,0.0,0.0,0.0,0.0,0.0,0.0,0.0,0.0,0.0,0.0,0.0,0.0,0.0,0.0,0.0,0.0,0.0,0.0,0.0,0.0,0.0,0.0,0.0,0.0,0.0,0.0,0.0,0.0,0.0,0.0,0.0,0.0,0.0,0.0,0.0,0.0,0.0,0.0,0.0,0.0,0.0,0.0,0.0,0.0,0.0,3.5919,3.6178,3.6789,3.7147,3.7629,3.8526,3.8561,3.8305,3.7639,0.0,0.0,0.0,0.0,0.0,0.0,0.0,0.0,0.0,0.0,0.0,0.0,0.0,0.0,0.0,0.0,0.0,0.0,0.0,0.0,0.0,0.0,0.0,0.0,0.0,0.0,0.0,0.0,0.0,0.0,0.0,0.0,0.0,0.0,0.0,0.0,0.0,0.0,0.0,0.0,0.0,0.0,0.0,0.0,0.0,0.0,0.0,0.0,0.0,0.0,0.0,0.0,0.0,0.0,0.0,0.0,0.0,0.0,0.0,0.0,0.0,0.0,0.0,0.0,0.0,0.0,0.0,0.0,0.0,0.0,0.0,0.0,0.0,0.0,0.0,0.0,0.0,0.0,0.0,0.0,0.0,0.0,0.0,0.0,0.0,0.0,0.0,0.0,0.0,0.0,0.0,0.0,0.0,0.0,0.0,0.0,0.0,0.0,0.0,0.0,0.0,0.0,3.3565,3.3661,3.3903,3.4355,3.45,3.5059,3.5939,3.614,3.619,3.5662,0.0,0.0,0.0,0.0,0.0,0.0,0.0,0.0,0.0,0.0,0.0,0.0,0.0,0.0,0.0,0.0,0.0,0.0,0.0,0.0,0.0,0.0,0.0,0.0,0.0,0.0,0.0,0.0,0.0,0.0,0.0,0.0,0.0,0.0,0.0,0.0,0.0,0.0,0.0,0.0,0.0,0.0,0.0,0.0,0.0,0.0,0.0,0.0,0.0,0.0,0.0,0.0,0.0,0.0,0.0,0.0,0.0,0.0,0.0,0.0,0.0,0.0,0.0,0.0,0.0,0.0,0.0,0.0,0.0,0.0,0.0,0.0,0.0,0.0,0.0,0.0,0.0,0.0,0.0,0.0,0.0,0.0,0.0,0.0,0.0,0.0,0.0,0.0,0.0,0.0,0.0,0.0,0.0,0.0,0.0,0.0,0.0,0.0,0.0,0.0,0.0,0.0,3.0954,3.1066,3.1102,3.1102,3.1889,3.2558,3.3421,3.4299,3.4627,0.0,0.0,0.0,0.0,0.0,0.0,0.0,0.0,0.0,0.0,0.0,0.0,0.0,0.0,0.0,0.0,0.0,0.0,0.0,0.0,0.0,0.0,0.0,0.0,0.0,0.0,0.0,0.0,0.0,0.0,0.0,0.0,0.0,0.0,0.0,0.0,0.0,0.0,0.0,0.0,0.0,0.0,0.0,0.0,0.0,0.0,0.0,0.0,0.0,0.0,0.0,0.0,0.0,0.0,0.0,0.0,0.0,0.0,0.0,0.0,0.0,0.0,0.0,0.0,0.0,0.0,0.0,0.0,0.0,0.0,0.0,0.0,0.0,0.0,0.0,0.0,0.0,0.0,0.0,0.0,0.0,0.0,0.0,0.0,0.0,0.0,0.0,0.0,0.0,0.0,0.0,0.0,0.0,0.0,0.0,0.0,0.0,0.0,0.0,0.0,0.0,0.0,0.0,2.9775,2.9884,2.999,3.0024,3.012,3.0474,3.0956,3.1868,3.2366,3.2505,0.0,0.0,0.0,0.0,0.0,0.0,0.0,0.0,0.0,0.0,0.0,0.0,0.0,0.0,0.0,0.0,0.0,0.0,0.0,0.0,0.0,0.0,0.0,0.0,0.0,0.0,0.0,0.0,0.0,0.0,0.0,0.0,0.0,0.0,0.0,0.0,0.0,0.0,0.0,0.0,0.0,0.0,0.0,0.0,0.0,0.0,0.0,0.0,0.0,0.0,0.0,0.0,0.0,0.0,0.0,0.0,0.0,0.0,0.0,0.0,0.0,0.0,0.0,0.0,0.0,0.0,0.0,0.0,0.0,0.0,0.0,0.0,0.0,0.0,0.0,0.0,0.0,0.0,0.0,0.0,0.0,0.0,0.0,0.0,0.0,0.0,0.0,0.0,0.0,0.0,0.0,0.0,0.0,0.0,0.0,0.0,0.0,0.0,0.0,0.0,0.0,0.0,2.838,2.8483,2.8732,2.8549,2.8665,2.8847,2.9506,3.024,3.0736,3.1049,0.0,0.0,0.0,0.0,0.0,0.0,0.0,0.0,0.0,0.0,0.0,0.0,0.0,0.0,0.0,0.0,0.0,0.0,0.0,0.0,0.0,0.0,0.0,0.0,0.0,0.0,0.0,0.0,0.0,0.0,0.0,0.0,0.0,0.0,0.0,0.0,0.0,0.0,0.0,0.0,0.0,0.0,0.0,0.0,0.0,0.0,0.0,0.0,0.0,0.0,0.0,0.0,0.0,0.0,0.0,0.0,0.0,0.0,0.0,0.0,0.0,0.0,0.0,0.0,0.0,0.0,0.0,0.0,0.0,0.0,0.0,0.0,0.0,0.0,0.0,0.0,0.0,0.0,0.0,0.0,0.0,0.0,0.0,0.0,0.0,0.0,0.0,0.0,0.0,0.0,0.0,0.0,0.0,0.0,0.0,0.0,0.0,0.0,0.0,0.0,0.0,0.0,2.6758,2.7029,2.7201,2.7226,2.7448,2.7888,2.854,2.9103,2.9402,2.9711,0.0,0.0,0.0,0.0,0.0,0.0,0.0,0.0,0.0,0.0,0.0,0.0,0.0,0.0,0.0,0.0,0.0,0.0,0.0,0.0,0.0,0.0,0.0,0.0,0.0,0.0,0.0,0.0,0.0,0.0,0.0,0.0,0.0,0.0,0.0,0.0,0.0,0.0,0.0,0.0,0.0,0.0,0.0,0.0,0.0,0.0,0.0,0.0,0.0,0.0,0.0,0.0,0.0,0.0,0.0,0.0,0.0,0.0,0.0,0.0,-8.0984,-7.5597,0.0,0.0,0.0,0.0,0.0,0.0,0.0,0.0,0.0,0.0,0.0,0.0,0.0,0.0,0.0,0.0,0.0,0.0,0.0,0.0,0.0,0.0,0.0,0.0,0.0,0.0,0.0,0.0,0.0,0.0,0.0,0.0,0.0,0.0,0.0,0.0,0.0,0.0,0.0,0.0,2.564,2.5873,2.6106,2.6133,2.6202,2.6526,2.6771,2.7342,2.7637,2.7924,2.8503,0.0,0.0,0.0,0.0,0.0,0.0,0.0,0.0,0.0,0.0,0.0,0.0,0.0,0.0,0.0,0.0,0.0,0.0,0.0,0.0,0.0,0.0,0.0,0.0,0.0,0.0,0.0,0.0,0.0,0.0,0.0,0.0,0.0,0.0,0.0,0.0,0.0,0.0,0.0,0.0,0.0,0.0,0.0,0.0,0.0,0.0,0.0,0.0,0.0,0.0,0.0,0.0,0.0,0.0,0.0,0.0,0.0,0.0,0.0,-8.6817,-8.39,0.0,0.0,0.0,0.0,0.0,0.0,0.0,0.0,0.0,0.0,0.0,0.0,0.0,0.0,0.0,0.0,0.0,0.0,0.0,0.0,0.0,0.0,0.0,0.0,0.0,0.0,0.0,0.0,0.0,0.0,0.0,0.0,0.0,0.0,0.0,0.0,0.0,0.0,0.0,0.0,2.4408,2.4551,2.4529,2.4592,2.4613,2.471,2.4947,2.5148,2.5436,2.5676,2.588,0.0,0.0,0.0,0.0,0.0,0.0,0.0,0.0,0.0,0.0,0.0,0.0,0.0,0.0,0.0,0.0,0.0,0.0,0.0,0.0,0.0,0.0,0.0,0.0,0.0,0.0,0.0,0.0,0.0,0.0,0.0,0.0,0.0,0.0,0.0,0.0,0.0,0.0,0.0,0.0,0.0,0.0,0.0,0.0,0.0,0.0,0.0,0.0,0.0,0.0,0.0,0.0,0.0,-8.7663,-8.7934,-8.8505,-8.8609,-9.2063,-9.7765,-9.3068,-9.3397,-9.6527,-8.7532,0.0,0.0,0.0,0.0,0.0,0.0,0.0,0.0,0.0,0.0,0.0,0.0,0.0,0.0,0.0,0.0,0.0,0.0,0.0,0.0,0.0,0.0,-0.6233,-0.6838,-0.6069,-0.3277,0.4508,0.0,0.0,0.0,0.0,0.0,0.0,0.0,0.0,0.0,0.0,0.0,2.2556,2.2606,2.2497,2.2344,2.2373,2.2652,2.2867,2.2886,2.3148,2.3326,2.3336,2.3541,0.0,0.0,0.0,0.0,0.0,0.0,0.0,0.0,0.0,0.0,0.0,0.0,0.0,0.0,0.0,0.0,0.0,0.0,0.0,0.0,0.0,0.0,0.0,0.0,0.0,0.0,0.0,0.0,0.0,0.0,0.0,0.0,-7.4668,-7.0831,0.0,0.0,0.0,0.0,0.0,0.0,0.0,0.0,0.0,0.0,0.0,0.0,0.0,-9.2844,-9.9299,-9.9872,-10.0187,-10.0219,-10.0007,-10.03,-10.0999,-10.1602,-10.2786,-10.4487,-10.4615,0.0,-9.8023,-9.6849,0.0,0.0,0.0,0.0,0.0,0.0,0.0,0.0,0.0,0.0,0.0,0.0,0.0,0.0,0.0,0.0,0.0,0.0,0.0,0.0,0.0,0.0,-1.6266,-1.6524,-1.5632,-1.3409,-0.9511,-0.2065,0.4566,0.7131,0.9954,1.2622,0.0,0.0,0.0,0.0,0.0,0.0,1.8598,1.8822,1.9088,1.8874,1.948,2.0147,2.0533,2.0951,2.1165,2.1192,2.1192,2.1192,2.1388,2.1388,0.0,0.0,0.0,0.0,0.0,0.0,0.0,0.0,0.0,0.0,0.0,0.0,0.0,0.0,0.0,0.0,0.0,0.0,0.0,0.0,0.0,0.0,0.0,0.0,0.0,0.0,0.0,0.0,0.0,-7.0593,-7.3903,-6.8942,-7.0976,-6.9715,0.0,0.0,0.0,0.0,0.0,0.0,0.0,0.0,0.0,-8.9904,-9.1104,-9.4646,-10.1003,-10.1486,-10.1992,-10.2617,-10.2507,-10.3075,-10.4293,-10.4583,-10.5397,-10.6592,-10.7197,-10.5871,-10.3305,-10.0125,-9.5666,-9.0662,0.0,0.0,0.0,0.0,-8.1126,-7.8401,-7.8846,-7.5051,-6.9454,-6.5387,0.0,0.0,0.0,0.0,0.0,0.0,0.0,-2.1867,-2.2859,-2.3446,-2.3717,-2.3879,-2.283,-2.0977,-1.8395,-1.2706,-0.5985,0.0932,0.4668,0.7333,0.9585,1.1747,0.0,0.0,0.0,1.5725,1.5294,1.5509,1.5569,1.5526,1.6335,1.6962,1.7232,1.7833,1.8236,1.8236,1.8236,1.8282,1.8574,1.8375,1.8413,0.0,0.0,0.0,0.0,0.0,0.0,0.0,0.0,0.0,0.0,0.0,0.0,0.0,0.0,0.0,0.0,0.0,0.0,0.0,0.0,0.0,0.0,0.0,0.0,0.0,0.0,0.0,0.0,-7.1007,-7.4354,-7.0617,-7.3993,-7.3705,0.0,0.0,0.0,0.0,0.0,0.0,-8.4065,-8.3767,-8.6139,-9.1888,-9.2757,-9.5561,-10.0616,-10.0999,-10.1711,-10.2593,-10.271,-10.3505,-10.5008,-10.4989,-10.5799,-10.7391,-10.7498,-10.7578,-10.7285,-10.2888,-10.0306,-9.857,-9.485,-9.1756,-8.9605,-9.0911,-8.9565,-8.72,-8.7866,-8.4732,-7.9886,-7.6797,-6.9197,-5.9863,-5.2847,0.0,0.0,0.0,0.0,-3.2034,-3.1708,-3.172,-3.1445,-3.0834,-2.9551,-2.7823,-2.5157,-2.1414,-1.5686,-0.5432,-0.0955,0.1905,0.4377,0.6905,0.0,0.9872,1.0911,1.1588,1.1106,1.1521,1.1753,1.1848,1.2663,1.3461,1.3866,1.4464,1.4881,1.4919,1.4919,1.5176,1.5518,1.5114,1.5157,1.5667,0.0,0.0,0.0,0.0,0.0,0.0,0.0,0.0,0.0,0.0,0.0,0.0,0.0,0.0,0.0,0.0,0.0,0.0,0.0,0.0,0.0,0.0,0.0,0.0,0.0,0.0,0.0,0.0,0.0,-8.2147,-8.3032,0.0,0.0,0.0,0.0,-8.6101,-8.2573,-8.4842,-9.5604,-9.1805,-9.1757,-9.7201,-9.8095,-9.9111,-10.0616,-10.0995,-10.1696,-10.2601,-10.2686,-10.3495,-10.5091,-10.511,-10.5982,-10.7572,-10.7693,-10.7822,-10.79,-10.7589,-10.4077,-9.9048,-9.9607,-9.6051,-9.1102,-9.5059,-9.5324,-9.386,-9.488,-9.2681,-8.8542,-8.3594,-7.347,-6.1979,-5.5905,-5.0218,0.0,0.0,-4.2724,-4.0968,-4.0711,-4.1003,-4.0582,-3.8332,-3.6601,-3.4669,-3.0593,-2.7165,-2.1948,-1.2038,-0.6946,-0.3467,-0.0771,0.0,0.2942,0.4154,0.5153,0.5772,0.5224,0.6637,0.7446,0.6849,0.8661,0.987,1.007,1.0872,1.1517,1.1619,1.1623,1.1672,1.1769,1.1568,1.1568,1.1778,1.1885,0.0,0.0,0.0,0.0,0.0,0.0,0.0,0.0,0.0,0.0,0.0,0.0,0.0,0.0,0.0,0.0,0.0,0.0,0.0,0.0,0.0,0.0,0.0,0.0,0.0,0.0,0.0,0.0,-7.9999,-8.314,0.0,-8.1227,-8.3048,-8.5581,-8.8354,-9.0254,-9.3223,-9.7605,-9.6006,-9.5714,-9.7248,-9.775,-9.8576,-9.9744,-10.0096,-10.1104,-10.2605,-10.2693,-10.3603,-10.5212,-10.5195,-10.61,-10.7693,-10.7912,-10.7912,-10.7994,-10.8016,-10.7007,-10.5693,-10.6514,-10.539,-10.3389,-10.4802,-10.3611,-10.1095,-9.9793,-9.6534,-9.173,-8.4412,-7.6864,-6.965,-6.496,-6.054,-5.6676,-5.4247,-5.1651,-4.9535,-4.7916,-4.6425,-4.4934,-4.308,-4.0591,-3.7879,-3.5404,-3.1474,-2.7151,-2.186,-1.5622,-1.0351,-0.7557,-0.4652,-0.2083,-0.0418,0.1226,0.2408,0.2215,0.3023,0.3628,0.383,0.5237,0.6259,0.711,0.8127,0.8974,0.9266,0.9269,0.9308,0.9392,0.898,0.9005,0.9053,0.9082,0.9122,0.0,0.0,0.0,0.0,0.0,0.0,0.0,0.0,0.0,0.0,0.0,0.0,0.0,0.0,0.0,0.0,0.0,0.0,0.0,0.0,0.0,0.0,0.0,0.0,0.0,0.0,-8.3932,-8.1266,-8.6036,-8.8418,-8.5328,-8.8893,-9.1579,-9.2007,-9.5615,-9.7684,-9.755,-9.749,-9.7188,-9.6614,-9.6905,-9.7847,-9.9297,-9.9646,-10.0686,-10.262,-10.3011,-10.3984,-10.5282,-10.5599,-10.6489,-10.7912,-10.7993,-10.8,-10.7994,-10.8295,-10.8885,-10.9803,-11.0313,-11.0301,-11.0005,-11.009,-10.8201,-10.5184,-10.1696,-9.7666,-9.2943,-8.5885,-8.0701,-7.6375,-7.2347,-6.8608,-6.5249,-6.2038,-5.9256,-5.658,-5.3897,-5.159,-4.9472,-4.7299,-4.4565,-4.2008,-3.9613,-3.6116,-3.2575,-2.9539,-2.2607,-1.6127,-1.3188,-1.0211,-0.7593,-0.559,-0.3437,-0.208,-0.1665,-0.0613,0.0202,0.0607,0.1822,0.3048,0.3898,0.4925,0.5561,0.5821,0.6034,0.6267,0.6326,0.612,0.6145,0.6197,0.6216,0.6241,0.6494,0.0,0.0,0.0,0.0,0.0,0.0,0.0,0.0,0.0,0.0,0.0,0.0,0.0,0.0,0.0,0.0,0.0,0.0,0.0,0.0,0.0,0.0,0.0,-7.6941,-8.1538,-8.5928,-8.7333,-9.2669,-9.6502,-9.71,-9.7706,-9.7946,-9.7665,-9.8064,-9.7626,-9.612,-9.6447,-9.6349,-9.5734,-9.6059,-9.7238,-9.9259,-9.9677,-10.0787,-10.2601,-10.36,-10.4597,-10.539,-10.6282,-10.7201,-10.7981,-10.7981,-10.8011,-10.8103,-10.9008,-10.98,-11.0489,-11.0509,-11.0316,-10.9984,-11.0206,-10.8661,-10.5795,-10.0685,-9.6337,-9.2286,-8.8535,-8.4993,-8.1449,-7.7389,-7.4234,-7.126,-6.8153,-6.5286,-6.2314,-5.8918,-5.6947,-5.4943,-5.0985,-4.8837,-4.6766,-4.3228,-4.0513,-3.777,-3.4734,-2.7099,-2.0241,-1.7817,-1.532,-1.3238,-1.1087,-0.9196,0.0,-0.6874,-0.4847,-0.3257,-0.2671,-0.1233,0.0,0.0417,0.1042,0.1464,0.1479,0.2113,0.2334,0.2356,0.2999,0.3226,0.3254,0.328,0.3513,0.3949,0.0,0.0,0.0,0.0,0.0,0.0,0.0,0.0,0.0,0.0,0.0,0.0,0.0,0.0,0.0,0.0,0.0,0.0,0.0,0.0,0.0,-7.8435,-8.3427,-8.3447,-8.8611,-9.2932,-9.4374,-9.6067,-9.7388,-9.8208,-9.8567,-9.8599,-9.8272,-9.7992,-9.749,-9.6561,-9.6196,-9.5959,-9.5859,-9.675,-9.7886,-9.9297,-10.0221,-10.1293,-10.2601,-10.3608,-10.46,-10.539,-10.6289,-10.7185,-10.8003,-10.8003,-10.8397,-10.9019,-10.9199,-11.0095,-11.1378,-11.1393,-11.1488,-11.1717,-11.1227,-10.8589,-10.4828,-10.0694,-9.709,-9.3798,-9.0746,-8.7424,-8.3877,-8.0701,-7.7789,-7.4839,-7.1613,-6.8831,-6.6336,-6.293,-6.0277,-5.774,-5.4941,-5.1779,-4.8775,-4.6705,-4.34,-4.0186,-3.8048,-3.3841,-2.921,-2.3883,-2.0539,-1.7643,-1.564,-1.2848,-1.1043,-1.0817,-0.9049,-0.7825,-0.7615,-0.5771,-0.4401,-0.397,-0.2805,-0.2117,-0.1669,-0.1432,-0.1436,-0.1448,-0.0725,-0.0483,-0.0484,-0.0976,-0.0979,0.0,0.0,0.0,0.0,0.0,0.0,0.0,0.0,0.0,0.0,0.0,0.0,0.0,0.0,0.0,0.0,0.0,0.0,0.0,0.0,0.0,0.0,-8.3466,-8.8043,-8.9676,-9.297,-9.5661,-9.7112,-9.7756,-9.8338,-9.9035,-9.8932,-9.8685,-9.8211,-9.7616,-9.6963,-9.6218,-9.5866,-9.5772,-9.5856,-9.6905,-9.8047,-9.9165,-10.0289,-10.1484,-10.2491,-10.3885,-10.4897,-10.5388,-10.6716,-10.7497,-10.8005,-10.8005,-10.8499,-10.93,-10.96,-11.0511,-11.168,0.0,0.0,0.0,0.0,-10.8327,-10.5091,-10.19,-9.8687,-9.5609,-9.2955,-8.9703,-8.6128,-8.3542,-8.0756,-7.795,-7.4737,-7.2395,-6.9929,-6.6429,-6.3699,-6.1075,-5.8291,-5.5086,-5.1994,-4.9502,-4.6355,-4.3384,-4.1082,-3.8631,0.0,-3.0647,-2.6381,-2.2572,-2.0469,-1.7898,-1.588,-1.4903,-1.3406,-1.2035,-1.1119,-0.9434,-0.8256,-0.734,-0.6628,0.0,0.0,0.0,-0.577,-0.5038,-0.4297,0.0,0.0,0.0,-0.4864,-0.4608,-0.4114,0.0,0.0,0.3452,0.3985,0.0,0.0,0.0,0.0,0.0,0.0,0.0,0.0,0.0,0.0,0.0,0.0,0.0,0.0,0.0,0.0,-8.9124,-9.3397,-9.4646,-9.5145,-9.5875,-9.7103,-9.8252,-9.9062,-9.9404,-9.9031,-9.844,-9.7676,-9.7048,-9.6333,-9.5456,-9.5554,0.0,0.0,0.0,-9.798,-9.9116,-10.0316,-10.1502,-10.2615,-10.4311,-10.5309,-10.56,-10.7201,-10.7982,-10.7982,-10.8099,-10.8589,-10.9408,-11.0208,-11.0985,-11.1704,-11.1683,-11.1806,-11.1714,-10.9675,-10.7805,-10.5946,-10.3579,0.0,0.0,-9.5079,-9.1842,-8.8285,-8.5966,-8.3421,-8.0673,-7.7839,-7.5541,-7.3297,-6.9704,-6.7251,-6.4718,-6.1201,-5.8677,-5.5763,-5.2471,-4.962,-4.6843,-4.4183,-4.2013,-3.9586,-3.746,-3.24,-2.7799,-2.5591,-2.3362,-2.1164,-1.9364,-1.7863,-1.6171,-1.4571,-1.311,0.0,-1.0512,-1.0332,-1.0377,-1.0395,-1.0468,-0.9989,-0.8711,-0.7999,-0.8028,-0.8545,-0.8595,-0.8363,-0.7582,-0.7321,-0.6665,-0.5251,-0.1854,-0.0261,0.0,0.0,0.0,0.0,0.0,0.0,0.0,0.0,0.0,0.0,0.0,0.0,0.0,0.0,0.0,-8.4516,-8.9793,-9.3852,-9.4349,-9.5344,-9.655,-9.7932,-9.8347,-9.8735,-9.9188,-9.9172,-9.8497,-9.715,-9.6929,-9.647,-9.5592,-9.5598,-9.5948,-9.6767,-9.7699,-9.8749,-9.9897,-10.1115,-10.232,-10.3392,-10.4594,0.0,-10.6393,-10.7397,-10.7894,-10.8011,-10.8714,-10.951,-11.0291,-11.1117,-11.1721,-11.2297,-11.2098,-11.1719,-11.1089,-10.9714,-10.8017,-10.6231,-10.4022,-10.1255,-9.848,-9.6155,-9.3465,-9.0732,-8.8171,-8.6051,0.0,-8.0447,-7.8588,-7.6431,-7.2162,-7.0102,-6.7933,-6.3885,-6.1422,-5.8911,-5.5711,-5.2538,-4.9824,-4.8252,-4.5332,-4.2974,-4.1713,-3.6434,-3.1596,-2.9965,-2.7571,-2.5527,-2.497,-2.2631,-2.0893,-2.0663,-1.8241,-1.6653,-1.6494,-1.489,-1.3863,-1.4017,-1.356,-1.2754,-1.1909,-1.2486,-1.2497,-1.1927,-1.2509,-1.2803,-1.252,-1.1956,-1.0859,-0.921,-0.4978,-0.2774,0.0,0.0,0.0,0.0,0.0,0.0,0.0,0.0,0.0,0.0,0.0,-7.6567,-7.9632,0.0,-8.5974,-8.9122,-9.224,-9.44,-9.4703,-9.5399,-9.6322,-9.7765,-9.8162,-9.8552,-9.9164,-9.8533,-9.7821,-9.7112,-9.6609,-9.6145,-9.5724,-9.5643,-9.6025,-9.691,-9.7882,-9.8856,-9.9981,-10.1083,-10.2191,-10.3393,-10.4416,-10.5398,-10.6403,-10.7293,-10.7698,-10.7815,-10.8717,-10.9614,-11.0505,-11.1607,-11.24,-11.2893,-11.2716,-11.1924,-11.0816,-10.9619,-10.8017,-10.6222,-10.4788,-10.2352,-9.9641,-9.7959,-9.5546,-9.2826,-9.0712,-8.8547,-8.6198,-8.3404,-8.107,-7.859,-7.5126,-7.2758,-7.0452,-6.6718,-6.421,-6.1582,-5.8588,-5.5471,-5.2477,-5.0778,-4.8045,-4.5758,-4.4418,-4.0895,-3.6981,-3.3773,-3.1334,-2.9692,-2.861,-2.6969,-2.5598,-2.45,-2.2841,-2.1205,-2.0184,-1.8632,-1.7678,-1.7926,-1.7417,-1.6575,-1.6281,-1.6281,-1.6001,-1.5707,-1.6001,-1.6001,-1.5707,-1.5422,-1.4262,-1.2797,-0.9704,-0.6885,0.0,0.0,0.0,0.0,0.0,0.0,0.0,-7.6309,-7.7255,-7.733,-7.8549,-8.1125,-8.5917,-8.705,-8.8857,-9.3698,-9.4717,-9.4969,-9.5286,-9.5477,-9.6095,-9.7295,-9.7723,-9.821,-9.886,-9.7844,-9.7127,-9.6976,-9.6281,-9.5856,-9.5814,-9.5839,-9.6292,-9.7127,-9.8019,-9.9036,-10.0087,-10.1096,-10.2202,-10.3421,-10.4295,-10.5321,-10.6298,-10.7088,-10.748,-10.7617,-10.8801,-10.9775,-11.079,-11.22,-11.3019,-11.3296,-11.3198,-11.2324,-11.0984,-10.9997,-10.8471,-10.6691,-10.5829,-10.3623,-10.1007,-9.9796,-9.7451,-9.4938,-9.306,-9.0889,-8.851,-8.6195,-8.3567,-8.0763,-7.791,-7.5363,-7.2604,-6.9517,-6.6897,-6.4185,-6.1155,-5.8096,-5.5318,-5.3038,-5.0672,-4.8538,-4.6571,-4.4802,-4.2093,-3.7272,-3.5143,-3.3252,-3.1353,-3.08,-2.972,-2.8064,-2.6961,-2.5591,-2.3441,-2.2062,-2.1495,-2.1436,-2.0893,-2.0623,-2.0611,-2.004,-1.9758,-2.0035,-2.0035,-1.9464,-1.8887,-1.8593,-1.7721,-1.6001,-1.4544,-1.1101,-8.2527,-8.2668,-8.3028,-8.3028,-7.9274,-7.5642,0.0,-7.9875,-8.3579,-8.3826,-8.8242,-9.2335,-9.3251,-9.3681,-9.4122,-9.5048,-9.5303,-9.5477,-9.561,-9.5859,-9.6326,-9.7206,-9.7362,-9.7401,-9.7516,-9.752,-9.7171,-9.6366,-9.6212,-9.6059,-9.59,-9.6504,-9.7178,-9.7929,-9.8808,-9.974,-10.0716,-10.1823,-10.2867,-10.3894,-10.5016,-10.6098,-10.7026,-10.7104,-10.7197,-10.7288,-10.9111,-11.0704,-11.2219,-11.3107,-11.328,-11.3196,-11.3615,-11.3135,-11.2071,-11.1712,-11.0447,-10.8671,-10.7344,-10.4963,-10.2399,-10.0869,-9.8886,-9.6732,-9.4757,-9.3341,-9.154,-8.7868,-8.5868,-8.3924,-7.9957,-7.7556,-7.5403,-7.1981,-6.9339,-6.6918,-6.3725,-6.1174,-5.8681,-5.6483,-5.4178,-5.1805,-4.965,-4.7679,-4.527,-4.0766,-3.7842,-3.5682,-3.4884,-3.3001,-3.1926,-3.1644,-3.0255,-2.8689,-2.6638,-2.5325,-2.4409,-2.3564,-2.3137,-2.3205,-2.3779,-2.3779,-2.4059,-2.4618,-2.4618,-2.4338,-2.3485,-2.2911,-2.1462,-1.917,-1.7721,-1.4296,-8.8726,-8.9584,-8.9668,-8.9728,-8.8051,-8.6406,-8.6517,-8.8448,-9.0231,-9.0415,-9.2753,-9.4807,-9.4969,-9.521,-9.5394,0.0,-9.5696,-9.5859,-9.59,-9.6098,-9.6366,-9.6711,-9.6821,-9.7084,-9.7546,-9.723,-9.6873,-9.6525,-9.6352,-9.6403,-9.6711,-9.6891,-9.7604,-9.8808,-9.919,-9.9847,-10.0787,-10.18,-10.2819,-10.379,-10.4793,-10.5676,-10.6596,-10.6705,-10.7305,-10.8509,-10.9296,-11.0576,-11.229,-11.2866,-11.3312,-11.3496,-11.3807,-11.3688,-11.319,-11.2014,-11.0386,-10.8664,-10.7959,-10.6096,-10.3878,-10.259,-10.0711,-9.8675,-9.7236,-9.518,-9.3087,-9.0573,-8.8133,-8.5505,-8.1994,-7.9683,-7.7374,-7.3523,-7.1128,-6.8715,-6.5805,-6.2841,-6.0295,-5.8811,-5.6227,-5.3754,-5.1869,-5.0105,-4.8143,-4.549,-4.1815,-3.9168,-3.7574,-3.622,-3.4884,-3.3543,-3.2197,-3.0893,-2.9431,-2.8889,-2.7948,-2.75,-2.7086,-2.7189,-2.7466,-2.7751,-2.749,-2.7482,-2.7507,-2.7205,-2.6372,-2.5506,-2.4625,-2.2911,-2.1468,-1.8903,-9.0679,-9.2596,-9.3972,-9.4142,-9.4198,-9.4346,-9.4346,-9.44,-9.4508,-9.4679,-9.5018,-9.5295,-9.5439,-9.5653,-9.5818,-9.5859,-9.6058,-9.6136,-9.6136,-9.6251,-9.6325,-9.6394,-9.6558,-9.6877,-9.7518,-9.7054,-9.6735,-9.6764,-9.6552,-9.6702,-9.7327,-9.7354,-9.7987,-9.9343,-9.9564,-10.0107,-10.1002,-10.192,-10.2815,-10.3838,-10.4681,-10.5421,-10.6122,-10.6399,-10.7488,-10.9107,-10.9412,-11.0491,-11.223,-11.281,-11.3286,-11.3807,-11.4011,-11.3884,-11.3609,-11.2018,-11.0523,-10.9086,-10.8473,-10.6952,-10.5094,-10.3917,-10.2074,-10.0034,-9.8917,-9.6734,-9.4299,-9.2691,-8.9942,-8.6914,-8.3918,-8.1487,-7.8856,-7.5238,-7.2874,-7.0689,-6.7862,-6.5121,-6.2841,-6.1076,-5.8814,-5.6404,-5.4567,-5.2857,-5.0973,-4.9136,-4.6275,-4.3137,-4.0259,-3.8645,-3.7038,-3.5175,-3.3553,-3.2518,-3.2119,-3.1544,-3.0936,-3.0506,-3.0476,-3.062,-3.0894,-3.0894,-3.0903,-3.0345,-3.0354,-2.9785,-2.894,-2.8354,-2.7229,-2.6078,-2.4639,-2.2911,-8.7685,-9.0445,-9.4882,-9.5018,-9.4969,-9.492,-9.5067,-9.4969,-9.4969,-9.5257,-9.5394,-9.5566,-9.5821,-9.5981,-9.6136,-9.6251,-9.6288,-9.6288,-9.6288,-9.6288,-9.6325,-9.6394,-9.659,-9.6793,0.0,-9.7043,-9.7057,-9.7006,-9.6744,-9.684,-9.7442,-9.7971,-9.8637,-9.9381,-9.9966,-10.0795,-10.171,-10.2473,-10.3274,-10.4239,-10.5102,-10.562,-10.5696,-10.6596,-10.7533,-10.8375,-10.9321,-11.0586,-11.2197,-11.2832,-11.3282,-11.3784,-11.401,-11.369,-11.2888,-11.2028,-11.1189,-11.0554,-10.9415,-10.7841,-10.5943,-10.4367,-10.2495,-10.0544,-9.9382,-9.7662,-9.5692,-9.3382,-9.1035,-8.8597,-8.5611,-8.289,-8.0294,-7.805,-7.5262,-7.2657,-7.0247,-6.8289,-6.6158,-6.3572,-6.238,-6.0853,-5.8075,-5.628,-5.4263,-5.1487,-5.0473,-4.8128,-4.3401,-3.9713,-3.7306,-3.6523,-3.5175,-3.4355,-3.4386,-3.3412,-3.2833,-3.2585,-3.2392,-3.2611,-3.3459,-3.3459,-3.3761,-3.4325,-3.3761,-3.2913,-3.2046,-3.1479,-2.9785,-2.78,-2.6943,-2.5205,-9.1558,-9.3732,-9.5484,-9.5657,-9.5661,-9.5619,-9.57,-9.5661,-9.57,-9.5823,-9.2834,-9.0146,-9.029,-9.0329,-9.0329,-9.0402,-9.371,-9.6288,-9.6288,-9.6288,-9.6325,-9.6394,-9.6558,0.0,0.0,0.0,0.0,-9.7004,-9.6764,-9.7071,-9.8173,-9.8274,-9.8905,-10.0183,-10.0881,-10.1317,-10.1484,-10.2789,-10.3535,-10.3732,-10.4622,-10.5132,-10.5132,-10.6001,-10.6891,-10.7767,-10.8583,-10.9878,-11.1516,-11.1995,-11.247,-11.2958,-11.3319,-11.2925,-11.1983,-11.1263,-11.0444,-10.9402,-10.8835,-10.7453,-10.5749,-10.4332,-10.28,-10.1378,-10.0354,-9.8699,-9.6566,-9.4724,-9.2453,-8.9766,-8.6764,-8.4247,-8.189,-7.9269,-7.6769,-7.4407,-7.2027,-6.9849,-6.7765,-6.6159,-6.4286,-6.257,-6.0558,-5.9264,-5.7542,-5.4517,-5.0684,-4.7087,-4.4703,-4.2332,-4.0488,-3.8913,-3.7317,-3.6242,-3.5715,-3.534,-3.5054,-3.5054,-3.5203,-3.5441,-3.5743,-3.5743,-3.5743,-3.5462,-3.5191,-3.4345,-3.3206,-3.2338,-3.0912,-2.9234,-2.8387,-2.7229,-9.1892,-9.417,-9.5982,-9.6135,-9.6172,-9.6172,-9.6172,-9.6172,-9.6209,-9.6284,-9.1621,-8.7462,-8.7494,-8.7429,-8.7435,-8.7401,-9.2402,-9.6288,-9.6288,-9.6288,-9.6325,-9.6361,-9.6492,-9.6676,0.0,0.0,0.0,-9.6965,-9.6764,-9.7192,-9.8517,-9.8427,-9.8975,-10.0519,-10.1203,-10.161,-10.1589,-10.2696,-10.3299,-10.3399,-10.3964,-10.429,-10.4388,-10.5604,-10.6398,-10.6889,-10.8288,-10.9661,-11.0882,-11.1487,-11.2041,-11.2511,-11.2509,-11.1975,-11.1176,-11.0536,-10.9365,-10.826,-10.8121,-10.6984,-10.5401,-10.4089,-10.2806,-10.1539,-10.0857,-9.9049,-9.71,-9.5763,-9.3188,-9.0345,-8.7902,-8.5417,-8.3089,-8.0702,-7.8441,-7.6135,-7.4024,-7.1831,-7.0248,-6.87,-6.6973,-6.5259,-6.3932,-6.1853,-5.9802,-5.704,-5.3213,-4.9395,-4.6812,-4.4731,-4.3137,-4.1285,-3.9713,-3.8366,-3.7586,-3.7227,-3.6706,-3.6442,-3.6876,-3.6877,-3.6877,-3.6877,-3.6607,-3.6035,-3.5753,-3.5191,-3.3771,-3.3206,-3.2055,-3.0363,-2.9803,-2.8655,-8.9105,-9.2011,-9.6429,-9.6492,-9.6492,-9.6492,-9.6492,-9.6492,-9.6492,-9.6492,-9.1515,-8.7125,-8.7063,-8.6801,-8.6582,-8.6478,-9.1748,-9.5826,-9.5826,-9.6095,-9.6288,0.0,0.0,0.0,0.0,0.0,0.0,-9.6941,-9.6783,-9.723,-9.8517,-9.8466,-9.9013,-10.0375,-10.0988,-10.1519,-10.1976,-10.2286,-10.2727,-10.3213,-10.3213,-10.3319,-10.3567,-10.5102,-10.5888,-10.6075,-10.8508,-10.9861,-11.0498,-11.1167,-11.1753,-11.2257,-11.1668,-11.1111,-11.0536,-10.9463,-10.843,-10.756,-10.7382,-10.636,-10.4931,-10.379,-10.2648,-10.1639,-10.0844,-9.9113,-9.7131,-9.613,-9.3539,-9.0528,-8.9082,-8.6409,-8.3907,-8.2291,-8.009,-7.805,-7.5735,-7.4263,-7.3026,-7.1808,-7.0467,-6.8995,-6.7503,-6.3976,-6.1039,-5.9802,-5.7809,-5.4804,-4.9926,-4.7058,-4.498,-4.4191,-4.2357,-4.0754,-3.9968,-3.9115,-3.8043,-3.7244,-3.7121,-3.6856,-3.6845,-3.6845,-3.6845,-3.6845,-3.6003,-3.5441,-3.4597,-3.3771,-3.265,-3.1214,-3.0363,-2.9803,-9.3312,-9.5373,-9.6629,-9.6692,-9.6723,-9.6723,-9.6723,-9.6723,-9.6723,-9.6723,-8.8422,-8.1103,-8.1103,-7.7368,-7.4252,-7.4225,-8.2932,0.0,-8.9671,-9.3518,0.0,-9.6288,0.0,-9.6459,-9.6558,-9.6653,0.0,0.0,-9.7485,-9.7739,-9.8556,-9.9041,-9.967,-10.0519,-10.152,-10.1788,-10.1581,-10.2303,-10.2677,-10.2792,-10.2792,-10.3164,-10.3794,-10.4799,-10.5618,-10.6325,-10.8036,-10.9223,-10.9925,-11.0413,-11.0772,-11.1126,-11.0844,-11.0072,-10.9169,-10.8806,-10.7879,-10.6799,-10.6092,-10.5202,-10.4227,-10.3652,-10.2894,-10.1983,-10.083,-9.9415,-9.7914,-9.6252,-9.3918,-9.1674,-8.9695,-8.758,-8.5444,-8.3881,-8.1513,-7.9294,-7.7841,-7.6159,-7.4329,-7.3328,-7.1428,-6.9462,-6.8061,-6.617,-6.4238,-6.257,-6.0563,-5.7559,-5.2768,-5.07,-4.8907,-4.7319,-4.5752,-4.3941,-4.2345,-4.1088,-3.9656,-3.7805,-3.7266,-3.6902,-3.6339,-3.6339,-3.6339,-3.6339,-3.6233,-3.604,-3.5193,-3.4546,-3.3469,-3.2055,-3.1214,-3.0087,-9.5638,-9.6661,-9.6761,-9.6783,-9.6783,-9.6125,-9.3495,-9.2876,-9.2141,-8.9511,-8.1517,-7.4997,-7.4973,-7.2134,-7.0632,-7.3174,0.0,0.0,-9.0941,-9.421,-9.6288,0.0,-9.6361,0.0,-9.6463,-9.6525,-9.6873,-9.7697,-9.7731,-9.8166,-9.9093,-9.9466,-9.9862,-10.0424,-10.1513,-10.2004,-10.1899,-10.2166,-10.2276,-10.22,-10.22,-10.2646,-10.3536,-10.4424,-10.5423,-10.6645,-10.8114,-10.9095,-10.974,-11.0157,-11.0261,-11.0166,-10.9752,-10.9106,-10.8157,-10.7737,-10.6874,-10.5784,-10.5001,-10.405,-10.3422,-10.3086,-10.2856,-10.2459,-10.0922,-9.97,-9.8326,-9.6648,-9.4469,-9.239,-9.0797,-8.8737,-8.6819,-8.5444,-8.3089,-8.0702,-7.95,-7.7632,-7.5833,-7.4921,-7.3246,-7.1632,-7.0443,-6.8815,-6.7129,-6.5226,-6.3265,-6.0773,-5.7274,-5.428,-5.2,-5.0458,-4.8892,-4.7319,-4.5766,-4.393,-4.2209,-4.0357,-3.928,-3.8339,-3.754,-3.6991,-3.6717,-3.6717,-3.6648,-3.6223,-3.5388,-3.5067,-3.4345,-3.2904,-3.2064,-3.0921,-9.6699,-9.6761,-9.6783,-9.6783,-9.6783,-9.5236,-8.9279,-8.7925,-8.6223,-8.0227,-7.4193,-7.0015,-6.9988,-6.9965,-7.1323,-7.5551,0.0,-8.8122,-9.321,-9.4634,-9.5403,-9.6211,-9.6361,-9.6394,-9.6394,-9.654,-9.6964,-9.7745,-9.8044,-9.8628,-9.9863,-9.9853,-10.0008,-10.0418,-10.1296,-10.1995,-10.2426,-10.2006,-10.1691,-10.1494,-10.1604,-10.2162,-10.3058,-10.3978,-10.5347,-10.6848,-10.8356,-10.9276,-10.962,-11.0097,-11.0051,-10.9402,-10.8806,-10.8017,-10.7166,-10.6834,-10.5784,-10.4832,-10.4139,-10.349,-10.296,-10.2558,-10.2567,-10.2587,-10.1031,-9.992,-9.8811,-9.7012,-9.4985,-9.2923,-9.1883,-9.0064,-8.7986,-8.6792,-8.4666,-8.2343,-8.0931,-7.9213,-7.7515,-7.6282,-7.5477,-7.4584,-7.3253,-7.161,-6.978,-6.7885,-6.593,-6.3976,-6.2041,-5.7792,-5.4583,-5.3837,-5.2016,-5.0473,-4.944,-4.7316,-4.5335,-4.3505,-4.1887,-4.0401,-3.9587,-3.8259,-3.7702,-3.744,-3.6848,-3.6414,-3.5635,-3.5586,-3.516,-3.3771,-3.2913,-3.2064,-9.6753,-9.6783,-9.6783,-9.6783,-9.6783,-9.5236,-8.9279,-8.7925,-8.6223,-8.0227,-7.4193,-7.0015,-7.0015,-7.001,-6.8668,-6.4679,-7.315,-8.053,-8.147,-8.5824,-9.0787,0.0,-9.6288,-9.6325,-9.6325,-9.694,0.0,0.0,-9.9288,-9.9827,-10.0096,-10.0429,-10.0784,-10.1309,-10.0891,-10.1225,-10.2126,-10.177,-10.1538,-10.1494,-10.2191,-10.2889,-10.3815,-10.4623,-10.5909,-10.7525,-10.8444,-10.9115,-10.9567,-10.9687,-10.9304,-10.8466,-10.7808,-10.6945,-10.6162,-10.6048,-10.532,-10.4505,-10.4351,-10.3952,-10.3362,-10.2645,-10.2403,-10.2249,-10.1342,-10.0177,-9.8811,-9.7012,-9.5187,-9.3306,-9.2062,-9.0431,-8.8952,-8.7986,-8.6052,-8.4131,-8.3168,-8.1263,-7.9246,-7.7511,-7.7057,-7.6374,-7.4607,-7.3231,-7.1654,-6.9759,-6.7865,-6.619,-6.4723,-6.0545,-5.7092,-5.5833,-5.5041,-5.3517,-5.0973,-4.9987,-4.7912,-4.4799,-4.3784,-4.2499,-4.0623,-4.0381,-3.9579,-3.8518,-3.7963,-3.7384,-3.676,-3.5902,-3.5545,-3.518,-3.4063,-3.2913,-9.6783,-9.6783,-9.6783,-9.6783,-9.6783,-9.4423,-8.5333,-8.3283,-8.0691,-7.1562,-6.7384,-6.5373,-6.5373,-6.7862,-6.9015,-6.6052,-7.2919,-7.9682,-8.274,-8.5593,-8.9594,-9.5595,-9.6288,-9.648,-9.6865,-9.7288,-9.8057,-9.9365,-9.9788,-10.021,-10.0595,-10.0887,-10.1058,-10.1396,-10.1091,-10.1276,-10.2123,-10.1734,-10.1494,-10.1494,-10.2301,-10.3109,-10.388,-10.4724,-10.6229,-10.8211,-10.8441,-10.9144,-10.9786,-10.939,-10.8568,-10.7702,-10.698,-10.6197,-10.532,-10.532,-10.5039,-10.4475,-10.4154,-10.3865,-10.3443,-10.2568,-10.2521,-10.2444,-10.1783,-10.0429,-9.9132,-9.7703,-9.5698,-9.3833,-9.2805,-9.137,-9.0092,-8.8952,-8.6847,-8.4524,-8.3538,-8.2646,-8.1396,-7.9869,-7.9658,-7.9098,-7.7295,-7.5946,-7.4356,-7.2285,-7.0655,-6.9009,-6.691,-6.4199,-6.1512,-5.9057,-5.7577,-5.6303,-5.4534,-5.2752,-5.0715,-4.8388,-4.6826,-4.5504,-4.4191,-4.3124,-4.1815,-4.1032,-3.9698,-3.8631,-3.7803,-3.6935,-3.634,-3.5743,-3.4899,-3.4043,-9.6435,-9.6783,-9.6783,-9.6783,-9.6783,-9.3688,-8.1736,-7.8989,-7.5585,-6.3555,-6.1118,-6.1118,-6.106,-6.593,-6.9494,-6.8111,-7.288,-7.8758,-8.467,-8.5478,-8.8171,-9.5441,-9.6442,0.0,-9.7442,-9.7827,0.0,-9.9942,-10.0013,-10.0386,-10.1192,-10.1065,-10.1239,-10.1469,-10.1476,-10.1574,-10.2123,-10.1697,-10.1611,-10.1788,-10.2595,-10.3403,-10.421,-10.5201,-10.6816,-10.8712,-10.8595,-10.9039,-10.9824,-10.9043,-10.8019,-10.6945,-10.6275,-10.5622,-10.4797,-10.497,-10.4846,-10.4486,-10.415,-10.3833,-10.3413,-10.2718,-10.2739,-10.2634,-10.1848,-10.0927,-9.9641,-9.8357,-9.6511,-9.4499,-9.3512,-9.227,-9.0825,-8.9723,-8.7418,-8.5277,-8.4274,-8.3958,-8.3524,-8.2364,-8.1942,-8.1381,-7.9978,-7.8457,-7.7048,-7.4812,-7.3231,-7.1567,-6.9481,-6.7844,-6.595,-6.3001,-6.0563,-5.8808,-5.7809,-5.5546,-5.3533,-5.2031,-4.9926,-4.8647,-4.7854,-4.578,-4.4454,-4.3691,-4.1765,-4.016,-3.8794,-3.8247,-3.711,-3.6231,-3.5722,-3.5191,-9.5313,-9.6783,-9.6783,-9.6783,-9.6783,-9.3688,-8.1736,-7.8989,-7.5585,-6.3555,-6.1118,-6.106,-6.1022,-6.5908,-6.8204,-6.2629,-6.6714,-7.2661,-7.8507,-7.9323,-8.3555,-9.4941,0.0,0.0,-9.748,-9.8942,-9.9865,-9.994,-10.0206,-10.068,-10.1306,-10.0916,-10.1091,-10.2174,-10.1705,-10.1685,-10.2123,-10.1891,-10.1985,-10.2595,-10.3403,-10.421,-10.5018,-10.6596,-10.7832,-10.8485,-10.8875,-10.9215,-10.9169,-10.8399,-10.7345,-10.617,-10.5703,-10.507,-10.466,-10.5264,-10.5136,-10.469,-10.5337,-10.4637,-10.3479,-10.3454,-10.3048,-10.2399,-10.1912,-10.1082,-10.0178,-9.8842,-9.7178,-9.5528,-9.4007,-9.2776,-9.1342,-8.9908,-8.8578,-8.7418,-8.6409,-8.5399,-8.4649,-8.4138,-8.3109,-8.2244,-8.1646,-7.9978,-7.8434,-7.7095,-7.5471,-7.392,-7.2561,-7.072,-6.9072,-6.7627,-6.4238,-6.1057,-5.9288,-5.7809,-5.6068,-5.4075,-5.2816,-5.1277,-4.9957,-4.8662,-4.7115,-4.5808,-4.3705,-4.2019,-4.0944,-3.9054,-3.795,-3.7377,-3.621,-3.5743,-9.5197,-9.6783,-9.6783,-9.6783,-9.6783,-9.3688,-8.1736,-7.8965,-7.5538,-6.3515,-6.1041,-6.1021,-6.1,-6.6244,-6.8473,-6.1951,-6.628,-7.2338,-7.7746,-7.8477,-8.2939,-9.4864,-9.7019,0.0,0.0,0.0,-9.9972,-10.0206,-10.0406,-10.0782,-10.1428,-10.1233,-10.1408,-10.1987,-10.2085,-10.2167,-10.2123,-10.1891,-10.2059,-10.2705,-10.3513,-10.432,-10.5201,-10.6682,-10.768,-10.8181,-10.8394,-10.8483,-10.8399,-10.7596,-10.6859,-10.6332,-10.5967,-10.5766,-10.5884,-10.6195,-10.6041,-10.5885,-10.5845,-10.504,-10.4108,-10.3651,-10.2933,-10.2399,-10.2216,-10.1543,-10.0616,-9.9641,-9.8,-9.6374,-9.5015,-9.313,-9.1522,-9.0643,-8.9695,-8.8765,-8.8362,-8.7506,-8.6751,-8.6727,-8.5531,-8.4484,-8.3762,-8.2368,-8.0635,-7.9098,-7.7742,-7.6172,-7.4127,-7.3001,-7.1632,-7.0016,-6.665,-6.3752,-6.1796,-6.0545,-5.8826,-5.6806,-5.5563,-5.4075,-5.2784,-5.1502,-4.9713,-4.7912,-4.6317,-4.4353,-4.2541,-4.0919,-3.9538,-3.8163,-3.7296,-3.6575,-9.4635,-9.6723,-9.6723,-9.6723,-9.5408,-9.1427,-8.1221,-7.7524,-7.3326,-6.3106,-6.1173,-6.1323,-6.1302,-6.538,-6.7064,-6.1997,-6.6602,-7.2035,-7.537,-7.7562,-8.1946,-9.0441,0.0,-9.5865,0.0,-9.8629,-10.0091,-10.0277,-10.0461,-10.0797,-10.1434,-10.1495,-10.1837,-10.2077,-10.2496,-10.2538,-10.22,-10.219,-10.2512,-10.3191,-10.388,-10.4567,-10.5448,-10.6802,-10.7471,-10.7725,-10.8039,-10.7862,-10.7596,-10.7156,-10.6793,-10.6538,-10.6697,-10.6839,-10.6959,-10.727,-10.7208,-10.7056,-10.6482,-10.5682,-10.4757,-10.4073,-10.3344,-10.2634,-10.2634,-10.2,-10.1082,-10.046,-9.8811,-9.6845,-9.5698,-9.3803,-9.2241,-9.1551,-9.0825,-9.0064,-8.9908,-8.9431,-8.8717,-8.8719,-8.7746,-8.6724,-8.6071,-8.4499,-8.3037,-8.1263,-7.9978,-7.8457,-7.6172,-7.5267,-7.4172,-7.2329,-6.9738,-6.7149,-6.4762,-6.3284,-6.1531,-5.9572,-5.8077,-5.6555,-5.531,-5.3566,-5.1791,-5.0245,-4.8417,-4.6444,-4.4541,-4.2937,-4.1017,-3.9025,-3.8463,-3.7241,-9.329,-9.6492,-9.6492,-9.6492,-9.2126,-8.6221,-8.0095,-7.4192,-6.8274,-6.2232,-6.1653,-6.215,-6.2036,-6.2743,-6.304,-6.1953,-6.6797,-7.0439,-6.9788,-7.5396,-7.9659,0.0,0.0,-9.1213,-9.1105,-9.6757,-10.0315,-9.9972,-10.0217,-10.0469,-10.1088,-10.1502,-10.2189,-10.3009,-10.2794,-10.2648,-10.2426,-10.2976,-10.3633,-10.4206,-10.477,-10.5448,-10.5997,-10.7378,-10.7652,-10.6932,-10.785,-10.7773,-10.6794,-10.7605,-10.7354,-10.6677,-10.7799,-10.7925,-10.7791,-10.8556,-10.8435,-10.776,-10.7912,-10.7,-10.5667,-10.4932,-10.4073,-10.349,-10.349,-10.2569,-10.1543,-10.1268,-9.9132,-9.7012,-9.5976,-9.4814,-9.3512,-9.2657,-9.2091,-9.1551,-9.1007,-9.0762,-9.0267,-8.9905,-8.9325,-8.8714,-8.7719,-8.6617,-8.5367,-8.3677,-8.2393,-8.1095,-7.9367,-7.7989,-7.6622,-7.4835,-7.3461,-7.1123,-6.7408,-6.595,-6.4238,-6.2287,-6.0316,-5.879,-5.7326,-5.4787,-5.3039,-5.2304,-4.9455,-4.7883,-4.7101,-4.4527,-4.2273,-4.0124,-3.8759,-3.7377,-8.3828,-8.5719,-8.541,-8.5989,-8.4715,-8.1744,-7.5735,-7.2894,-6.9822,-6.3815,-6.2728,-6.2848,-6.2694,-6.3329,-6.4661,-6.707,-6.9551,-7.2334,-7.5577,-7.7976,0.0,-8.0328,-8.6582,-9.26,0.0,0.0,-10.004,-10.0197,-10.0482,-10.0919,-10.1539,-10.2081,-10.2496,-10.2794,-10.2684,-10.2648,-10.2426,-10.3202,-10.3863,-10.4519,-10.5214,-10.5781,-10.6169,-10.7216,-10.7074,-10.6343,-10.7736,-10.7832,-10.7039,-10.7845,-10.8091,-10.8174,-10.8503,-10.8921,-10.9287,-10.9566,-10.9391,-10.8895,-10.8469,-10.7499,-10.646,-10.5634,-10.4823,-10.3928,-10.3928,-10.3523,-10.2719,-10.188,-10.0429,-9.91,-9.7477,-9.6344,-9.5358,-9.4528,-9.3658,-9.2953,-9.2598,-9.2225,-9.1975,-9.1832,-9.0905,-9.0128,-8.9913,-8.8207,-8.659,-8.5367,-8.389,-8.2393,-8.1095,-7.9783,-7.8655,-7.7272,-7.6397,-7.4104,-6.9524,-6.7865,-6.665,-6.4965,-6.3021,-6.1285,-5.9324,-5.7308,-5.5074,-5.3055,-5.1261,-4.944,-4.7897,-4.5836,-4.2898,-3.9587,-3.8294,-3.7112,-7.8921,-8.0849,-8.0617,-8.1119,-7.9509,-7.685,-7.3097,-7.0464,-6.7691,-6.3898,-6.5082,-6.6039,-6.3732,-6.5677,-6.7601,-6.7572,-7.1712,-7.4448,-7.2926,-7.6922,0.0,-8.1308,0.0,0.0,0.0,-9.9986,-10.0009,-10.0217,-10.0835,-10.1433,-10.1779,-10.2385,-10.2721,-10.2721,-10.2721,-10.2611,-10.2464,-10.3574,-10.4276,-10.4676,-10.5822,-10.6423,-10.6682,-10.7144,-10.7076,-10.6834,-10.7735,-10.795,0.0,-10.8383,-10.8895,-10.9111,-10.951,-10.9964,-11.0348,-11.0468,-11.0313,-10.9914,-10.9455,-10.8538,-10.7528,-10.6866,-10.5806,-10.4648,-10.4538,-10.4106,-10.3311,-10.2602,-10.1696,-10.0553,-9.926,-9.8294,-9.7178,-9.6175,-9.5358,-9.4671,-9.3833,-9.3483,-9.3409,-9.3163,-9.2647,-9.2101,-9.172,-9.025,-8.8843,-8.7594,-8.5967,-8.4288,-8.3225,-8.1746,-8.0465,-7.9294,-7.8434,-7.6599,-7.2956,-7.0911,-6.9051,-6.693,-6.5508,-6.3771,-6.155,-5.9536,-5.7057,-5.4534,-5.2544,-5.0746,-4.8951,-4.6252,-4.3264,-3.995,-3.8157,-3.6969,0.0,-7.9977,-7.9939,-8.0015,-7.5802,-7.1602,-7.1543,-6.7199,0.0,-6.2977,-6.8155,-7.087,-6.4938,-6.9095,-7.1403,-6.501,-7.3477,-7.6657,-6.463,-7.3151,0.0,0.0,-8.3031,0.0,-9.8567,-9.9967,-10.023,-10.0081,-10.1196,-10.1816,-10.1928,-10.2385,-10.2721,-10.2721,-10.2721,-10.2721,-10.2796,-10.4169,-10.4982,-10.4982,-10.6418,-10.7078,-10.7205,-10.7252,-10.7422,-10.8021,-10.7974,-10.811,-10.8453,-10.9494,-10.9739,-10.9573,-11.0734,-11.1133,-11.1098,-11.1261,-11.1226,-11.0874,-11.0637,-10.9966,-10.9352,-10.8281,-10.6966,-10.5773,-10.5561,-10.4505,-10.367,-10.3523,-10.2719,-10.188,-10.1326,-10.0209,-9.8971,-9.7774,-9.7147,-9.6344,-9.4985,-9.4863,-9.4814,-9.4022,-9.4326,-9.4435,-9.355,-9.2474,-9.1467,-9.0222,-8.8437,-8.6617,-8.5315,-8.3864,-8.2418,-8.112,-8.0027,-7.8901,-7.7543,-7.4584,-7.1632,-6.8598,-6.7647,-6.619,-6.3566,-6.1568,-5.9306,-5.6589,-5.3788,-5.1518,-5.0002,-4.6056,-4.2886,-4.0766,-3.8904,-3.7272,-6.8783,0.0,-6.8602,-6.9267,-6.8262,-6.7103,0.0,-6.5796,-6.4641,-6.4514,-6.9241,-7.1522,-6.5462,-6.9162,-7.2391,-6.9992,-7.5587,-7.7689,-7.0367,-7.2536,0.0,-8.7437,-8.8466,-9.1186,-9.832,-9.9455,-9.9984,-10.0419,-10.1188,-10.1827,-10.2496,-10.2573,-10.2721,-10.2721,-10.2721,-10.3019,-10.3687,-10.4579,-10.5395,-10.6101,-10.6989,-10.7448,-10.7342,-10.7363,-10.7386,-10.7667,-10.8464,-10.8998,-10.9459,-11.0582,-11.1131,-11.1281,-11.1608,-11.1679,-11.1679,-11.1829,-11.1758,-11.1643,-11.1296,-11.091,-11.0278,-10.8793,-10.7762,-10.6866,-10.6357,-10.5355,-10.4427,-10.404,-10.3816,-10.3376,-10.2537,-10.1967,-10.1358,-10.0676,-9.9736,-9.8587,-9.7774,-9.7168,-9.6708,-9.597,-9.5395,-9.5122,-9.5043,-9.3827,-9.2474,-9.1467,-9.005,-8.8613,-8.6617,-8.5341,-8.4076,-8.3062,-8.1771,-8.0635,-7.9515,-7.572,-7.2978,-7.1865,-6.9266,-6.7388,-6.6451,-6.3489,-6.0829,-5.8577,-5.4042,-5.0488,-4.8677,-4.6056,-4.3665,-4.1563,-3.9507,-3.7825,-6.5897,-6.5551,-6.5295,-6.5705,-6.5646,-6.5465,-6.5314,-6.5052,-6.4848,-6.4743,-6.9242,-7.1384,-6.5419,-6.8935,-7.1724,-6.8481,-7.2817,-7.6419,-7.6007,0.0,-7.6091,-8.5124,-8.6442,-8.8898,0.0,-9.6105,-9.7927,-10.0885,-10.1679,-10.2201,-10.2721,-10.2721,-10.2721,-10.2721,-10.2721,-10.3093,-10.3984,-10.4802,-10.5619,-10.6399,-10.7217,-10.783,-10.8187,-10.778,-10.8208,-10.9231,-10.9292,-10.9799,-11.0813,-11.1201,-11.1643,-11.1908,-11.1908,-11.1908,-11.1908,-11.1986,-11.2134,-11.2134,-11.1872,-11.1493,-11.0874,-10.9757,-10.892,-10.8186,-10.7366,-10.6562,-10.5706,-10.4965,-10.4538,-10.4217,-10.3637,-10.3229,-10.2719,-10.2269,-10.1479,-10.0521,-9.9578,-9.8899,-9.8311,-9.7456,-9.689,-9.6385,-9.6262,-9.5129,-9.4019,-9.325,-9.186,-9.025,-8.8816,-8.6977,-8.555,-8.4314,-8.3276,-8.2203,-8.0877,-7.7989,-7.5244,-7.3231,-7.0911,-6.8815,-6.7647,-6.4965,-6.1796,-5.8024,-5.4042,-5.1004,-4.8677,-4.6854,-4.4744,-4.2345,-4.0246,-3.8261,-6.5897,-6.5897,-6.5872,-6.5793,-6.559,-6.5314,-6.5123,-6.4777,-6.4483,-6.4366,-6.8822,-7.0938,-6.5127,-6.866,-7.0795,-6.5903,-6.9927,-7.6014,-8.2837,-7.8714,-7.7222,-8.3098,-8.4367,0.0,-9.1759,-9.3498,-9.6377,-10.1374,-10.2273,-10.2721,-10.2721,-10.2721,-10.2721,-10.2721,-10.2721,-10.3204,-10.4207,-10.4913,-10.5693,-10.6622,-10.7402,-10.8242,-10.8993,-10.8412,-10.9171,-11.1215,-11.0159,-11.0533,-11.1872,-11.1679,-11.1723,-11.1986,-11.1986,-11.1986,-11.2057,-11.2323,-11.2434,-11.2434,-11.2434,-11.195,-11.1342,-11.0874,-11.0157,-10.9545,-10.8538,-10.7988,-10.7332,-10.6049,-10.5355,-10.4856,-10.4394,-10.3961,-10.3637,-10.3229,-10.2933,-10.2302,-10.1172,-10.0365,-9.9797,-9.9114,-9.8437,-9.7888,-9.7338,-9.635,-9.5505,-9.4998,-9.3443,-9.186,-9.1017,-8.8816,-8.6797,-8.5524,-8.4314,-8.3276,-8.2228,-8.0465,-7.7965,-7.4561,-7.2539,-7.0229,-6.8103,-6.597,-6.2268,-5.6772,-5.455,-5.2256,-4.9728,-4.7897,-4.5794,-4.315,-4.0754,-3.8751,-6.5897,-6.5897,-6.5872,-6.5701,-6.5494,-6.5321,-6.4993,-6.4745,-6.452,-6.4206,-6.8772,-7.0966,-6.4949,-6.8521,-7.205,-7.1045,-7.5692,-8.3165,0.0,0.0,-8.8853,-9.4652,0.0,-9.6139,-9.7701,-9.8704,-9.9894,-10.1418,-10.2275,-10.2721,-10.2721,-10.2721,-10.2721,-10.2721,-10.2721,-10.3427,-10.4987,-10.5099,-10.5916,-10.7402,-10.8294,-10.8914,-10.9317,-10.9299,-11.0,-11.145,-11.0588,-11.0976,-11.2176,-11.2211,-11.2359,-11.2727,-11.2727,-11.2727,-11.2691,-11.2656,-11.2656,-11.2656,-11.2656,-11.247,-11.2063,-11.1687,-11.1144,-11.0637,-11.0087,-10.9668,-10.8885,-10.8084,-10.6832,-10.5561,-10.5281,-10.4823,-10.4538,-10.4361,-10.4073,-10.367,-10.3163,-10.2151,-10.1274,-10.0939,-9.978,-9.8743,-9.8463,-9.7489,-9.6438,-9.5505,-9.478,-9.3635,-9.186,-9.0846,-8.922,-8.6824,-8.555,-8.4499,-8.3301,-8.1554,-7.9783,-7.7742,-7.4356,-7.0911,-6.7408,-6.4985,-6.2004,-5.879,-5.5799,-5.3294,-5.1791,-4.8677,-4.6317,-4.4468,-4.1272,-3.8948,-6.5846,-6.5846,-6.5793,-6.5561,-6.5474,-6.5314,-6.5057,-6.4743,-6.4443,-6.4244,-6.6213,-6.7083,-6.4308,-6.8426,-7.329,-7.627,0.0,-8.3626,-9.2059,-9.0982,-9.0276,0.0,0.0,-9.4697,-9.5068,-9.6257,-9.8449,-10.1904,-10.2498,-10.2721,-10.2721,-10.2721,-10.2721,-10.2721,-10.3204,-10.3984,-10.521,-10.5619,-10.6399,-10.7625,-10.8517,-10.9104,-10.96,-11.027,-11.1212,-11.2048,-11.1683,-11.2018,-11.2801,-11.2399,-11.2545,-11.2801,-11.2801,-11.2801,-11.2801,-11.2801,-11.2801,-11.2801,-11.2801,-11.2656,-11.2545,-11.2211,-11.1837,-11.1643,-11.1144,-11.0756,-11.0278,-10.9545,-10.8023,-10.646,-10.5945,-10.5355,-10.4965,-10.4965,-10.4681,-10.4217,-10.3928,-10.3344,-10.2797,-10.2256,-10.1351,-10.0399,-9.9668,-9.8432,-9.7133,-9.6249,-9.5093,-9.3887,-9.3257,-9.1718,-9.0262,-8.8586,-8.6977,-8.5367,-8.4127,-8.2633,-8.0173,-7.6397,-7.3461,-7.0464,-6.7885,-6.5488,-6.3001,-6.0526,-5.7326,-5.4821,-5.28,-4.9698,-4.7362,-4.5532,-4.208,-3.9447,-6.582,-6.5793,-6.574,-6.5503,-6.5413,-6.5314,-6.5123,-6.4779,-6.4481,-6.4324,-6.4079,-6.3867,-6.378,-6.9495,0.0,-7.9985,-8.2957,-8.6264,-9.0685,-9.1316,-9.139,-9.1576,-9.2691,-9.3582,-9.3954,-9.5143,-9.7817,-10.2387,-10.2721,-10.2721,-10.2721,-10.2721,-10.2721,-10.2721,-10.3501,-10.4393,-10.521,-10.5991,-10.6808,-10.7625,-10.8703,-10.9405,-10.9841,-11.1236,-11.2212,-11.2795,-11.2555,-11.2801,-11.3235,-11.262,-11.2581,-11.2801,-11.2801,-11.2801,-11.2801,-11.2801,-11.2801,-11.2801,-11.2801,-11.2801,-11.2837,-11.2545,-11.2399,-11.2288,-11.1872,-11.1758,-11.1342,-11.0637,-10.9262,-10.8023,-10.6933,-10.622,-10.5667,-10.5561,-10.514,-10.4856,-10.4361,-10.4217,-10.3947,-10.3166,-10.2629,-10.1732,-10.0724,-9.9255,-9.785,-9.7192,-9.54,-9.416,-9.4315,-9.263,-9.1076,-9.0152,-8.8209,-8.6042,-8.4109,-8.286,-8.0027,-7.5697,-7.3001,-7.072,-6.8815,-6.667,-6.4258,-6.1777,-5.9057,-5.632,-5.3788,-5.0973,-4.8417,-4.6317,-4.2635,-4.0222,-6.582,-6.5793,-6.5767,-6.5523,-6.5435,-6.5283,-6.4993,-6.4888,-6.4745,-6.4364,-6.4203,-6.4037,-6.3823,-7.2732,-8.0208,-8.0617,-8.9681,-9.6814,-9.7223,0.0,-9.7557,-9.83,-9.8486,-9.9155,-10.0604,-10.0901,-10.1495,-10.261,-10.2721,-10.2721,-10.2721,-10.2721,-10.2721,-10.2721,-10.3501,-10.4393,-10.521,-10.5991,-10.6808,-10.7625,-10.9223,-11.0003,-11.0073,-11.1753,-11.2815,-11.3113,-11.2855,-11.2938,-11.3199,-11.291,-11.2801,-11.2801,-11.2801,-11.2801,-11.2801,-11.2801,-11.2801,-11.2801,-11.2801,-11.2801,-11.2801,-11.2801,-11.2801,-11.2837,-11.2656,-11.2434,-11.2211,-11.1837,-11.1144,-11.0157,-10.8281,-10.72,-10.6528,-10.629,-10.5634,-10.5248,-10.5281,-10.4681,-10.4106,-10.3994,-10.3369,-10.2449,-10.2045,-10.0274,-9.87,-9.7902,-9.6533,-9.5105,-9.386,-9.3492,-9.2565,-9.0129,-8.838,-8.6209,-8.3099,-8.1239,-7.9685,-7.7965,-7.5062,-7.2792,-7.0975,-6.7865,-6.5246,-6.3284,-5.9802,-5.7308,-5.5074,-5.1743,-4.9151,-4.6826,-4.3401,-4.0766,-6.6381,-6.6479,-6.6538,-6.6796,-6.6536,-6.6955,-6.9847,-7.0384,-7.1253,-7.4627,-7.2215,-6.9394,-6.9059,-7.5432,-8.188,-8.5446,-9.2728,-9.7892,-9.7892,-9.7892,-9.8189,-9.9006,-9.9526,-10.0307,-10.1421,-10.2015,-10.2387,-10.2721,-10.2721,-10.2721,-10.2721,-10.2721,-10.2721,-10.2721,-10.4022,-10.4913,-10.521,-10.6511,-10.7328,-10.7625,-10.9297,-11.0114,-11.0226,-11.2586,-11.3581,-11.3426,-11.3696,-11.3752,-11.3377,-11.3019,-11.2801,-11.2801,-11.2801,-11.2801,-11.2801,-11.2801,-11.2801,-11.2801,-11.2801,-11.2801,-11.2801,-11.2801,-11.2801,-11.2801,-11.2801,-11.2656,-11.251,-11.2176,-11.1915,-11.1377,-10.9634,-10.8597,-10.792,-10.7332,-10.6731,-10.6049,-10.5667,-10.5248,-10.4681,-10.425,-10.3866,-10.3272,-10.2661,-10.1255,-9.9849,-9.87,-9.687,-9.5571,-9.4932,-9.3766,-9.2632,-9.1295,-8.7992,-8.5293,-8.3886,-8.1805,-8.0312,-7.9319,-7.6195,-7.3276,-7.1188,-6.8598,-6.643,-6.452,-6.1285,-5.8559,-5.6589,-5.3039,-5.0473,-4.8403,-4.5242,-4.2332,-6.6803,-6.7132,-6.742,-6.7719,-6.7293,-6.8585,-7.5551,-7.5283,-7.5191,-8.0783,-7.8403,-7.4711,-7.262,-7.6865,-8.2586,0.0,-9.2616,-9.5811,-9.7632,-9.8115,-9.8598,-9.9378,-10.0195,-10.1012,-10.1793,-10.2387,-10.2721,-10.2721,-10.2721,-10.2721,-10.2721,-10.2721,-10.2721,-10.2721,-10.4319,-10.521,-10.521,-10.6808,-10.7625,-10.7625,-10.9297,-11.0114,-11.0226,-11.2966,-11.4015,-11.348,-11.4146,-11.4108,-11.3625,-11.2983,-11.2801,-11.2801,-11.2801,-11.2801,-11.2801,-11.2801,-11.2801,-11.2801,-11.2801,-11.2801,-11.2801,-11.2801,-11.2801,-11.2801,-11.2801,-11.2801,-11.2837,-11.2545,-11.247,-11.2211,-11.0992,-11.0122,-10.9352,-10.8666,-10.7858,-10.7066,-10.6426,-10.584,-10.5281,-10.4538,-10.425,-10.3947,-10.3284,-10.2138,-10.0868,-9.963,-9.762,-9.6189,-9.5504,-9.4163,-9.2726,-9.1261,-8.7586,-8.4712,-8.3759,-8.2297,-8.0926,-7.9735,-7.7225,-7.4378,-7.1654,-6.9545,-6.7367,-6.5266,-6.2287,-5.9802,-5.7326,-5.4329,-5.1791,-4.947,-4.6812,-4.4191,-6.7049,-6.7675,-6.8339,-6.8157,-6.7485,-6.9948,-8.1575,-7.8823,-7.5308,-8.0677,-8.1372,-7.9223,-7.3387,-7.6939,-8.266,-8.8381,-8.9347,-9.139,-9.7112,-9.8598,-9.9415,-10.0195,-10.1012,-10.1793,-10.261,-10.2721,-10.2721,-10.2721,-10.2721,-10.2721,-10.2721,-10.2721,-10.2721,-10.2721,-10.4319,-10.521,-10.521,-10.6808,-10.7625,-10.7625,-10.9297,-11.0114,-11.0226,-11.2966,-11.4015,-11.348,-11.4146,-11.4108,-11.3625,-11.2983,-11.2801,-11.2801,-11.2801,-11.2801,-11.2801,-11.2801,-11.2801,-11.2801,-11.2801,-11.2801,-11.2801,-11.2801,-11.2801,-11.2801,-11.2801,-11.2801,-11.2801,-11.2801,-11.2801,-11.2656,-11.2434,-11.1608,-11.0756,-11.0036,-10.9102,-10.8247,-10.7567,-10.6629,-10.5667,-10.5455,-10.4714,-10.4073,-10.4106,-10.2751,-10.1358,-10.0521,-9.9003,-9.7208,-9.5388,-9.4904,-9.3071,-8.9211,-8.6764,-8.4711,-8.2772,-8.2108,-8.0991,-7.9393,-7.8565,-7.6622,-7.3023,-7.0464,-6.7865,-6.5266,-6.3265,-6.0582,-5.7326,-5.5327,-5.2768,-5.0215,-4.8157,-4.5518,-6.8471,-7.2016,-7.548,-7.5896,-7.4976,-7.7007,-8.8685,-8.546,-8.142,-8.6651,-8.7417,-8.5317,-7.9298,-8.2846,-8.7304,-8.9013,-9.2691,-9.6146,-9.8412,-9.8932,-9.9601,-10.1012,-10.1384,-10.1793,-10.261,-10.2721,-10.2721,-10.2721,-10.2721,-10.2721,-10.2721,-10.2721,-10.2721,-10.2721,-10.4319,-10.521,-10.521,-10.6808,-10.7625,-10.7625,-10.9297,-11.0114,-11.0226,-11.3169,-11.4238,-11.3786,-11.4568,-11.465,-11.3762,-11.3092,-11.2801,-11.2801,-11.2801,-11.2801,-11.2801,-11.2801,-11.2801,-11.2801,-11.2801,-11.2801,-11.2801,-11.2801,-11.2801,-11.2801,-11.2801,-11.2801,-11.2801,-11.2801,-11.2801,-11.2801,-11.2691,-11.2399,-11.195,-11.118,-11.0157,-10.9262,-10.8247,-10.71,-10.6049,-10.5421,-10.4856,-10.4361,-10.4073,-10.3637,-10.2867,-10.1511,-10.0083,-9.8132,-9.5217,-9.4007,-9.2776,-9.0585,-8.8091,-8.6215,-8.4903,-8.3317,-8.2043,-8.1115,-7.9224,-7.6871,-7.3506,-7.1399,-6.9309,-6.6691,-6.4258,-6.1531,-5.8577,-5.6303,-5.3804,-5.1549,-4.944,-4.7101,-6.9229,-7.4187,-7.9038,-7.944,-7.8321,-7.9363,-8.7962,-8.9565,-8.9464,-9.0042,-9.174,-9.1286,-8.5246,-8.6969,-9.0053,-9.2319,-9.3991,-9.5923,-9.8709,-9.9638,-10.0418,-10.1421,-10.1793,-10.2201,-10.2721,-10.2721,-10.2721,-10.2721,-10.2721,-10.2721,-10.2721,-10.2721,-10.2721,-10.2721,-10.4319,-10.521,-10.521,-10.6808,-10.7625,-10.7625,-10.9297,-11.0114,-11.0226,-11.3214,-11.4323,-11.3875,-11.4509,-11.4275,-11.3553,-11.2948,-11.2801,-11.2801,-11.2801,-11.2801,-11.2801,-11.2801,-11.2801,-11.2801,-11.2801,-11.2801,-11.2801,-11.2801,-11.2801,-11.2801,-11.2801,-11.2801,-11.2801,-11.2801,-11.2801,-11.2801,-11.2801,-11.2801,-11.2656,-11.195,-11.0992,-11.0001,-10.9011,-10.7596,-10.629,-10.5667,-10.514,-10.4681,-10.4394,-10.425,-10.367,-10.2452,-10.0429,-9.8163,-9.5729,-9.4211,-9.2805,-9.1342,-8.924,-8.7283,-8.5568,-8.3765,-8.2545,-8.1453,-7.9588,-7.7529,-7.4835,-7.2329,-6.9802,-6.719,-6.4965,-6.2287,-5.9342,-5.7092,-5.4837,-5.256,-5.1019,-4.8907,-6.959,-7.5091,-8.0631,-8.0631,-8.0169,-8.0491,-8.3255,-9.2015,-9.7931,-9.2033,-9.4759,-9.6489,-9.112,-9.009,-9.1799,-9.7149,-9.4214,-9.3174,-9.856,-10.0604,-10.1495,-10.1607,-10.2313,-10.2721,-10.2721,-10.2721,-10.2721,-10.2721,-10.2721,-10.2721,-10.2721,-10.2721,-10.2721,-10.2796,-10.4393,-10.521,-10.5322,-10.6808,-10.7625,-10.7625,-10.9297,-11.0114,-11.0226,-11.3177,-11.4397,-11.4096,-11.4121,-11.3762,-11.3271,-11.2983,-11.291,-11.291,-11.2765,-11.2765,-11.2801,-11.2801,-11.2801,-11.2801,-11.2801,-11.2801,-11.2801,-11.2801,-11.2801,-11.2801,-11.2801,-11.2801,-11.2801,-11.2801,-11.2801,-11.2801,-11.2801,-11.2801,-11.2656,-11.2399,-11.1573,-11.0672,-10.9703,-10.8118,-10.6731,-10.5911,-10.5248,-10.4681,-10.4681,-10.4394,-10.3848,-10.2965,-10.021,-9.7827,-9.6832,-9.5166,-9.3571,-9.2033,-9.0557,-8.8494,-8.5444,-8.4267,-8.2853,-8.1422,-8.001,-7.8349,-7.6599,-7.3001,-6.9994,-6.7429,-6.5508,-6.2776,-5.9572,-5.813,-5.6119,-5.3566,-5.256,-5.0973,-7.0437,-7.8554,-8.6786,-8.6786,-9.2518,-9.6751,-9.1257,-9.5234,-9.9568,-9.7496,-9.7717,-9.7889,-9.6325,-9.6034,-9.6666,-9.8523,-9.7966,-9.8115,-10.0604,-10.131,-10.1718,-10.2387,-10.261,-10.2721,-10.2721,-10.2721,-10.2721,-10.2721,-10.2721,-10.2721,-10.2721,-10.2721,-10.3019,-10.3687,-10.469,-10.5508,-10.6102,-10.7105,-10.7625,-10.7625,-10.9297,-11.0114,-11.0226,-11.3377,-11.5196,-11.5752,-11.5211,-11.4848,-11.4377,-11.3866,-11.3589,-11.3377,-11.3199,-11.3019,-11.2801,-11.2801,-11.2801,-11.2801,-11.2801,-11.2801,-11.2801,-11.2801,-11.2801,-11.2801,-11.2801,-11.2801,-11.2801,-11.2801,-11.2801,-11.2801,-11.2801,-11.2801,-11.2801,-11.2656,-11.1986,-11.0992,-11.0036,-10.8469,-10.6933,-10.5945,-10.5248,-10.4681,-10.4681,-10.4681,-10.4158,-10.283,-10.1066,-9.9167,-9.7536,-9.6375,-9.5157,-9.3571,-9.2033,-9.0345,-8.8091,-8.5764,-8.4019,-8.3036,-8.0628,-7.8545,-7.7071,-7.4172,-7.1188,-6.8815,-6.619,-6.3752,-6.0792,-5.9057,-5.711,-5.4854,-5.3071,-5.1502,-7.4168,-8.1785,-8.9171,-9.121,-9.7865,-10.1826,-9.3907,-9.6331,-10.0113,-9.9462,-9.8891,-9.8357,-9.8061,-9.7961,-9.8152,-9.8969,-9.9415,-10.0084,-10.131,-10.1793,-10.2201,-10.2721,-10.2721,-10.2721,-10.2721,-10.2721,-10.2721,-10.2721,-10.2721,-10.2721,-10.2721,-10.2721,-10.3093,-10.3984,-10.4802,-10.5619,-10.6399,-10.7217,-10.7625,-10.7625,-10.9297,-11.0709,-11.1897,-11.3934,-11.5196,-11.5857,-11.5644,-11.5357,-11.5069,-11.4577,-11.4174,-11.3866,-11.3447,-11.3164,-11.3019,-11.273,-11.2801,-11.2801,-11.2801,-11.2801,-11.2801,-11.2801,-11.2801,-11.2801,-11.2801,-11.2801,-11.2801,-11.2801,-11.2801,-11.2801,-11.2801,-11.2801,-11.2801,-11.2801,-11.2099,-11.1144,-11.0243,-10.8759,-10.7366,-10.6153,-10.5528,-10.4965,-10.4681,-10.4802,-10.4718,-10.3944,-10.2271,-10.0476,-9.8885,-9.7284,-9.5775,-9.4573,-9.2981,-9.1103,-8.8868,-8.6655,-8.4572,-8.3009,-8.0865,-7.8837,-7.7364,-7.4902,-7.2329,-6.9093,-6.6451,-6.4015,-6.1814,-5.982,-5.7845,-5.5884,-5.4108,-5.2528,-7.8015,-8.4901,-9.1248,-9.548,-10.0212,-10.2096,-9.5368,-9.7227,-10.0288,-9.979,-9.9154,-9.8487,-9.8158,-9.8104,-9.8375,-9.9192,-9.9972,-10.0789,-10.1607,-10.2313,-10.2721,-10.2721,-10.2721,-10.2721,-10.2721,-10.2721,-10.2721,-10.2721,-10.2721,-10.2721,-10.2721,-10.2721,-10.3204,-10.4207,-10.4913,-10.5693,-10.6622,-10.7291,-10.7625,-10.7625,-10.9297,-11.1303,-11.3606,-11.4252,-11.5011,-11.5567,-11.5862,-11.5883,-11.5734,-11.5225,-11.491,-11.4613,-11.4108,-11.373,-11.3271,-11.3092,-11.3019,-11.2875,-11.291,-11.291,-11.2946,-11.2765,-11.2801,-11.2801,-11.2801,-11.2801,-11.2801,-11.2801,-11.2801,-11.2801,-11.2801,-11.2801,-11.2801,-11.2801,-11.2247,-11.1342,-11.0637,-10.9171,-10.7727,-10.6528,-10.5768,-10.5339,-10.4846,-10.522,-10.536,-10.5299,-10.3479,-10.1656,-10.0173,-9.8083,-9.6339,-9.5079,-9.3631,-9.1609,-8.924,-8.6955,-8.4907,-8.2772,-8.0992,-7.9213,-7.7403,-7.56,-7.289,-6.9524,-6.693,-6.452,-6.2551,-6.0582,-5.863,-5.6624,-5.5074,-5.3837,-7.8169,-8.7902,-9.7365,-10.1597,-10.3289,-10.3172,-10.0593,-10.0382,-10.0604,0.0,-9.9213,-9.8487,-9.8158,-9.855,-9.9192,-10.0009,-10.0789,-10.1607,-10.2424,-10.261,-10.2721,-10.2721,-10.2721,-10.2721,-10.2721,-10.2721,-10.2721,-10.2721,-10.2721,-10.2721,-10.2721,-10.2721,-10.3427,-10.4987,-10.5099,-10.5916,-10.7402,-10.7514,-10.7625,-10.7625,-10.9297,-11.1006,-11.2715,-11.4349,-11.5225,-11.5788,-11.638,-11.6624,-11.6499,-11.6193,-11.5827,-11.5394,-11.5105,-11.4441,-11.3902,-11.3938,-11.3694,-11.3519,-11.3164,-11.3056,-11.3092,-11.291,-11.2801,-11.2801,-11.2801,-11.2801,-11.2801,-11.2801,-11.2801,-11.2801,-11.2801,-11.2801,-11.2801,-11.2801,-11.2434,-11.1872,-11.0672,-10.9475,-10.8179,-10.6528,-10.6029,-10.5641,-10.5674,-10.5947,-10.6082,-10.6049,-10.4342,-10.2739,-10.0918,-9.9526,-9.7683,-9.5695,-9.4606,-9.2854,-9.0248,-8.7714,-8.5494,-8.338,-8.1261,-7.9222,-7.7403,-7.5677,-7.3493,-7.072,-6.834,-6.5729,-6.3265,-6.1057,-5.9093,-5.7144,-5.5867,-5.4617,-8.2247,-9.3441,-10.2789,-10.4212,-10.4212,-10.3597,-10.2326,-10.1388,-10.0688,-10.0101,-9.9405,-9.8705,-9.8357,-9.8731,-9.9378,-10.0195,-10.1012,-10.1793,-10.261,-10.2721,-10.2721,-10.2721,-10.2721,-10.2721,-10.2721,-10.2721,-10.2721,-10.2721,-10.2721,-10.2721,-10.2721,-10.2721,-10.3501,-10.5099,-10.521,-10.5991,-10.7625,-10.7625,-10.8108,-10.9,-10.9706,-11.0932,-11.2603,-11.4201,-11.5085,-11.541,-11.6625,-11.7058,-11.7095,-11.6763,-11.6499,-11.6176,-11.5547,-11.5069,-11.4577,-11.4275,-11.4036,-11.4005,-11.3625,-11.3377,-11.3449,-11.2875,-11.2801,-11.2801,-11.2801,-11.2801,-11.2801,-11.2801,-11.2801,-11.2801,-11.2801,-11.2801,-11.2801,-11.2801,-11.2691,-11.2323,-11.1261,-11.0001,-10.8573,-10.6999,-10.6147,-10.6072,-10.69,-10.7184,-10.7137,-10.7106,-10.5745,-10.4118,-10.2138,-10.033,-9.8691,-9.689,-9.511,-9.3297,-9.1314,-8.869,-8.6326,-8.3909,-8.2006,-8.0264,-7.8474,-7.6576,-7.4763,-7.2561,-6.9051,-6.619,-6.3752,-6.1587,-5.9378,-5.788,-5.6136,-5.4854,-8.4016,-9.4018,-10.1712,-10.0789,-10.0212,-9.9827,-10.0212,0.0,-9.9249,0.0,-9.9931,-9.9351,-9.9215,-9.9314,-9.9675,-10.0492,-10.131,-10.2015,-10.261,-10.2721,-10.2721,-10.2721,-10.2721,-10.2721,-10.2721,-10.2721,-10.2721,-10.2721,-10.2721,-10.2721,-10.2721,-10.2721,-10.3501,-10.5099,-10.521,-10.5991,-10.7625,-10.7625,-10.8405,-11.0114,-11.0114,-11.0932,-11.2529,-11.4015,-11.4795,-11.5092,-11.6727,-11.7433,-11.7433,-11.7228,-11.6973,-11.6675,-11.6176,-11.5808,-11.5453,-11.5032,-11.4775,-11.4577,-11.4108,-11.3762,-11.3589,-11.3127,-11.2946,-11.2801,-11.2801,-11.2801,-11.2801,-11.2801,-11.2801,-11.2801,-11.2801,-11.2801,-11.2801,-11.2801,-11.2801,-11.2545,-11.1377,-11.021,-10.8822,-10.73,-10.6755,-10.6813,-10.7795,-10.8192,-10.816,-10.7836,-10.6701,-10.5049,-10.3078,-10.1183,-9.9261,-9.7877,-9.5942,-9.4127,-9.2113,-8.9777,-8.7148,-8.4301,-8.2533,-8.0978,-7.9222,-7.7388,-7.5724,-7.3741,-6.9931,-6.693,-6.4743,-6.206,-6.0087,-5.8648,-5.6875,-5.5344,-8.0092,-8.4824,-8.9402,-8.8556,-8.8286,-8.9286,-9.3249,0.0,-9.5278,-10.05,-10.102,-10.0688,-10.1183,-10.0681,-10.0492,-10.131,-10.209,-10.2721,-10.2721,-10.2721,-10.2721,-10.2721,-10.2721,-10.2721,-10.2721,-10.2721,-10.2721,-10.2721,-10.2721,-10.2721,-10.2721,-10.2721,-10.3501,-10.5099,-10.521,-10.5991,-10.7625,-10.7625,-10.8405,-11.0114,-11.0114,-11.0932,-11.2529,-11.3421,-11.4312,-11.5092,-11.6727,-11.7433,-11.7433,-11.7433,-11.7302,-11.7133,-11.6973,-11.6712,-11.6193,-11.6193,-11.592,-11.5526,-11.4874,-11.4377,-11.3902,-11.3449,-11.2983,-11.2801,-11.2801,-11.2801,-11.2801,-11.2801,-11.2801,-11.2801,-11.2801,-11.2801,-11.2801,-11.2801,-11.2801,-11.2434,-11.0756,-10.9724,-10.8721,-10.7538,-10.8083,-10.8366,-10.8174,-10.859,-10.8755,-10.7934,-10.6701,-10.5274,-10.3443,-10.1756,-9.9953,-9.8291,-9.7282,-9.5459,-9.217,-9.0547,-8.7972,-8.4327,-8.2569,-8.1034,-7.9286,-7.7486,-7.5608,-7.3881,-7.1182,-6.8598,-6.599,-6.3509,-6.1322,-5.9342,-5.788,-5.6641,-7.9823,-8.417,-8.8632,-8.8286,-8.7825,-8.7786,-8.9325,-8.9143,-8.9113,-9.0856,-9.0836,-9.1747,-9.589,-9.917,-10.1411,-10.1564,-10.2311,-10.2721,-10.2721,-10.2721,-10.2721,-10.2721,-10.2721,-10.2721,-10.2721,-10.2721,-10.2721,-10.2721,-10.2721,-10.2721,-10.2721,-10.2721,-10.3501,-10.5099,-10.521,-10.5991,-10.7625,-10.7625,-10.8405,-11.0114,-11.0114,-11.0932,-11.2529,-11.3421,-11.4201,-11.5092,-11.6207,-11.6913,-11.7433,-11.7433,-11.7387,-11.7265,-11.7218,-11.701,-11.68,-11.6587,-11.6484,-11.623,-11.5547,-11.5105,-11.4577,-11.3658,-11.3306,-11.2983,-11.2946,-11.2801,-11.2801,-11.2801,-11.2801,-11.2801,-11.2801,-11.2801,-11.2801,-11.2801,-11.2656,-11.2282,-11.1895,-11.0537,-10.9556,-10.9371,-10.8895,-10.8566,-10.8623,-10.8921,-10.8938,-10.8304,-10.7387,-10.6071,-10.3876,-10.2437,-10.0833,-9.9042,-9.7611,-9.5905,-9.3694,-9.1761,-8.9195,-8.5692,-8.4104,-8.2377,-8.0305,-7.8616,-7.6764,-7.496,-7.2468,-6.9909,-6.693,-6.4258,-6.2324,-6.1322,-5.9378,-5.788,-7.6823,-7.9708,-8.2708,-8.2708,-8.2285,-8.2324,-8.4016,-8.3912,-8.3895,-8.559,-8.7214,-8.9621,-9.393,-9.8993,-10.2466,-10.2222,-10.2531,-10.2721,-10.2721,-10.2721,-10.2721,-10.2721,-10.2721,-10.2721,-10.2721,-10.2721,-10.2721,-10.2721,-10.2721,-10.2721,-10.2721,-10.2721,-10.3501,-10.5099,-10.5693,-10.6511,-10.7625,-10.7625,-10.8405,-11.0114,-11.0114,-11.0932,-11.2529,-11.3123,-11.4015,-11.5018,-11.5613,-11.643,-11.7433,-11.7433,-11.7433,-11.7433,-11.7302,-11.7181,-11.7181,-11.6973,-11.6886,-11.6749,-11.6176,-11.5678,-11.5202,-11.4312,-11.3694,-11.3306,-11.2983,-11.291,-11.2801,-11.2801,-11.2801,-11.2801,-11.2801,-11.2801,-11.2801,-11.2801,-11.2834,-11.2892,-11.3253,-11.1901,-11.0653,-11.063,-10.9857,-10.9368,-10.9317,-10.9268,-10.8971,-10.8671,-10.7727,-10.6419,-10.44,-10.2712,-10.1241,-9.9552,-9.8119,-9.6682,-9.5096,-9.2961,-9.0445,-8.7341,-8.5191,-8.33,-8.129,-7.9396,-7.7483,-7.5341,-7.3248,-7.0582,-6.7916,-6.5428,-6.3791,-6.2814,-6.1057,-5.9324,0.0,0.0,0.0,-7.0898,-7.0898,-7.2206,-7.713,-7.8377,-8.0016,-8.5626,-9.1243,-9.5315,-9.6009,-10.0293,-10.3625,-10.3075,-10.2792,-10.2721,-10.2721,-10.2721,-10.2721,-10.2721,-10.2721,-10.2721,-10.2721,-10.2721,-10.2721,-10.2721,-10.2721,-10.2721,-10.2721,-10.2721,-10.3501,-10.5099,-10.6808,-10.7625,-10.7625,-10.7625,-10.8405,-11.0114,-11.0114,-11.0932,-11.2529,-11.2529,-11.3421,-11.5018,-11.5018,-11.591,-11.7433,-11.7433,-11.7433,-11.7433,-11.7433,-11.7433,-11.7433,-11.7433,-11.7265,-11.7133,-11.68,-11.6193,-11.5453,-11.5008,-11.4312,-11.3625,-11.3306,-11.2983,-11.2765,-11.2801,-11.2801,-11.2801,-11.2801,-11.2801,-11.2801,-11.2801,-11.3372,-11.4046,-11.4527,-11.3347,-11.2112,-11.1474,-11.1136,-11.0657,-10.9724,-10.935,-10.8971,-10.8671,-10.788,-10.6576,-10.4951,-10.3047,-10.1413,-10.0082,-9.9047,-9.7878,-9.6289,-9.4151,-9.1819,-8.9096,-8.5991,-8.3538,-8.1968,-7.9588,-7.7334,-7.4945,-7.3089,-7.1144,-6.9356,-6.7204,-6.5488,-6.4258,-6.3021,-6.0563,-7.0898,0.0,0.0,0.0,0.0,0.0,-7.2668,-7.6331,-7.9876,-8.1392,-8.6277,-9.1556,-9.5705,-9.7295,-9.9251,-10.3073,-10.3288,-10.2903,-10.2684,-10.2721,-10.2721,-10.2721,-10.2721,-10.2721,-10.2721,-10.2721,-10.2721,-10.2721,-10.2721,-10.2721,-10.2721,-10.3799,-10.469,-10.521,-10.6808,-10.7625,-10.7625,-10.7625,-10.8108,-10.9223,-10.9817,-11.0597,-11.1712,-11.2232,-11.3421,-11.5018,-11.5018,-11.591,-11.7433,-11.7433,-11.7433,-11.7433,-11.7433,-11.7433,-11.7433,-11.7433,-11.7349,-11.7265,-11.7133,-11.6675,-11.6267,-11.5584,-11.5008,-11.4239,-11.3694,-11.3306,-11.2948,-11.2946,-11.2801,-11.2801,-11.2801,-11.2801,-11.2908,-11.3479,-11.38,-11.426,-11.5352,-11.4788,-11.3913,-11.2955,-11.1925,-11.0841,-10.9757,-10.935,-10.9153,-10.9004,-10.8152,-10.7167,-10.5722,-10.3743,-10.1927,-10.0547,-9.9196,-9.8059,-9.6682,-9.5536,-9.3267,-8.9692,-8.7562,-8.5345,-8.2395,-8.0268,-7.8211,-7.624,-7.3496,-7.1558,-7.0054,-6.7916,-6.6691,-6.643,-6.4015,-6.2079,0.0,-7.0898,-7.0898,-7.0898,0.0,0.0,-7.0898,-7.5515,-7.9792,-7.9761,-8.4383,-9.0148,-9.5751,-9.6322,-9.7756,-10.321,-10.3552,-10.3112,-10.2903,-10.2831,-10.2721,-10.2721,-10.2721,-10.2721,-10.2721,-10.2721,-10.2721,-10.2721,-10.2721,-10.2721,-10.2721,-10.4319,-10.521,-10.521,-10.6808,-10.7625,-10.7625,-10.7625,-10.7997,-10.8888,-10.9706,-11.0523,-11.1303,-11.212,-11.3421,-11.5018,-11.5018,-11.591,-11.7433,-11.7433,-11.7433,-11.7433,-11.7433,-11.7433,-11.7433,-11.7433,-11.7433,-11.7433,-11.7302,-11.7095,-11.6837,-11.6139,-11.5489,-11.4775,-11.3969,-11.3483,-11.3056,-11.291,-11.298,-11.3301,-11.3301,-11.3515,-11.3907,-11.43,-11.4693,-11.5228,-11.5893,-11.5859,-11.5347,-11.4113,-11.2739,-11.1404,-11.0337,-10.9677,-10.9268,-10.9087,-10.8337,-10.7289,-10.6104,-10.4072,-10.2267,-10.0782,-9.9552,-9.8359,-9.761,-9.6225,-9.4257,-9.121,-8.8745,-8.6203,-8.3363,-8.1059,-7.8798,-7.6782,-7.3981,-7.1494,-6.9335,-6.8182,-6.7483,-6.7169,-6.5246,-6.3547,0.0,0.0,-7.0898,-7.0898,-7.0898,0.0,-7.0898,-7.5515,-7.9823,-7.9823,-8.4417,-9.0071,-9.5125,-9.5646,-9.6882,-10.1711,-10.2524,-10.2602,-10.3005,-10.2829,-10.2721,-10.2721,-10.2721,-10.2721,-10.2721,-10.2721,-10.2721,-10.2721,-10.2721,-10.2721,-10.2721,-10.4319,-10.521,-10.521,-10.6808,-10.7625,-10.7625,-10.7625,-10.7997,-10.8814,-10.9706,-11.0523,-11.1229,-11.212,-11.3421,-11.4907,-11.5018,-11.591,-11.7321,-11.7396,-11.7433,-11.7433,-11.7433,-11.7433,-11.7433,-11.7433,-11.7433,-11.7433,-11.7433,-11.7265,-11.6973,-11.6499,-11.5864,-11.5069,-11.4312,-11.373,-11.3199,-11.3018,-11.3479,-11.4086,-11.4086,-11.4585,-11.5121,-11.5228,-11.5799,-11.6298,-11.6405,-11.6712,-11.6474,-11.5013,-11.3569,-11.2163,-11.1016,-11.0226,-10.9497,-10.9153,-10.8455,-10.7476,-10.6229,-10.4595,-10.2805,-10.0895,-9.9906,-9.9047,-9.8508,-9.6703,-9.482,-9.3179,-8.9658,-8.6696,-8.4638,-8.1926,-7.9369,-7.7189,-7.447,-7.1674,-6.8784,-6.8464,-6.7987,-6.719,-6.667,-6.5226,0.0,-7.0898,-7.0898,-7.0898,-7.0898,0.0,-7.0898,-7.5515,-7.9823,-7.9823,-8.4555,-8.8986,-8.9955,-8.9756,-8.971,-9.057,-9.3954,-9.8011,-10.2445,-10.2829,-10.2721,-10.2721,-10.2721,-10.2721,-10.2721,-10.2721,-10.2721,-10.2721,-10.2721,-10.2721,-10.2721,-10.4319,-10.521,-10.521,-10.6808,-10.7625,-10.7625,-10.7625,-10.7699,-10.7922,-10.9408,-11.0189,-11.0411,-11.1823,-11.3123,-11.4089,-11.4721,-11.5501,-11.6504,-11.7136,-11.7433,-11.7433,-11.7433,-11.7433,-11.7433,-11.7433,-11.7433,-11.7433,-11.7433,-11.7349,-11.7265,-11.68,-11.6193,-11.5641,-11.4577,-11.3866,-11.3557,-11.3661,-11.43,-11.4907,-11.4907,-11.5014,-11.5299,-11.5906,-11.6191,-11.6512,-11.7083,-11.7104,-11.671,-11.5875,-11.4346,-11.2773,-11.1404,-11.0303,-10.9497,-10.9153,-10.8638,-10.8,-10.7077,-10.5402,-10.364,-10.1896,-10.0577,-9.9374,-9.8508,-9.7482,-9.5872,-9.3801,-9.1458,-8.8772,-8.5685,-8.3275,-8.1162,-7.8881,-7.4686,-7.1988,-7.0782,-6.9505,-6.8557,-6.7927,-6.721,-6.621,-7.0898,-7.0898,-7.0898,-7.0898,-7.0898,0.0,0.0,-7.5515,-7.9823,-7.9823,-8.217,-8.5137,-8.7993,-8.5743,-8.4355,-8.6981,-9.1617,-9.5857,-9.8449,-10.108,-10.2721,-10.2721,-10.2721,-10.2721,-10.2721,-10.2721,-10.2721,-10.2721,-10.2721,-10.2721,-10.2721,-10.4319,-10.521,-10.521,-10.6808,-10.7625,-10.7625,-10.7625,-10.7625,-10.7625,-10.9297,-11.0114,-11.0189,-11.1823,-11.3012,-11.3792,-11.4201,-11.5092,-11.6207,-11.6616,-11.7024,-11.7433,-11.7433,-11.7433,-11.7433,-11.7433,-11.7433,-11.7433,-11.7433,-11.7433,-11.7275,-11.6973,-11.6462,-11.5883,-11.5105,-11.4361,-11.4167,-11.4631,-11.5197,-11.5727,-11.5727,-11.6013,-11.6405,-11.6798,-11.6905,-11.7012,-11.7405,-11.7397,-11.7131,-11.6628,-11.5351,-11.3925,-11.2061,-11.0841,-11.0048,-10.935,-10.8971,-10.8185,-10.7387,-10.5913,-10.43,-10.2374,-10.1037,-9.9906,-9.8868,-9.7965,-9.669,-9.4854,-9.24,-9.0049,-8.7708,-8.4993,-8.1905,-7.8888,-7.5906,-7.3335,-7.1428,-7.0565,-6.959,-6.864,-6.7927,-6.721,-7.0898,-7.0898,-7.0898,-7.0898,-7.0898,-7.0898,0.0,0.0,0.0,-7.8092,0.0,0.0,0.0,0.0,0.0,-8.334,0.0,0.0,0.0,-9.6042,-10.0269,-10.2424,-10.2721,-10.2721,-10.2721,-10.1718,-10.1087,-10.1087,-10.1087,-10.1087,-10.1087,-10.3501,-10.5025,-10.521,-10.6622,-10.7402,-10.7625,-10.7625,-10.7625,-10.7625,-10.9297,-11.0114,-11.0189,-11.1823,-11.2901,-11.3606,-11.3718,-11.4498,-11.5798,-11.6095,-11.6616,-11.721,-11.7321,-11.7433,-11.7433,-11.7433,-11.7433,-11.7433,-11.7433,-11.7433,-11.7349,-11.7218,-11.6823,-11.6269,-11.5577,-11.5318,-11.5172,-11.5818,-11.6352,-11.6661,-11.6625,-11.7048,-11.7512,-11.7512,-11.7512,-11.7512,-11.7512,-11.7512,-11.7362,-11.7131,-11.6236,-11.5138,-11.3006,-11.175,-11.0766,-10.9869,-10.9169,-10.8455,-10.7574,-10.6419,-10.4951,-10.3277,-10.1756,-10.0372,-9.9374,-9.8328,-9.7205,-9.588,-9.3447,-9.1188,-8.9542,-8.6182,-8.2547,-7.9076,-7.7547,-7.5378,-7.2338,-7.163,-7.0544,-6.8988,-6.8515,-6.7844,-7.0898,-7.0898,-7.0898,-7.0898,-7.0898,-7.0898,-7.0898,0.0,-7.1898,-7.1898,0.0,-7.2129,0.0,0.0,0.0,0.0,-7.6549,-7.994,-7.9729,-8.433,-9.1445,-10.1495,-10.2721,-10.2721,-10.2721,-9.8115,-9.518,-9.518,-9.518,-9.518,-9.518,-10.0901,-10.4505,-10.521,-10.6102,-10.6919,-10.7625,-10.7625,-10.7625,-10.7625,-10.9297,-11.0114,-11.0189,-11.1823,-11.2603,-11.2715,-11.3495,-11.3904,-11.4201,-11.5613,-11.6318,-11.643,-11.7136,-11.7433,-11.7433,-11.7433,-11.7433,-11.7433,-11.7433,-11.7433,-11.7349,-11.7218,-11.6889,-11.6645,-11.6393,-11.692,-11.7536,-11.7433,-11.7688,-11.8045,-11.7785,-11.7632,-11.7512,-11.7512,-11.7512,-11.7512,-11.7512,-11.7512,-11.7362,-11.7131,-11.6628,-11.584,-11.402,-11.2604,-11.1471,-11.0337,-10.979,-10.9202,-10.8455,-10.7574,-10.6229,-10.4626,-10.2743,-10.121,-9.9906,-9.8478,-9.7571,-9.6808,-9.4825,-9.2825,-9.0716,-8.6558,-8.319,-8.0771,-7.9051,-7.7358,-7.5209,-7.2628,-7.0497,-6.8485,-6.8506,-6.7987,-7.0898,-7.0898,-7.0898,-7.0898,-7.0898,-7.0898,-7.0898,-7.0898,-7.0898,-7.0898,0.0,0.0,0.0,0.0,0.0,0.0,-7.4786,-7.8171,-7.7888,0.0,-8.778,-9.2338,-9.2868,-9.2765,-9.2765,-9.061,-8.9198,-8.9198,-9.2319,-9.4214,-9.4214,-10.0418,-10.4393,-10.521,-10.5991,-10.6808,-10.7625,-10.7625,-10.7625,-10.7625,-10.9297,-11.0114,-11.0189,-11.1823,-11.2529,-11.2529,-11.2901,-11.3309,-11.3904,-11.5018,-11.5798,-11.6318,-11.7099,-11.7433,-11.7433,-11.7433,-11.7433,-11.7433,-11.7433,-11.7433,-11.7349,-11.7218,-11.7303,-11.7555,-11.7718,-11.8158,-11.8749,-11.8919,-11.8904,-11.8733,-11.8153,-11.7856,-11.7703,-11.7476,-11.7512,-11.7512,-11.7512,-11.7512,-11.7512,-11.7362,-11.698,-11.6439,-11.5315,-11.37,-11.2095,-11.1016,-11.0159,-10.9317,-10.8638,-10.7662,-10.6701,-10.5434,-10.3577,-10.1927,-10.0751,-9.9374,-9.8298,-9.7571,-9.4912,-9.2472,-9.0064,-8.7295,-8.453,-8.2108,-8.0715,-7.8693,-7.6473,-7.4545,-7.2293,-7.0086,-6.8551,-6.7999,-7.5784,-7.4591,-7.336,-7.336,-7.2129,-7.0898,-7.0898,-7.0898,-7.0898,-7.0898,-7.0898,0.0,0.0,0.0,0.0,0.0,0.0,-7.6104,-7.5802,-7.9128,-8.2682,-8.5462,-8.5655,-8.5595,-8.5595,-8.4183,-8.3254,-8.3254,-8.8567,-9.1167,-8.9607,-9.8486,-10.339,-10.2907,-10.4913,-10.6622,-10.7625,-10.7625,-10.7625,-10.7625,-10.9111,-10.9891,-11.0114,-11.1526,-11.2306,-11.2529,-11.2529,-11.2901,-11.3495,-11.4609,-11.5315,-11.6021,-11.7024,-11.7433,-11.7433,-11.7433,-11.7433,-11.7433,-11.7433,-11.7433,-11.7349,-11.7525,-11.7898,-11.8537,-11.9134,-11.9505,-11.9935,-12.0194,-11.9842,-11.9294,-11.8946,-11.848,-11.8151,-11.7816,-11.7739,-11.7626,-11.7476,-11.7512,-11.7512,-11.7512,-11.7247,-11.7015,-11.6391,-11.453,-11.2873,-11.1854,-11.0556,-10.9644,-10.8905,-10.8185,-10.72,-10.6355,-10.4432,-10.2743,-10.1756,-10.0258,-9.8838,-9.7418,-9.51,-9.239,-8.9877,-8.8088,-8.5874,-8.3088,-8.2057,-8.023,-7.7423,-7.6159,-7.4404,-7.2377,-6.9782,-6.8529,-8.8132,-8.3901,-7.9515,-7.9515,-7.5168,-7.0898,-7.0898,-7.0898,-7.0898,-7.0898,-7.0898,-7.0898,-7.0898,0.0,0.0,0.0,0.0,0.0,0.0,-7.0155,-7.3989,-8.4551,-8.5655,-8.5595,-8.5595,-8.0617,-7.7347,-7.7347,-8.266,-8.3477,-7.7942,-9.3582,-10.0901,-9.7,-10.2313,-10.5991,-10.7625,-10.7625,-10.7625,-10.7625,-10.8517,-10.9297,-11.0114,-11.1006,-11.1823,-11.2529,-11.2529,-11.2529,-11.2715,-11.4312,-11.5018,-11.5204,-11.6801,-11.7433,-11.7433,-11.7433,-11.7433,-11.7433,-11.7433,-11.7433,-11.7507,-11.8325,-11.9009,-11.9614,-12.0429,-12.1103,-12.1496,-12.1181,-12.0802,-12.0315,-11.9979,-11.9439,-11.8697,-11.8335,-11.8115,-11.778,-11.7626,-11.7512,-11.7512,-11.7512,-11.7512,-11.7397,-11.698,-11.5631,-11.3994,-11.2538,-11.1404,-11.0514,-10.9644,-10.8905,-10.8152,-10.7265,-10.5594,-10.3939,-10.2774,-10.0895,-9.8838,-9.6496,-9.5318,-9.3578,-9.0902,-8.9301,-8.7114,-8.4295,-8.3268,-8.149,-7.9137,-7.7632,-7.6159,-7.493,-7.1958,-6.9793,-8.8709,-8.4324,-7.9823,-7.9823,-7.5322,-7.0898,-7.0898,-7.0898,-7.2014,-7.5976,-7.6784,-7.6784,-7.6784,0.0,0.0,0.0,0.0,0.0,0.0,-6.9853,-7.0893,-7.4526,-7.4624,-7.4406,-7.4301,-7.2555,-7.1403,-7.1403,-7.6716,-8.0765,-8.2623,-9.1836,-9.8672,-10.2201,-10.4207,-10.5991,-10.7625,-10.7625,-10.7625,-10.7625,-10.8517,-10.9297,-11.0114,-11.0932,-11.1712,-11.2529,-11.2529,-11.2529,-11.2603,-11.3718,-11.4498,-11.513,-11.6207,-11.6913,-11.7433,-11.7433,-11.7433,-11.7433,-11.7433,-11.7433,-11.7507,-11.8325,-11.9057,-11.9911,-12.0728,-12.1494,-12.2037,-12.1806,-12.1422,-12.1013,-12.0572,-12.0043,-11.947,-11.9262,-11.884,-11.8444,-11.8115,-11.7892,-11.7703,-11.7476,-11.7512,-11.7362,-11.7131,-11.6152,-11.4943,-11.3272,-11.1854,-11.048,-10.9757,-10.8938,-10.8337,-10.8033,-10.6544,-10.5049,-10.3908,-10.1444,-9.9196,-9.7418,-9.6066,-9.4343,-9.2418,-9.029,-8.7697,-8.4879,-8.3291,-8.1725,-7.9986,-7.8516,-7.7448,-7.6159,-7.4404,-7.2247,-9.498,-9.0633,-8.6094,-8.6094,-8.1631,-7.7246,-7.7246,-7.7246,-7.8323,-8.217,-8.1285,-7.9823,-7.9823,-7.8092,0.0,0.0,0.0,0.0,0.0,-7.0071,-6.974,-6.9501,-6.9072,-6.8744,-6.8602,-6.8554,-6.8554,-6.8506,-7.3818,-7.7793,-7.9428,-8.7192,-9.2951,-9.596,-9.8338,-10.1198,-10.4505,-10.4616,-10.5619,-10.7625,-10.822,-10.8888,-10.9706,-11.0523,-11.1303,-11.212,-11.2418,-11.2529,-11.2603,-11.3421,-11.4089,-11.4721,-11.5798,-11.6504,-11.7024,-11.7321,-11.7433,-11.7433,-11.7433,-11.7619,-11.8027,-11.8807,-11.9588,-12.0479,-12.1297,-12.1891,-12.23,-12.2088,-12.1859,-12.1642,-12.1274,-12.0765,-12.0242,-12.0007,-11.9573,-11.9088,-11.8733,-11.8299,-11.804,-11.7703,-11.7626,-11.7362,-11.7211,-11.6474,-11.5509,-11.383,-11.2232,-11.0875,-10.9869,-10.9235,-10.8671,-10.8488,-10.72,-10.5754,-10.4072,-10.1725,-9.9729,-9.8147,-9.6808,-9.5476,-9.4153,-9.1606,-8.9043,-8.6663,-8.4475,-8.2512,-8.0804,-7.9575,-7.8516,-7.7423,-7.6159,-7.4404]}]]